[[{"header":{"parameterUnit":"m.s-1","parameterCategory":1,"la1":30.6,"la2":28.766,"lo1":-90.7593,"lo2":-88.6598,"dx":0.0162,"dy":0.0183,"nx":116,"ny":114,"refTime":"2022-12-16T18:00:00:Z","depth":0,"parameterNumber":2,"parameterNumberName":"U-component_of_WINDS"},"data":[0.0,0.0,0.0,0.0,0.0,0.0,0.0,0.0,0.0,0.0,0.0,0.0,0.0,0.0,0.0,0.0,0.0,0.0,0.0,0.0,0.0,0.0,0.0,0.0,0.0,0.0,0.0,0.0,0.0,0.0,0.0,0.0,0.0,0.0,0.0,0.0,0.0,0.0,0.0,0.0,0.0,0.0,0.0,0.0,0.0,0.0,0.0,0.0,0.0,0.0,0.0,0.0,0.0,0.0,0.0,0.0,0.0,0.0,0.0,0.0,0.0,0.0,0.0,0.0,0.0,0.0,0.0,0.0,0.0,0.0,0.0,0.0,0.0,0.0,0.0,0.0,0.0,0.0,0.0,0.0,0.0,0.0,0.0,0.0,0.0,0.0,0.0,0.0,0.0,0.0,0.0,0.0,0.0,0.0,0.0,0.0,0.0,0.0,0.0,0.0,0.0,0.0,0.0,0.0,0.0,0.0,0.0,0.0,0.0,0.0,0.0,0.0,0.0,0.0,0.0,0.0,0.0,0.0,0.0,0.0,0.0,0.0,0.0,0.0,0.0,0.0,0.0,0.0,0.0,0.0,0.0,0.0,0.0,0.0,0.0,0.0,0.0,0.0,0.0,0.0,0.0,0.0,0.0,0.0,0.0,0.0,0.0,0.0,0.0,0.0,0.0,0.0,0.0,0.0,0.0,0.0,0.0,0.0,0.0,0.0,0.0,0.0,0.0,0.0,0.0,0.0,0.0,0.0,0.0,0.0,0.0,0.0,0.0,0.0,0.0,0.0,0.0,0.0,0.0,0.0,0.0,0.0,0.0,0.0,0.0,0.0,0.0,0.0,0.0,0.0,0.0,0.0,0.0,0.0,0.0,0.0,0.0,0.0,0.0,0.0,0.0,0.0,0.0,0.0,0.0,0.0,0.0,0.0,0.0,0.0,0.0,0.0,0.0,0.0,0.0,0.0,0.0,0.0,0.0,0.0,0.0,0.0,0.0,0.0,0.0,0.0,0.0,0.0,0.0,0.0,0.0,0.0,0.0,0.0,0.0,0.0,0.0,0.0,0.0,0.0,0.0,0.0,0.0,0.0,0.0,0.0,0.0,0.0,0.0,0.0,0.0,0.0,0.0,0.0,0.0,0.0,0.0,0.0,0.0,0.0,0.0,0.0,0.0,0.0,0.0,0.0,0.0,0.0,0.0,0.0,0.0,0.0,0.0,0.0,0.0,0.0,0.0,0.0,0.0,0.0,0.0,0.0,0.0,0.0,0.0,0.0,0.0,0.0,0.0,0.0,0.0,0.0,0.0,0.0,0.0,0.0,0.0,0.0,0.0,0.0,0.0,0.0,0.0,0.0,0.0,0.0,0.0,0.0,0.0,0.0,0.0,0.0,0.0,0.0,0.0,0.0,0.0,0.0,0.0,0.0,0.0,0.0,0.0,0.0,0.0,0.0,0.0,0.0,0.0,0.0,0.0,0.0,0.0,0.0,0.0,0.0,0.0,0.0,0.0,0.0,0.0,0.0,0.0,0.0,0.0,0.0,0.0,0.0,0.0,0.0,0.0,0.0,0.0,0.0,0.0,0.0,0.0,0.0,0.0,0.0,0.0,0.0,0.0,0.0,0.0,0.0,0.0,0.0,0.0,0.0,0.0,0.0,0.0,0.0,0.0,0.0,0.0,0.0,0.0,0.0,0.0,0.0,0.0,0.0,0.0,0.0,0.0,0.0,0.0,0.0,0.0,0.0,0.0,0.0,0.0,0.0,0.0,0.0,0.0,0.0,0.0,0.0,0.0,0.0,0.0,0.0,0.0,0.0,0.0,0.0,0.0,0.0,0.0,0.0,0.0,0.0,0.0,0.0,0.0,0.0,0.0,0.0,0.0,0.0,0.0,0.0,0.0,0.0,0.0,0.0,0.0,0.0,0.0,0.0,0.0,0.0,0.0,0.0,0.0,0.0,0.0,0.0,0.0,0.0,0.0,0.0,0.0,0.0,0.0,0.0,0.0,0.0,0.0,0.0,0.0,0.0,0.0,0.0,0.0,0.0,0.0,0.0,0.0,0.0,0.0,0.0,0.0,0.0,0.0,0.0,0.0,0.0,0.0,0.0,0.0,0.0,0.0,0.0,0.0,0.0,0.0,0.0,0.0,0.0,0.0,0.0,0.0,0.0,0.0,0.0,0.0,0.0,0.0,0.0,0.0,0.0,0.0,0.0,0.0,0.0,0.0,0.0,0.0,0.0,0.0,0.0,0.0,0.0,0.0,0.0,0.0,0.0,0.0,0.0,0.0,0.0,0.0,0.0,0.0,0.0,0.0,0.0,0.0,0.0,0.0,0.0,0.0,0.0,0.0,0.0,0.0,0.0,0.0,0.0,0.0,0.0,0.0,0.0,0.0,0.0,0.0,0.0,0.0,0.0,0.0,0.0,0.0,0.0,0.0,0.0,0.0,0.0,0.0,0.0,0.0,0.0,0.0,0.0,0.0,0.0,0.0,0.0,0.0,0.0,0.0,0.0,0.0,0.0,0.0,0.0,0.0,0.0,0.0,0.0,0.0,0.0,0.0,0.0,0.0,0.0,0.0,0.0,0.0,0.0,0.0,0.0,0.0,0.0,0.0,0.0,0.0,0.0,0.0,0.0,0.0,0.0,0.0,0.0,0.0,0.0,0.0,0.0,0.0,0.0,0.0,0.0,0.0,0.0,0.0,0.0,0.0,0.0,0.0,0.0,0.0,0.0,0.0,0.0,0.0,0.0,0.0,0.0,0.0,0.0,0.0,0.0,0.0,0.0,0.0,0.0,0.0,0.0,0.0,0.0,0.0,0.0,0.0,0.0,0.0,0.0,0.0,0.0,0.0,0.0,0.0,0.0,0.0,0.0,0.0,0.0,0.0,0.0,0.0,0.0,0.0,0.0,0.0,0.0,0.0,0.0,0.0,0.0,0.0,0.0,0.0,0.0,0.0,0.0,0.0,0.0,0.0,0.0,0.0,0.0,0.0,0.0,0.0,0.0,0.0,0.0,0.0,0.0,0.0,0.0,0.0,0.0,0.0,0.0,0.0,0.0,0.0,0.0,0.0,0.0,0.0,0.0,0.0,0.0,0.0,0.0,0.0,0.0,0.0,0.0,0.0,0.0,0.0,0.0,0.0,0.0,0.0,0.0,0.0,0.0,0.0,0.0,0.0,0.0,0.0,0.0,0.0,0.0,0.0,0.0,0.0,0.0,0.0,0.0,0.0,0.0,0.0,0.0,0.0,0.0,0.0,0.0,0.0,0.0,0.0,0.0,0.0,0.0,0.0,0.0,0.0,0.0,0.0,0.0,0.0,0.0,0.0,0.0,0.0,0.0,0.0,0.0,0.0,0.0,0.0,0.0,0.0,0.0,0.0,0.0,0.0,0.0,0.0,0.0,0.0,0.0,0.0,0.0,0.0,0.0,0.0,0.0,0.0,0.0,0.0,0.0,0.0,0.0,0.0,0.0,0.0,0.0,0.0,0.0,0.0,0.0,0.0,0.0,0.0,0.0,0.0,0.0,0.0,0.0,0.0,0.0,0.0,0.0,0.0,0.0,0.0,0.0,0.0,0.0,0.0,0.0,0.0,0.0,0.0,0.0,0.0,0.0,0.0,0.0,0.0,0.0,0.0,0.0,0.0,0.0,0.0,0.0,0.0,0.0,0.0,0.0,0.0,0.0,0.0,0.0,0.0,0.0,0.0,0.0,0.0,0.0,0.0,0.0,0.0,0.0,0.0,0.0,0.0,0.0,0.0,0.0,0.0,0.0,0.0,0.0,0.0,0.0,0.0,0.0,0.0,0.0,0.0,0.0,0.0,0.0,0.0,0.0,0.0,0.0,0.0,0.0,0.0,0.0,0.0,0.0,0.0,0.0,0.0,0.0,0.0,0.0,0.0,0.0,0.0,0.0,0.0,0.0,0.0,0.0,0.0,0.0,0.0,0.0,0.0,0.0,0.0,0.0,0.0,0.0,0.0,0.0,0.0,0.0,0.0,0.0,0.0,0.0,0.0,0.0,0.0,0.0,0.0,0.0,0.0,0.0,0.0,0.0,0.0,0.0,0.0,0.0,0.0,0.0,0.0,0.0,0.0,0.0,0.0,0.0,0.0,0.0,0.0,0.0,0.0,0.0,0.0,0.0,0.0,0.0,0.0,0.0,0.0,0.0,0.0,0.0,0.0,0.0,0.0,0.0,0.0,0.0,0.0,0.0,0.0,0.0,0.0,0.0,0.0,0.0,0.0,0.0,0.0,0.0,0.0,0.0,0.0,0.0,0.0,0.0,0.0,0.0,0.0,0.0,0.0,0.0,0.0,0.0,0.0,0.0,0.0,0.0,0.0,0.0,0.0,0.0,0.0,0.0,0.0,0.0,0.0,0.0,0.0,0.0,0.0,0.0,0.0,0.0,0.0,0.0,0.0,0.0,0.0,0.0,0.0,0.0,0.0,0.0,0.0,0.0,0.0,0.0,0.0,0.0,0.0,0.0,0.0,0.0,0.0,0.0,0.0,0.0,0.0,0.0,0.0,0.0,0.0,0.0,0.0,0.0,0.0,0.0,0.0,0.0,0.0,0.0,0.0,0.0,0.0,0.0,0.0,0.0,0.0,0.0,0.0,0.0,0.0,0.0,0.0,0.0,0.0,0.0,0.0,0.0,0.0,0.0,0.0,0.0,0.0,0.0,0.0,0.0,0.0,0.0,0.0,0.0,0.0,0.0,0.0,0.0,0.0,0.0,0.0,0.0,0.0,0.0,0.0,0.0,0.0,0.0,0.0,0.0,0.0,0.0,0.0,0.0,0.0,0.0,0.0,0.0,0.0,0.0,0.0,0.0,0.0,0.0,0.0,0.0,0.0,0.0,0.0,0.0,0.0,0.0,0.0,0.0,0.0,0.0,0.0,0.0,0.0,0.0,0.0,0.0,0.0,0.0,0.0,0.0,0.0,0.0,0.0,0.0,0.0,0.0,0.0,0.0,0.0,0.0,0.0,0.0,0.0,0.0,0.0,0.0,0.0,0.0,0.0,0.0,0.0,0.0,0.0,0.0,0.0,0.0,0.0,0.0,0.0,0.0,0.0,0.0,0.0,0.0,0.0,0.0,0.0,0.0,0.0,0.0,0.0,0.0,0.0,0.0,0.0,0.0,0.0,0.0,0.0,0.0,0.0,0.0,0.0,0.0,0.0,0.0,0.0,0.0,0.0,0.0,0.0,0.0,0.0,0.0,0.0,0.0,0.0,0.0,0.0,0.0,0.0,0.0,0.0,0.0,0.0,0.0,0.0,0.0,0.0,0.0,0.0,0.0,0.0,0.0,0.0,0.0,0.0,0.0,0.0,0.0,0.0,0.0,0.0,0.0,0.0,0.0,0.0,0.0,0.0,0.0,0.0,0.0,0.0,0.0,0.0,0.0,0.0,0.0,0.0,0.0,0.0,0.0,0.0,0.0,0.0,0.0,0.0,0.0,0.0,0.0,0.0,0.0,0.0,0.0,0.0,0.0,0.0,0.0,0.0,0.0,0.0,0.0,0.0,0.0,0.0,0.0,0.0,0.0,0.0,0.0,0.0,0.0,0.0,0.0,0.0,0.0,0.0,0.0,0.0,0.0,0.0,0.0,0.0,0.0,0.0,0.0,0.0,0.0,0.0,0.0,0.0,0.0,0.0,0.0,0.0,0.0,0.0,0.0,0.0,0.0,0.0,0.0,0.0,0.0,0.0,0.0,0.0,0.0,0.0,0.0,0.0,0.0,0.0,0.0,0.0,0.0,0.0,0.0,0.0,0.0,0.0,0.0,0.0,0.0,0.0,0.0,0.0,0.0,0.0,0.0,0.0,0.0,0.0,0.0,0.0,0.0,0.0,0.0,0.0,0.0,0.0,0.0,0.0,0.0,0.0,0.0,0.0,0.0,0.0,0.0,0.0,0.0,0.0,0.0,0.0,0.0,0.0,0.0,0.0,0.0,0.0,0.0,0.0,0.0,0.0,0.0,0.0,0.0,0.0,0.0,0.0,0.0,0.0,0.0,0.0,0.0,0.0,0.0,0.0,0.0,0.0,0.0,0.0,0.0,0.0,0.0,0.0,0.0,0.0,0.0,0.0,0.0,0.0,0.0,2.7266,2.5375,0.0,0.0,0.0,0.0,0.0,0.0,0.0,0.0,0.0,0.0,0.0,0.0,0.0,0.0,0.0,0.0,0.0,0.0,0.0,0.0,0.0,0.0,0.0,0.9342,0.9681,1.0036,1.0237,0.0,0.0,0.0,0.0,0.0,0.0,0.0,0.0,0.0,1.3193,1.2737,1.4278,1.5622,1.6755,1.597,1.5442,1.5173,0.0,0.0,0.0,0.0,0.0,0.0,0.0,0.0,0.0,0.0,0.0,0.0,0.0,0.0,0.0,0.0,0.0,0.0,0.0,0.0,0.0,0.0,0.0,0.0,0.0,0.0,0.0,0.0,0.0,0.0,0.0,0.0,0.0,0.0,0.0,0.0,0.0,0.0,0.0,0.0,0.0,0.0,0.0,0.0,0.0,0.0,0.0,0.0,0.0,0.0,0.0,0.0,0.0,0.0,0.0,0.0,0.0,0.0,0.0,0.0,0.0,0.0,0.0,0.0,0.0,0.0,0.0,0.0,0.0,0.0,2.9217,2.7657,0.0,0.0,0.0,0.0,0.0,0.0,0.0,0.0,0.0,0.0,0.0,0.0,0.0,0.0,0.0,0.0,0.0,0.0,0.0,0.0,0.0,0.9527,1.0204,1.0755,1.1312,1.1774,1.2139,1.2293,1.2199,1.2405,0.0,0.0,0.0,0.0,1.1644,1.3311,1.448,1.5088,1.6659,1.8137,1.9515,1.8904,1.8332,1.7786,1.7515,0.0,0.0,0.0,0.0,0.0,0.0,0.0,0.0,0.0,0.0,0.0,0.0,0.0,0.0,0.0,0.0,0.0,0.0,0.0,0.0,0.0,0.0,0.0,0.0,0.0,0.0,0.0,0.0,0.0,0.0,0.0,0.0,0.0,0.0,0.0,0.0,0.0,0.0,0.0,0.0,0.0,0.0,0.0,0.0,0.0,0.0,0.0,0.0,0.0,0.0,0.0,0.0,0.0,0.0,0.0,0.0,0.0,0.0,0.0,0.0,0.0,0.0,0.0,3.3759,3.4278,3.505,3.5045,3.5052,3.4903,3.2228,3.1154,3.1173,3.0373,0.0,0.0,0.0,0.0,0.0,0.0,0.0,0.0,0.0,0.0,0.0,0.0,0.0,0.0,0.0,0.0,0.0,0.0,0.0,1.0219,1.0893,1.1047,1.0893,1.042,1.0426,1.0513,1.06,1.1167,0.0,0.0,0.0,1.4815,1.4965,1.6499,1.7356,1.7458,1.911,2.0357,2.1164,2.1145,2.1083,2.0928,1.9545,1.8891,1.8792,0.0,0.0,0.0,0.0,0.0,0.0,0.0,0.0,0.0,0.0,0.0,0.0,0.0,0.0,0.0,0.0,0.0,0.0,0.0,0.0,0.0,0.0,0.0,0.0,0.0,0.0,0.0,0.0,0.0,0.0,0.0,0.0,0.0,0.0,0.0,0.0,0.0,0.0,0.0,0.0,0.0,2.3858,2.4454,0.0,0.0,0.0,0.0,0.0,0.0,0.0,0.0,0.0,0.0,0.0,0.0,0.0,3.2706,3.3547,3.4401,3.5293,3.6222,3.6928,3.7689,3.8469,3.8451,3.8451,3.8432,3.8005,0.0,3.3658,3.286,0.0,0.0,0.0,0.0,0.0,0.0,0.0,0.0,0.0,0.0,0.0,0.0,0.0,0.0,0.0,0.0,0.0,0.0,0.0,0.0,0.0,1.3398,1.3736,1.4581,1.4459,1.4515,1.4939,1.5254,0.0,0.0,1.5668,1.6131,1.6038,1.7274,1.8353,1.9315,2.0477,2.1206,2.1566,2.1583,2.1832,2.2194,2.148,2.0963,2.0556,1.9757,0.0,0.0,0.0,0.0,0.0,0.0,0.0,0.0,0.0,0.0,0.0,0.0,0.0,0.0,0.0,0.0,0.0,0.0,0.0,0.0,0.0,0.0,0.0,0.0,0.0,0.0,0.0,0.0,0.0,0.0,0.0,0.0,0.0,0.0,0.0,0.0,0.0,0.0,0.0,2.4252,2.4411,2.6285,2.6304,2.6724,0.0,0.0,0.0,0.0,0.0,0.0,0.0,0.0,0.0,3.5027,3.5516,3.637,3.7671,3.7578,3.8172,3.9435,3.9342,3.9733,4.0513,4.0513,4.0754,4.1144,4.0698,3.9955,3.8897,3.7151,3.6198,3.5832,0.0,0.0,0.0,0.0,3.4988,3.507,0.0,0.0,0.0,0.0,0.0,0.0,0.0,0.0,0.0,0.0,0.0,0.0,1.5303,1.5468,1.5979,1.7316,1.7205,1.7322,1.7827,1.8003,1.7888,1.7427,1.7633,1.7738,1.7639,1.8595,1.9593,2.0715,2.1635,2.2125,2.2177,2.2384,2.2763,2.3298,2.3298,2.2677,2.1574,2.1152,2.1221,2.1384,0.0,0.0,0.0,0.0,0.0,0.0,0.0,0.0,0.0,0.0,0.0,0.0,0.0,0.0,0.0,0.0,0.0,0.0,0.0,0.0,0.0,0.0,0.0,0.0,0.0,0.0,0.0,0.0,0.0,0.0,0.0,0.0,0.0,0.0,0.0,0.0,0.0,2.5736,2.598,2.8555,2.8898,2.9521,0.0,0.0,0.0,0.0,0.0,0.0,3.4419,3.5892,3.7113,3.7931,3.8729,3.9751,4.0996,4.0791,4.1311,4.2537,4.2147,4.2259,4.2853,4.2853,4.3169,4.3708,4.3113,4.3188,4.354,4.0886,3.9498,3.9051,3.9127,3.8826,3.8395,3.8441,3.8505,3.8609,0.0,0.0,0.0,0.0,0.0,0.0,0.0,0.0,0.0,0.0,0.0,1.4667,1.5994,1.6148,1.5918,1.538,1.5571,1.574,1.583,1.638,1.7235,1.8469,1.9547,2.0397,2.0957,2.182,2.2021,2.1539,2.2978,2.3684,2.3702,2.4471,2.485,2.4885,2.4885,2.366,2.1643,2.2289,2.2212,2.1522,2.0601,0.0,0.0,0.0,0.0,0.0,0.0,0.0,0.0,0.0,0.0,0.0,0.0,0.0,0.0,0.0,0.0,0.0,0.0,0.0,0.0,0.0,0.0,0.0,0.0,0.0,0.0,0.0,0.0,0.0,0.0,0.0,0.0,0.0,0.0,0.0,0.0,0.0,0.0,3.1228,3.1413,0.0,0.0,0.0,0.0,3.5136,3.6029,3.7188,3.8711,3.9658,4.0513,4.133,4.2129,4.2593,4.2686,4.4209,4.5026,4.5119,4.5844,4.6215,4.6252,4.6252,4.6271,4.6308,4.6271,4.6271,4.6048,4.2957,4.166,4.1651,4.1895,4.1976,4.1957,4.2077,4.2143,4.2124,0.0,0.0,0.0,0.8094,0.8464,0.905,0.9958,1.1235,1.2759,1.4606,1.558,1.6668,1.8023,1.7392,1.7101,1.7791,1.7496,1.7477,1.7971,1.8625,1.9092,1.9289,1.989,2.0591,2.1292,2.261,2.3189,2.3039,2.4074,2.4574,2.4591,2.4867,2.5005,2.5005,2.5005,2.4557,2.3781,2.3512,2.3574,2.3643,2.1884,2.1643,0.0,0.0,0.0,0.0,0.0,0.0,0.0,0.0,0.0,0.0,0.0,0.0,0.0,0.0,0.0,0.0,0.0,0.0,0.0,0.0,0.0,0.0,0.0,0.0,0.0,0.0,0.0,0.0,0.0,0.0,0.0,0.0,0.0,0.0,0.0,0.0,0.0,3.3702,3.4474,0.0,3.7036,3.7757,3.8238,3.847,3.9352,4.0085,4.068,4.198,4.3113,4.3949,4.4748,4.4934,4.4413,4.4989,4.5287,4.5287,4.5584,4.5992,4.6494,4.6494,4.6773,4.7237,4.6717,4.6857,4.7341,4.5776,4.5171,4.5152,4.5329,4.5462,4.5565,4.559,4.5615,4.5615,0.0,0.0,0.0,0.8109,0.8664,0.9404,1.031,1.202,1.3682,1.4996,1.6363,1.7576,1.8484,1.7976,1.79,1.8838,1.8547,1.8641,1.9435,1.9869,2.0206,2.0413,2.0989,2.1561,2.2148,2.3436,2.4144,2.4212,2.5005,2.5643,2.6161,2.6402,2.6799,2.7282,2.7282,2.7437,2.7575,2.6342,2.5512,2.485,2.3074,2.2669,2.2972,0.0,0.0,0.0,0.0,0.0,0.0,0.0,0.0,0.0,0.0,0.0,0.0,0.0,0.0,0.0,0.0,0.0,0.0,0.0,0.0,0.0,0.0,0.0,0.0,0.0,0.0,0.0,0.0,0.0,0.0,0.0,0.0,0.0,0.0,3.2847,3.4002,3.6287,3.7322,3.8387,3.9682,4.063,4.1252,4.1464,4.2322,4.2965,4.3243,4.4005,4.4822,4.5677,4.6215,4.6364,4.6104,4.6382,4.6513,4.6513,4.6513,4.6791,4.7311,4.759,4.8017,4.85,4.8259,4.8546,4.9193,4.8809,4.8525,4.8246,4.755,4.7318,4.7397,4.7397,4.7397,4.7422,0.0,0.0,0.0,0.8109,0.8695,0.9587,1.0902,1.2338,1.3721,1.5006,1.6366,1.7239,1.7254,1.7854,1.8238,1.8207,1.8454,1.8964,1.9751,1.9752,2.0398,2.1784,2.2899,2.3568,2.371,2.4528,2.4999,2.5109,2.585,2.7006,2.8523,2.9248,3.0368,3.18,3.18,3.2196,3.2752,3.0716,2.8077,2.5155,2.4247,2.395,2.3911,0.0,0.0,0.0,0.0,0.0,0.0,0.0,0.0,0.0,0.0,0.0,0.0,0.0,0.0,0.0,0.0,0.0,0.0,0.0,0.0,0.0,0.0,0.0,0.0,0.0,0.0,0.0,0.0,0.0,0.0,0.0,0.0,0.0,3.4476,3.5655,3.7312,3.8906,3.9927,4.081,4.159,4.2426,4.3225,4.3949,4.4822,4.5658,4.642,4.5769,4.5732,4.655,4.6568,4.694,4.7738,4.8537,4.8946,4.8946,4.8964,4.8983,4.9002,4.98,5.0153,5.019,5.1045,5.1504,5.1604,5.1828,5.1519,5.0722,4.8424,4.7491,4.7472,4.7472,4.7472,4.7498,0.0,0.0,0.8096,0.8094,0.945,1.0663,1.1047,1.3083,1.5051,1.6443,1.7333,1.8084,1.8654,1.8901,1.8777,1.8253,1.8748,1.9215,1.9434,2.0333,2.1503,2.2982,2.3176,2.3684,2.4562,2.536,2.632,2.7471,2.8213,2.9351,3.0869,3.1076,3.1386,3.18,3.18,3.1977,3.2262,3.1707,3.1044,3.0094,2.7064,2.5569,2.5207,0.0,0.0,0.0,0.0,0.0,0.0,0.0,0.0,0.0,0.0,0.0,0.0,0.0,0.0,0.0,0.0,0.0,0.0,0.0,0.0,0.0,0.0,0.0,0.0,0.0,0.0,0.0,0.0,0.0,0.0,0.0,3.7076,3.8079,3.6994,3.8294,3.9723,4.0762,4.2147,4.3095,4.3318,4.4636,4.5064,4.4079,4.5342,4.6011,4.5639,4.6531,4.7404,4.8203,4.824,4.8351,4.8574,4.9373,4.9782,4.9782,5.0413,5.0711,5.0729,5.0933,5.1045,5.1045,5.1393,5.1641,5.1828,5.204,5.2062,5.1869,5.0628,4.9765,4.9197,4.9197,4.9197,4.9299,0.0,0.8123,0.8068,0.8109,0.9741,1.0963,1.0669,1.3153,1.535,1.6157,1.7089,1.7869,1.8361,1.8669,1.8669,1.8238,1.8869,1.9533,2.0104,2.1459,2.2561,2.3292,2.4014,2.4705,2.5394,2.6802,2.7971,2.8868,2.9937,3.1248,3.2748,3.2748,3.3132,3.3869,3.3869,3.3966,3.4119,3.386,3.3635,3.3229,3.0747,2.8756,2.7174,2.654,2.6098,2.5819,2.5819,2.5333,2.4708,2.4838,0.0,0.0,0.0,0.0,0.0,0.0,0.0,0.0,0.0,0.0,0.0,0.0,0.0,0.0,0.0,0.0,0.0,0.0,0.0,0.0,0.0,0.0,0.0,0.0,3.9361,4.0606,4.0476,4.1293,4.2073,4.2556,4.4042,4.5045,4.5045,4.6234,4.6605,4.5621,4.6754,4.7293,4.6828,4.7683,4.8574,4.9392,4.941,4.9577,4.9949,5.0413,5.0636,5.0655,5.1156,5.1398,5.1416,5.1751,5.1936,5.2063,5.2468,5.2806,5.3056,5.3151,5.3086,5.2873,0.0,0.0,0.0,0.0,5.094,5.1044,0.8126,0.8057,0.8027,0.8096,0.9708,1.0769,1.0094,1.2834,1.4985,1.5008,1.6235,1.7134,1.7193,1.7869,1.8299,1.8207,1.8931,1.995,2.1229,2.2623,2.3391,2.3307,2.5036,2.6083,2.6247,2.8385,2.9592,2.9765,3.13,3.2835,3.4335,3.4375,3.5238,3.6702,3.6725,3.6846,3.7013,3.6478,3.5845,3.5137,3.4601,3.2554,2.9671,2.8254,2.7453,2.7103,2.7032,2.6967,2.6804,2.608,0.0,0.0,0.0,0.0,0.0,0.0,0.0,0.0,0.0,0.0,0.0,0.0,0.0,0.0,0.0,0.0,0.0,0.0,0.0,0.0,0.0,0.0,0.0,0.0,4.1423,4.3113,4.4023,4.4302,4.4376,4.4283,4.5677,4.6643,4.6643,4.7367,4.785,4.785,4.8593,4.9039,4.9039,4.9132,0.0,0.0,0.0,5.0655,5.1528,5.1546,5.1584,5.1676,5.1676,5.1676,5.1695,5.2419,5.2883,5.323,5.394,5.4506,5.488,5.4912,5.4609,5.401,5.2854,5.24,5.24,5.24,5.24,5.2419,0.8276,0.8168,0.8085,0.8099,0.9754,1.0834,1.0109,1.2811,1.4958,1.5076,1.6207,1.7059,1.7193,1.833,1.8838,1.8253,1.9362,2.0458,2.126,2.2242,2.3293,2.4412,2.5501,2.6371,2.704,2.8678,3.011,3.1351,3.2886,3.4404,3.587,3.6128,3.6383,3.6702,3.6869,3.7066,3.7203,3.7099,3.709,3.7023,3.6274,3.4536,3.2385,3.1646,3.0611,2.9471,2.9021,2.8029,2.6879,2.673,2.6674,2.6656,2.6488,2.6451,0.0,0.0,0.0,0.0,0.0,0.0,0.0,0.0,0.0,0.0,0.0,0.0,0.0,0.0,0.0,0.0,0.0,0.0,0.0,4.2593,4.2909,4.3336,4.4841,4.6178,4.6735,4.6085,4.6884,4.746,4.746,4.8203,4.8667,4.8667,4.9466,4.9912,4.9875,5.0525,5.0989,5.1138,5.1156,5.1546,5.2364,5.2364,5.2698,5.3348,5.3348,0.0,5.3348,5.3497,5.4019,5.4856,5.5168,5.5792,5.6616,5.6797,5.6784,5.6398,5.3518,5.24,5.24,5.24,5.24,5.2513,0.8137,0.8097,0.8085,0.8057,0.9718,1.0792,1.0058,1.2456,1.4502,1.4936,1.5546,1.6241,1.7028,1.8068,1.8544,1.816,1.9793,2.0883,2.1042,2.2442,2.3665,2.4497,2.5678,2.6612,2.7282,2.9506,3.1024,3.18,3.4076,3.5676,3.6502,3.6643,3.6823,3.7005,3.7105,3.7259,3.7447,3.7447,3.7521,3.7541,3.7148,3.6448,3.5439,3.4073,3.2983,3.2125,3.1444,3.0389,2.924,2.8422,2.7864,2.7436,2.7046,2.6916,2.6916,0.0,0.0,0.0,0.0,0.0,0.0,0.0,0.0,0.0,0.0,0.0,0.0,0.0,0.0,3.8785,3.9602,0.0,4.2092,4.3726,4.4023,4.4618,4.6271,4.6847,4.694,4.655,4.7571,4.8463,4.8872,4.9262,4.9689,5.0116,5.0543,5.0785,5.0748,5.1546,5.1992,5.1992,5.2401,5.2791,5.32,5.3608,5.3998,5.4407,5.4853,5.5057,5.5057,5.5057,5.5397,5.6067,5.6157,5.661,5.7257,5.7352,5.7403,5.7232,5.5564,5.4901,5.4901,5.4901,5.4901,5.4958,0.794,0.8013,0.8071,0.7999,0.9544,1.0599,0.9989,1.2006,1.3865,1.4615,1.4799,1.5385,1.668,1.7441,1.8006,1.8281,2.002,2.098,2.0726,2.2651,2.3894,2.4048,2.5581,2.6624,2.7072,2.9833,3.1416,3.1726,3.4484,3.6125,3.6643,3.6725,3.6926,3.7259,3.7334,3.7447,3.7577,3.7577,3.7577,3.7577,3.7577,3.7757,3.7801,3.6072,3.5073,3.4519,3.377,3.2953,3.2061,3.0782,2.9872,2.9163,2.8513,2.8329,2.8329,2.8329,2.844,0.0,0.0,0.0,0.0,0.0,0.0,0.0,0.0,3.6333,3.7596,3.8247,3.9695,4.1051,4.1702,4.302,4.4116,4.4432,4.5064,4.5992,4.7274,4.7181,4.6977,4.6977,4.8259,4.9392,5.0042,5.0265,5.0711,5.1565,5.1639,5.1695,5.1862,5.2475,5.2902,5.307,5.3701,5.411,5.4277,5.4946,5.5261,5.5261,5.5967,5.6302,5.6302,5.6302,5.6592,5.7075,5.7296,5.7578,5.7895,5.7895,5.7895,5.7895,5.7895,5.7895,5.7839,5.7516,5.7403,5.7403,0.7927,0.8014,0.8071,0.7941,0.9088,1.0004,0.9923,1.1617,1.3184,1.392,1.4528,1.5204,1.6026,1.6711,1.7624,1.8893,1.9866,2.0381,2.0339,2.2102,2.3131,2.3122,2.5048,2.6158,2.6245,2.8315,3.006,3.1445,3.3373,3.5007,3.6343,3.6771,3.6987,3.7066,3.7392,3.7594,3.7577,3.7577,3.7577,3.7577,3.7577,3.7757,3.8,3.7976,3.7186,3.5993,3.5428,3.4661,3.39,3.3714,3.3603,3.3491,3.3398,3.338,3.338,3.338,3.3918,3.4364,3.3584,3.3436,3.3937,3.5702,3.6203,3.6668,0.0,3.9287,3.9993,4.0085,4.1404,4.2556,4.2649,4.3392,4.4488,4.5974,4.629,4.642,4.6605,4.7794,4.863,4.863,4.9429,5.0005,5.0098,5.0803,5.1584,5.2401,5.2475,5.2791,5.3497,5.3627,5.3998,5.4723,5.4834,5.5243,5.6004,5.6116,5.6153,5.6172,5.6246,5.6302,5.6302,5.6302,5.6909,5.8012,5.908,5.9568,5.962,5.962,5.962,5.962,5.962,5.962,5.943,5.7952,5.7403,5.7403,0.7928,0.7941,0.797,0.7913,0.9044,0.9949,0.9908,1.1206,1.2471,1.3154,1.3845,1.4521,1.5237,1.6289,1.75,1.8915,1.9382,1.9771,2.017,2.1326,2.2299,2.2964,2.4229,2.5248,2.6087,2.7805,2.908,2.9833,3.2303,3.4028,3.4967,3.6011,3.6713,3.7182,3.7334,3.7484,3.7577,3.7577,3.7577,3.7577,3.7577,3.7757,3.8018,3.8119,3.7995,3.7679,3.7089,3.6352,0.0,3.5107,3.4606,3.4197,3.4197,3.4197,3.4197,3.4197,3.481,3.5609,3.6185,3.6705,3.7336,3.8544,3.9212,3.9733,4.0401,4.0828,4.1219,4.1702,4.2705,4.3652,4.4153,4.4915,4.5844,4.7014,4.681,4.6828,4.7757,4.8481,4.9076,4.954,5.0766,5.1565,5.1565,5.1881,5.2438,5.3237,5.3311,5.3664,5.4463,5.45,5.489,5.5726,5.5763,5.593,5.6302,5.6766,5.7008,5.7008,5.7472,5.7713,5.7695,5.7798,5.8278,5.9001,5.9635,5.9885,5.9885,5.9885,5.9885,5.9885,5.9885,5.9885,5.9809,5.9108,5.8843,5.8843,0.7913,0.7912,0.7912,0.7899,0.9042,0.9949,0.9908,1.0982,1.2029,1.2711,1.3211,1.3855,1.4692,1.6067,1.7302,1.8334,1.8842,1.9305,1.9794,2.0757,2.1652,2.2481,2.3249,2.4191,2.5379,2.6685,2.7732,2.8515,3.0771,3.2317,3.3203,3.4363,3.5307,3.6081,3.6249,3.6521,3.688,3.6934,3.6934,3.6934,3.6934,3.7058,3.7232,3.7316,3.7725,3.8236,3.8163,3.7802,3.7262,3.6686,3.6073,3.5553,3.5553,3.572,3.5906,3.5906,3.65,3.7429,3.8599,3.9342,3.9937,4.0568,4.1163,4.159,4.159,4.1757,4.2092,4.2686,4.3633,4.4544,4.5175,4.6141,4.694,4.7311,4.7256,4.7497,4.8444,4.8946,4.954,5.0358,5.1732,5.2698,5.2921,5.294,5.3181,5.3775,5.4017,5.4407,5.4983,5.5243,5.5763,5.6599,5.6636,5.6747,5.697,5.7546,5.7843,5.7843,5.8419,5.8716,5.8716,5.8964,5.9253,5.9616,5.982,5.9885,5.9885,5.9885,5.9885,5.9885,5.9885,5.9885,5.9885,5.9885,5.9885,5.9885,0.7897,0.7956,0.7971,0.7914,0.901,0.9896,0.989,1.0982,1.2029,1.2711,1.2831,1.334,1.4648,1.6067,1.6925,1.697,1.8262,1.9122,1.9137,2.0496,2.1322,2.1337,2.217,2.2967,2.3655,2.4402,2.586,2.801,2.856,2.9631,3.1083,3.1606,3.2245,3.2972,3.3617,3.4358,3.5102,3.5242,3.5275,3.5275,3.5275,3.5293,3.5309,3.5558,3.6176,3.7018,3.831,3.8894,3.9027,3.9008,3.8971,3.8952,3.8952,3.9528,4.0197,4.0197,4.0773,4.1423,4.146,4.1497,4.1534,4.1553,4.1571,4.159,4.159,4.2203,4.276,4.2797,4.4098,4.5268,4.5287,4.6605,4.7423,4.6661,4.7831,4.8574,4.785,4.9076,5.0395,5.1268,5.2085,5.2921,5.3701,5.3775,5.3775,5.3813,5.4518,5.4983,5.5001,5.58,5.6636,5.7453,5.7472,5.7843,5.8624,5.8661,5.8661,5.8661,5.8698,5.8716,5.8698,5.912,5.94,5.9616,5.982,5.9885,5.9885,5.9885,5.9885,5.9885,5.9885,5.9885,5.9885,5.9885,5.9885,5.9885,0.7911,0.7926,0.7927,0.7914,0.9008,0.9908,0.989,1.0982,1.188,1.2104,1.2531,0.0,0.0,0.0,0.0,0.0,1.7317,1.785,1.8338,1.929,2.0097,2.0628,2.1327,2.2117,2.2914,2.3322,2.4168,2.5562,2.6787,2.8009,2.922,3.0329,3.1297,3.209,3.2403,3.2897,3.3472,3.3603,3.3669,3.3669,3.3669,3.3669,3.3702,3.3781,3.4069,3.4527,0.0,3.6758,3.8892,3.8892,3.8989,3.9101,3.9101,3.9695,4.0606,4.1683,4.2184,4.25,4.3039,4.2797,4.2389,4.2389,4.2389,4.2389,4.2389,4.302,4.3763,4.4339,4.4896,4.5621,4.6698,4.6903,4.7163,4.7961,4.8091,4.8389,4.9187,5.0265,5.1268,5.2104,5.2921,5.3497,5.3775,5.3813,5.4017,5.4574,5.4853,5.5503,5.6599,5.6952,5.7472,5.8271,5.8308,5.8438,5.8716,5.8716,5.8716,5.8716,5.8716,5.8862,5.912,5.9234,5.9491,5.9786,5.9853,5.9885,5.9885,5.9885,5.9885,5.9885,5.9885,5.9885,5.9885,5.9885,5.9885,5.9885,0.7911,0.8108,0.8289,0.8259,0.9336,0.0,0.0,0.0,0.0,0.0,0.0,0.0,0.0,0.0,0.0,0.0,0.0,1.7121,1.7607,1.8309,1.9111,1.9919,2.0366,2.1064,2.2123,2.2321,2.2848,2.3671,2.4858,2.5799,2.652,2.7838,2.8903,2.9714,3.0191,3.082,3.1544,3.1724,3.2222,3.2766,3.2259,3.2384,3.2844,3.2242,3.233,0.0,3.2715,3.4486,3.6941,3.7676,3.8412,3.9007,3.9073,3.9695,4.0754,4.2667,4.302,4.2909,4.3429,4.3392,4.315,4.2872,4.2797,4.2872,4.315,4.3633,4.4321,4.5491,4.5955,4.6382,4.7125,4.7311,4.7516,4.798,4.8333,4.8927,4.9949,5.1101,5.2029,5.2549,5.3311,5.3813,5.3813,5.4073,5.4444,5.4964,5.5559,5.6376,5.7453,5.7769,5.8178,5.8679,5.8716,5.8716,5.8716,5.8716,5.8716,5.8716,5.8781,5.8964,5.929,5.9364,5.9597,5.9885,5.9885,5.9885,5.9885,5.9885,5.9885,5.9885,5.9885,5.9885,5.9885,5.9885,5.9885,5.9885,0.7911,0.8485,0.8969,0.0,0.0,0.0,0.0,0.0,0.0,0.0,0.0,0.0,0.0,0.0,0.0,0.0,0.0,0.0,1.6954,1.7639,1.8406,1.9163,1.9256,1.9903,2.1183,2.1424,2.1889,2.254,2.2941,2.3151,2.3218,2.4321,2.5254,2.6016,2.7145,2.8186,2.9162,2.953,3.068,3.2211,3.0825,3.1171,3.2349,3.0832,3.0725,3.1403,3.1439,3.2158,3.3429,3.5587,3.7385,3.8796,3.9138,3.9788,4.0921,4.3299,4.3429,4.2816,4.2853,4.3355,4.3708,4.2983,4.2797,4.3002,4.3819,4.4079,4.4599,4.6234,4.7163,4.7478,4.6754,4.7794,4.8296,4.6865,4.8519,5.0023,5.0153,5.1546,5.2568,5.2661,5.3348,5.3813,5.3813,5.4574,5.5076,5.5076,5.658,5.7528,5.7565,5.8289,5.8716,5.8716,5.8716,5.8716,5.8716,5.8716,5.8716,5.8698,5.8924,5.9101,5.9309,5.9491,5.9719,5.9885,5.9885,5.9885,5.9885,5.9885,5.9885,5.9885,5.9885,5.9923,5.9961,5.9961,5.998,6.0018,0.0,0.0,0.0,0.0,0.0,0.0,0.0,0.0,0.0,0.0,0.0,0.0,0.0,0.0,0.0,0.0,0.0,0.0,1.6255,1.6908,1.7425,1.77,1.8747,1.9456,1.9795,2.0441,2.1136,2.1858,2.221,2.2655,2.3218,2.364,2.4061,2.448,2.4863,2.5308,2.5797,2.6283,2.6742,2.7179,2.705,2.7246,2.7567,2.7157,2.7139,2.7388,2.7977,2.914,3.0894,3.4124,3.6509,3.8442,4.0383,4.1107,4.1646,4.3466,4.3429,4.2927,4.3522,4.2965,4.2314,4.2705,4.2797,4.3002,4.3819,4.4971,4.6141,4.7181,4.7553,4.7813,4.8221,4.7646,4.7367,4.8166,4.8296,4.8964,5.0803,5.1435,5.2159,5.3348,5.3683,5.3813,5.3813,5.5131,5.5967,5.5967,5.6933,5.7769,5.8364,5.8605,5.8716,5.8716,5.8716,5.8716,5.8716,5.8716,5.8716,5.8698,5.8924,5.9101,5.9309,5.9491,5.9719,5.9885,5.9885,5.9885,5.9885,5.9885,5.9885,5.9885,5.9885,6.0264,6.0776,6.0776,6.1212,6.1761,0.0,0.0,0.0,0.0,0.0,0.0,0.0,0.0,0.0,0.0,0.0,0.0,0.0,0.0,0.0,0.0,0.0,0.0,0.0,1.6605,1.7059,1.7163,1.8207,1.8808,1.8808,1.9568,2.0022,2.0115,2.0978,2.146,2.1589,2.2431,2.2909,2.3111,2.3538,2.3901,2.4271,2.4744,2.5415,0.0,0.0,2.6169,2.6703,2.6043,2.58,2.5854,2.63,2.7609,2.9674,3.314,3.6141,3.8804,4.0921,4.1349,4.146,4.3429,4.3188,4.237,4.2816,4.2556,4.2147,4.224,4.2537,4.3002,4.3819,4.4451,4.5101,4.5918,4.6382,4.6661,4.6735,4.6903,4.7218,4.7757,4.837,4.9243,5.0636,5.1454,5.2271,5.3181,5.359,5.3813,5.3813,5.5317,5.6302,5.6302,5.7379,5.8234,5.8679,5.8716,5.8716,5.8716,5.8716,5.8716,5.8716,5.8716,5.8716,5.8698,5.9003,5.9178,5.9309,5.9597,5.9786,5.9885,5.9885,6.0094,6.0416,6.0416,6.0643,6.1003,6.1003,6.1269,6.1667,6.1667,6.1989,6.2406,0.0,0.0,0.0,0.0,0.0,0.0,0.0,0.0,0.0,1.2149,1.2568,1.2981,1.3071,1.4094,0.0,0.0,0.0,0.0,0.0,0.0,1.6908,1.6967,1.7685,1.8069,1.8069,1.8777,1.8838,1.8207,1.9665,2.0058,1.9529,2.1061,2.1813,2.1965,2.2623,2.3171,2.3556,2.4003,2.5084,2.6454,2.5674,2.6162,2.7234,0.0,2.5472,2.5533,2.5729,2.7157,2.9424,3.2482,3.5809,3.8952,4.0828,4.1033,4.0977,4.3206,4.2779,4.1609,4.172,4.211,4.2333,4.1739,4.211,4.2872,4.3782,4.3466,4.3225,4.4135,4.4934,4.5194,4.4321,4.5937,4.7144,4.6438,4.8184,4.9707,4.9912,5.1379,5.2475,5.2587,5.3311,5.3813,5.3813,5.5317,5.6302,5.6302,5.7788,5.8716,5.8716,5.8716,5.8716,5.8716,5.8716,5.8716,5.8716,5.8716,5.8698,5.8739,5.912,5.929,5.9327,5.9734,5.9942,6.0056,6.0056,6.0511,6.1269,6.1269,6.1724,6.2406,6.2406,6.2482,6.2576,6.2576,6.2633,6.2747,0.0,0.0,0.0,0.0,0.0,0.0,0.0,0.0,0.0,0.0,1.3555,1.384,0.0,0.0,0.0,0.0,0.0,0.0,0.0,0.0,0.0,1.6279,1.6921,1.7318,1.7377,1.8038,1.833,1.8207,1.9184,1.9623,1.9513,2.0523,2.1001,2.105,2.1342,2.1488,2.1649,2.2308,2.279,2.3096,2.3415,2.3781,2.4091,2.3832,2.3815,0.0,2.5354,2.7518,3.0088,3.1989,3.4179,3.6649,3.9658,4.0958,4.159,4.2686,4.2333,4.1739,4.2407,4.172,4.094,4.146,4.1702,4.2184,4.3652,4.3893,4.4228,4.5751,4.6197,4.603,4.5212,4.5417,4.5658,4.5528,4.642,4.759,4.8927,5.0543,5.1844,5.2512,5.3311,5.3813,5.3813,5.5317,5.6302,5.6302,5.7788,5.8716,5.8716,5.8716,5.8716,5.8716,5.8716,5.8716,5.8716,5.8716,5.8781,5.8964,5.9178,5.9383,5.9562,5.9786,6.0245,6.089,6.089,6.1382,6.2178,6.2178,6.2273,6.2406,6.2406,6.2823,6.3391,6.3391,6.3865,6.4471,0.0,0.0,0.0,0.0,0.0,0.0,0.0,1.366,1.4318,1.4318,1.4618,1.4812,1.4797,1.5124,1.5454,0.0,0.0,0.0,0.0,0.0,0.0,1.5537,1.6189,1.6766,1.7193,1.7516,1.7685,1.7685,0.0,1.8625,1.8346,1.9481,2.0063,2.0143,2.0701,2.099,2.1151,2.1807,2.2096,2.2153,2.2756,2.3028,2.3119,2.3241,2.3383,0.0,2.5265,2.6814,2.8571,3.1441,3.3497,3.5386,3.8692,4.0587,4.1757,4.2556,4.2519,4.2314,4.2705,4.224,4.1739,4.2129,4.2222,4.2426,4.3206,4.2723,4.2352,4.315,4.3318,4.3206,4.2816,4.3429,4.4135,4.4562,4.5677,4.6921,4.811,5.0079,5.1546,5.1936,5.307,5.3813,5.3813,5.5317,5.6302,5.6302,5.7788,5.8716,5.8716,5.8716,5.8716,5.8716,5.8716,5.8716,5.8716,5.8716,5.8821,5.8984,5.9215,5.9419,5.9616,6.0255,6.0738,6.1117,6.1572,6.2254,6.3031,6.3031,6.3296,6.3713,6.3713,6.3941,6.4282,6.4282,6.4547,6.4907,0.0,0.0,0.0,0.0,0.0,0.0,0.0,1.4139,1.4992,1.4992,1.5604,1.5785,1.5261,1.5574,1.5799,0.0,0.0,0.0,0.0,0.0,0.0,0.0,1.5564,1.6292,1.7178,0.0,0.0,1.7208,1.7731,0.0,0.0,0.0,0.0,0.0,2.0003,2.0448,2.0638,2.1271,2.153,0.0,0.0,2.265,2.2718,0.0,0.0,0.0,0.0,2.5901,2.6895,3.0428,3.2771,3.4649,3.7466,3.9714,4.1534,4.25,4.2686,4.2575,4.2742,4.2667,4.2537,4.2537,4.2537,4.2537,4.2537,4.1553,4.0661,4.0661,4.0661,4.0587,4.042,4.1571,4.2742,4.3373,4.5045,4.6513,4.733,4.9726,5.1398,5.1398,5.2828,5.3813,5.3813,5.5317,5.6302,5.6302,5.7788,5.8716,5.8716,5.8716,5.8716,5.8716,5.8716,5.8716,5.8716,5.8739,5.8843,5.9063,5.9272,5.9549,5.9949,6.0728,6.1288,6.1667,6.2368,6.3126,6.3884,6.3884,6.4282,6.4907,6.4907,6.4907,6.4907,6.4907,6.4907,6.4907,0.0,0.0,0.0,0.0,0.0,0.0,0.0,1.4869,1.5709,1.5709,1.6248,1.6592,1.6532,1.6084,1.5799,0.0,0.0,0.0,0.0,0.0,0.0,0.0,0.0,0.0,0.0,0.0,0.0,1.7208,1.7254,0.0,0.0,0.0,0.0,0.0,0.0,1.8898,1.8958,1.9695,0.0,0.0,0.0,0.0,0.0,0.0,0.0,0.0,0.0,2.5374,2.6452,2.8463,3.1311,3.4238,3.5447,3.7968,4.081,4.2352,4.2277,4.1869,4.2593,4.2259,4.1702,4.1702,4.1702,4.1702,4.1702,4.159,4.1479,4.1479,4.1479,4.1256,4.0513,4.1107,4.172,4.1813,4.3838,4.5677,4.6494,4.9373,5.1398,5.1398,5.2828,5.3813,5.3813,5.5317,5.6302,5.6302,5.7788,5.8716,5.8716,5.8716,5.8716,5.8716,5.8716,5.8716,5.8716,5.8884,5.9063,5.9253,5.9491,6.0062,6.0984,6.106,6.1932,6.3372,6.3467,6.3998,6.4794,6.4794,6.4832,6.4907,6.4907,6.4907,6.4907,6.4907,6.4907,6.4907,0.0,0.0,0.0,0.0,0.0,0.0,1.436,1.5214,1.5799,1.5799,1.6338,1.6712,1.6712,1.6488,1.6353,1.6458,0.0,0.0,0.0,0.0,0.0,0.0,0.0,0.0,0.0,0.0,1.6732,1.7807,1.6993,0.0,0.0,0.0,0.0,0.0,0.0,1.8619,1.8722,1.9389,0.0,0.0,0.0,0.0,0.0,0.0,0.0,0.0,0.0,0.0,2.6392,2.8184,3.0698,3.3403,3.5551,3.7367,3.9071,4.0837,4.1813,4.2296,4.211,4.1832,4.159,4.159,4.159,4.159,4.159,4.1219,4.0866,4.0866,4.0457,3.9993,3.9677,3.9881,4.042,4.1441,4.3243,4.4971,4.6308,4.9336,5.1398,5.1398,5.2828,5.3813,5.3813,5.5317,5.671,5.7676,5.8345,5.8716,5.8716,5.8716,5.8716,5.8716,5.8716,5.8739,5.8884,5.8964,5.914,5.951,6.009,6.0626,6.1117,6.214,6.2974,6.3638,6.4149,6.4585,6.4907,6.4907,6.4907,6.4907,6.4907,6.4907,6.4907,6.4907,6.4907,6.4907,0.0,0.0,0.0,0.0,0.0,1.4276,1.4822,1.542,1.5902,1.6185,1.6653,1.707,1.7279,1.7294,1.7282,1.7227,1.6426,0.0,0.0,0.0,0.0,0.0,0.0,0.0,0.0,0.0,1.6962,1.79,1.6763,1.6286,0.0,0.0,1.73,1.7516,0.0,0.0,0.0,0.0,0.0,0.0,0.0,0.0,0.0,0.0,0.0,0.0,0.0,0.0,0.0,0.0,0.0,3.2143,3.4784,3.6403,3.7785,4.0094,4.1386,4.2017,4.1683,4.159,4.159,4.159,4.159,4.146,4.0958,4.042,3.9881,3.9398,3.9008,3.8748,3.8748,3.8934,3.9565,4.1014,4.2593,4.4228,4.59,4.8964,5.1119,5.1361,5.2828,5.3813,5.3813,5.5317,5.697,5.8586,5.8716,5.8716,5.8716,5.8716,5.8716,5.8716,5.8716,5.8781,5.8924,5.9024,5.9215,5.9526,6.05,6.1149,6.1534,6.2955,6.3751,6.4036,6.4642,6.4907,6.4907,6.4907,6.4907,6.4907,6.4907,6.4907,6.4907,6.4907,6.4907,6.4907,0.0,0.0,0.0,0.0,0.0,0.0,1.5078,1.5543,1.6111,1.7071,1.7499,1.7921,1.8612,1.8687,1.85,1.8031,1.6728,0.0,0.0,0.0,0.0,0.0,0.0,0.0,0.0,0.0,1.7208,1.7208,1.6532,1.6532,1.7193,1.7208,1.7546,1.8192,0.0,0.0,0.0,0.0,0.0,0.0,0.0,0.0,2.2738,0.0,0.0,0.0,0.0,0.0,0.0,0.0,0.0,0.0,0.0,3.4717,3.7336,4.0624,4.1033,4.0587,4.1386,4.159,4.159,4.159,4.159,4.1163,3.9491,3.912,3.8655,3.7058,3.7355,3.7912,3.7912,3.8562,3.938,4.0271,4.1757,4.3392,4.5082,4.8091,5.0432,5.1305,5.2828,5.3813,5.3813,5.5317,5.697,5.8586,5.8716,5.8716,5.8716,5.8716,5.8716,5.8716,5.8716,5.8716,5.8698,5.912,5.929,5.9309,6.0513,6.1553,6.2425,6.324,6.4073,6.4888,6.4907,6.4907,6.4907,6.4907,6.4907,6.4907,6.4907,6.4907,6.4907,6.4907,6.4907,6.4907,0.0,0.0,0.0,0.0,0.0,0.0,0.0,1.6412,1.6526,1.6639,1.7454,1.8034,1.8082,1.8065,1.807,1.7985,1.7167,0.0,0.0,0.0,0.0,0.0,0.0,0.0,0.0,0.0,1.7423,1.7884,1.7669,1.7685,1.7884,1.7884,1.8007,1.8207,1.8285,1.8419,0.0,0.0,0.0,0.0,0.0,2.1136,2.2279,0.0,0.0,0.0,0.0,0.0,0.0,0.0,0.0,0.0,0.0,0.0,0.0,3.692,3.8414,3.9565,3.9825,3.9881,3.9881,3.9881,3.9472,3.8934,3.8395,3.7838,3.7318,3.6798,3.7336,3.7894,3.7894,3.8562,3.938,4.0253,4.2203,4.4005,4.5138,4.8574,5.1082,5.1361,5.2828,5.4258,5.541,5.5986,5.697,5.8586,5.8716,5.8716,5.8716,5.8716,5.8716,5.8716,5.8716,5.8821,5.912,5.9234,5.9719,6.0531,6.1504,6.2425,6.3259,6.4111,6.4642,6.4907,6.4907,6.4907,6.4907,6.4907,6.4907,6.4907,6.4907,6.4907,6.4907,6.4907,6.4907,6.4907,0.0,0.0,0.0,0.0,0.0,0.0,0.0,1.669,1.6833,1.6932,1.7488,1.7869,1.7862,1.7814,1.7755,1.7669,1.7273,0.0,0.0,0.0,0.0,0.0,0.0,0.0,0.0,1.7792,1.7792,1.8207,1.8207,1.8345,1.8623,1.8623,1.8761,1.9008,1.9153,1.9294,0.0,0.0,0.0,0.0,2.0722,2.1257,2.1947,0.0,0.0,0.0,0.0,0.0,0.0,0.0,0.0,0.0,0.0,0.0,0.0,0.0,3.5907,3.7445,3.805,3.8414,3.8562,3.8265,3.8042,3.7745,3.7132,3.6593,3.624,3.624,3.6891,3.7541,3.7838,3.8562,3.938,4.0253,4.2166,4.3968,4.5119,4.8537,5.1268,5.2197,5.32,5.4463,5.6134,5.6302,5.697,5.8586,5.8716,5.8716,5.8716,5.8716,5.8716,5.8716,5.8716,5.8862,5.9178,5.9253,5.9905,6.1035,6.1955,6.2823,6.3638,6.4509,6.4907,6.4907,6.4907,6.4907,0.0,6.4907,6.4907,6.4907,6.4907,6.4907,6.4907,6.4907,6.4907,6.4907,0.0,0.0,0.0,0.0,0.0,0.0,0.0,1.65,1.7017,1.7668,1.7506,1.7497,1.7897,1.7832,1.756,1.715,0.0,0.0,0.0,0.0,0.0,0.0,0.0,0.0,1.8192,1.8253,1.8284,1.8284,1.833,1.87,1.9397,1.9397,1.977,2.0407,2.0778,2.0686,0.0,0.0,0.0,0.0,2.1177,2.147,0.0,0.0,0.0,0.0,0.0,0.0,0.0,0.0,0.0,0.0,0.0,0.0,0.0,0.0,0.0,0.0,0.0,3.7121,3.766,3.6898,3.7233,3.7363,3.5857,3.5504,0.0,3.5504,3.6185,3.7002,3.7764,3.8562,3.938,4.0253,4.1739,4.3392,4.5045,4.8129,5.1101,5.3515,5.3813,5.4463,5.6134,5.6302,5.697,5.8586,5.8716,5.8716,5.8716,5.8716,5.8716,5.8698,5.8698,5.8821,5.9024,5.9215,5.987,6.1028,6.1943,6.2861,6.3732,6.4528,6.4907,6.4907,6.4907,6.4907,6.4907,6.4907,6.4907,6.4907,6.4907,6.4907,6.4907,6.4907,6.4907,6.4907,0.0,0.0,0.0,0.0,0.0,0.0,0.0,0.0,0.0,0.0,1.7519,1.7641,1.7348,1.7273,1.7212,0.0,0.0,0.0,0.0,0.0,0.0,0.0,0.0,0.0,1.8207,1.8746,1.9055,1.9055,1.9546,2.0038,2.0459,2.0459,2.0653,2.1087,2.1214,2.1425,0.0,0.0,0.0,0.0,1.9981,2.031,0.0,0.0,0.0,0.0,2.3598,2.3753,0.0,0.0,0.0,0.0,0.0,0.0,0.0,0.0,3.146,3.2849,3.384,0.0,3.7168,3.6962,3.6611,3.6176,0.0,3.5571,3.5565,3.5504,3.663,3.7671,3.7856,3.8562,3.938,4.0253,4.1739,4.3392,4.5045,4.863,5.1769,5.359,5.3813,5.4463,5.6134,5.6302,5.697,5.8586,5.8716,5.8716,5.8716,5.8716,5.8781,5.8924,5.8924,5.9042,5.9215,5.9419,6.0386,6.2053,6.2277,6.3183,6.4604,6.4813,6.4907,6.4907,6.4907,6.4907,6.4907,6.4907,6.4907,6.4907,6.4907,6.4907,6.4907,6.4907,6.4907,6.4907,0.0,0.0,0.0,0.0,0.0,0.0,0.0,0.0,0.0,0.0,0.0,1.6865,1.6714,1.6675,0.0,0.0,0.0,0.0,0.0,0.0,0.0,0.0,0.0,1.8361,1.87,1.9102,1.9441,1.9765,2.0289,2.0527,2.0561,2.0728,2.0893,2.1087,2.1493,2.1911,0.0,0.0,0.0,2.036,1.9964,0.0,0.0,0.0,0.0,0.0,2.3498,2.3816,0.0,2.4154,2.4635,2.5206,0.0,0.0,0.0,0.0,3.0021,3.1224,3.2109,3.4083,3.5871,3.5806,3.5796,3.5758,3.5684,3.5666,3.5895,3.6633,3.7436,3.8093,3.8465,3.9527,4.0477,4.0894,4.3018,4.54,4.7757,5.0005,5.1992,5.3608,5.3813,5.4463,5.6134,5.6302,5.697,5.8586,5.8716,5.8716,5.8716,5.8716,5.8781,5.8984,5.9101,5.9215,5.9455,5.9958,6.0947,6.2406,6.2785,6.3657,6.4907,6.4907,6.4907,6.4907,6.4907,6.4907,6.4907,6.4907,6.4907,6.4907,6.4907,6.4907,6.4907,6.4907,6.4907,6.4907,0.0,0.0,0.0,0.0,0.0,0.0,0.0,0.0,0.0,0.0,0.0,0.0,0.0,0.0,0.0,0.0,0.0,0.0,0.0,0.0,0.0,0.0,1.8361,1.8669,1.9287,1.9502,1.9888,2.0458,2.0827,2.0908,2.0682,2.0976,2.1114,2.115,2.1797,2.2271,0.0,2.1772,2.1014,2.0377,2.0153,0.0,0.0,0.0,0.0,0.0,0.0,0.0,0.0,2.421,2.4375,2.4645,2.5385,0.0,0.0,0.0,0.0,0.0,3.1063,3.2789,3.4285,3.4292,3.4974,3.5675,3.5735,3.5874,3.6427,3.7962,3.8278,3.8551,3.9504,4.0718,4.1717,4.2114,4.4922,4.7998,5.0821,5.1416,5.2122,5.3627,5.3924,5.4593,5.6153,5.6413,5.7045,5.8461,5.8642,5.8661,5.8572,5.8642,5.8821,5.9024,5.9215,5.9419,5.9631,6.0481,6.1455,6.2425,6.3221,6.4073,6.4907,6.4907,6.4907,6.4907,6.4907,6.4907,6.4907,6.4907,6.4907,6.4907,6.4907,6.4907,6.4907,6.4907,6.4907,6.4907,0.0,0.0,0.0,0.0,0.0,0.0,0.0,0.0,0.0,0.0,0.0,0.0,0.0,0.0,0.0,0.0,0.0,0.0,0.0,0.0,0.0,1.9086,1.9132,1.9179,1.9302,2.0412,2.106,2.1168,2.1775,2.2185,2.2404,2.2476,2.2547,2.2673,2.2502,2.2525,2.2599,2.1187,2.0515,2.0291,1.9034,0.0,0.0,0.0,0.0,0.0,0.0,0.0,0.0,2.4393,2.4515,2.4601,2.4748,0.0,0.0,0.0,0.0,0.0,3.1593,3.2465,3.292,3.362,3.4434,3.519,3.5805,3.6481,3.719,3.7978,3.8651,3.9578,4.1118,4.0971,4.1547,4.4423,4.6959,4.898,5.0135,5.1528,5.2754,5.3701,5.4407,5.5224,5.6209,5.6933,5.7497,5.7898,5.839,5.8483,5.7954,5.8409,5.8843,5.9253,5.929,5.9491,5.9853,6.0667,6.1519,6.2425,6.3221,6.4073,6.4907,6.4907,6.4907,6.4907,6.4907,6.4907,6.4907,6.4907,6.4907,6.4907,6.4907,6.4907,6.4907,6.4907,6.4907,6.4907,0.0,0.0,0.0,0.0,0.0,0.0,0.0,0.0,0.0,0.0,0.0,0.0,0.0,0.0,0.0,0.0,0.0,0.0,0.0,0.0,1.7829,2.0014,1.9342,1.9029,1.9287,2.0786,2.1486,2.1322,2.217,2.2549,2.2534,2.254,2.257,2.2666,2.2552,2.2552,2.2529,2.1049,2.0394,2.0274,0.0,0.0,0.0,0.0,0.0,0.0,0.0,0.0,0.0,0.0,2.4566,2.4596,2.4692,0.0,0.0,0.0,0.0,0.0,3.108,3.2084,3.271,3.4017,3.4984,3.5912,3.7076,3.7702,3.8213,3.8931,3.9614,4.0364,4.1217,4.2425,4.4279,4.7117,4.8315,4.9355,5.0618,5.1844,5.2902,5.3701,5.4518,5.5354,5.6227,5.7026,5.7571,5.7769,5.8476,5.8609,5.7997,5.8651,5.9158,5.9455,5.9455,5.9597,5.9885,6.1174,6.2008,6.2425,6.3694,6.4509,6.4907,6.4907,6.4907,6.4907,6.4907,6.4907,6.4907,6.4907,6.4907,6.4907,6.4907,6.4907,6.4907,6.4907,6.4907,6.4907,0.0,0.0,0.0,0.0,0.0,0.0,0.0,0.0,0.0,0.0,0.0,0.0,0.0,0.0,0.0,0.0,0.0,0.0,0.0,1.7483,1.8178,2.0905,1.9561,1.8997,1.9634,2.1124,2.1791,2.1516,2.2611,2.3054,2.2925,2.2737,2.272,2.2801,2.2591,2.2569,2.2546,2.1231,2.0567,2.0291,0.0,0.0,0.0,0.0,0.0,0.0,0.0,0.0,0.0,0.0,0.0,0.0,0.0,0.0,0.0,2.7028,2.7778,2.8559,3.0871,3.2217,3.3449,3.5325,3.5988,3.6612,3.8196,3.8637,3.8982,3.9962,4.0519,4.1117,4.1939,4.457,4.7177,4.899,4.9396,5.0005,5.1472,5.2364,5.3181,5.3998,5.4854,5.5711,5.6567,5.7425,5.7842,5.7641,5.854,5.8709,5.7899,5.8801,5.9383,5.9597,5.9616,5.9685,5.9885,6.1572,6.2406,6.2425,6.4111,6.4907,6.4907,6.4907,6.4907,6.4907,6.4907,6.4907,6.4907,6.4907,6.4907,6.4907,6.4907,6.4907,6.4907,6.4907,6.4907,6.4907,0.0,0.0,0.0,0.0,0.0,0.0,0.0,0.0,0.0,0.0,0.0,0.0,0.0,0.0,0.0,0.0,0.0,0.0,0.0,1.8367,1.9126,2.1632,1.9999,1.9565,2.0651,2.1735,2.2247,2.2209,2.3557,2.4393,2.4689,2.4141,2.3915,2.3944,2.3,2.2632,2.2634,2.1867,2.1066,2.0349,1.9668,0.0,0.0,0.0,0.0,0.0,0.0,0.0,0.0,0.0,0.0,0.0,0.0,0.0,2.6285,2.7228,2.8559,3.0113,3.1838,3.3486,3.5325,3.7807,3.7296,3.6632,3.83,3.8679,3.9113,4.0604,4.0957,4.1889,4.4805,4.7323,4.894,4.894,5.0209,5.1528,5.2401,5.3218,5.4017,5.4834,5.5845,5.6799,5.7621,5.8578,5.8613,5.7246,5.8461,5.8668,5.7243,5.8535,5.9383,5.9597,5.9616,5.9685,5.9885,6.1572,6.2406,6.2425,6.4111,6.4907,6.4907,6.4907,6.4907,6.4907,6.4907,6.4907,6.4907,6.4907,6.4907,6.4907,6.4907,6.4907,6.4907,6.4907,6.4907,6.4907,0.0,0.0,0.0,0.0,0.0,0.0,0.0,0.0,0.0,0.0,0.0,0.0,0.0,0.0,0.0,0.0,0.0,0.0,0.0,1.8848,1.9744,2.2,2.0431,2.0161,2.1713,2.2323,2.2645,2.2666,2.4261,2.5176,2.5389,2.4428,2.4062,2.4123,2.309,2.2632,2.266,2.1918,2.1191,2.0466,1.9787,1.9108,0.0,0.0,0.0,0.0,0.0,0.0,0.0,0.0,2.3971,2.412,2.4719,2.5513,2.6375,2.7247,2.8673,3.0454,3.2615,3.4036,3.5514,3.8054,3.9001,3.9475,4.01,4.0252,4.0397,4.0906,4.224,4.4263,4.7435,4.8602,4.9444,5.0421,5.1452,5.2252,5.2568,5.3292,5.411,5.4909,5.5842,5.6796,5.7696,5.8146,5.7997,5.7148,5.8113,5.8298,5.7346,5.8793,5.9719,5.9786,5.9786,5.982,5.9885,6.1572,6.2406,6.2425,6.4111,6.4907,6.4907,6.4907,6.4907,6.4907,6.4907,6.4907,6.4907,6.4907,6.4907,6.4907,6.4907,6.4907,6.4907,6.4907,6.4907,6.4907,0.0,0.0,0.0,0.0,0.0,0.0,0.0,0.0,0.0,0.0,0.0,0.0,0.0,0.0,0.0,0.0,0.0,0.0,1.9572,1.9621,2.0524,2.2572,2.0847,2.0735,2.2603,2.262,2.277,2.3048,2.4859,2.5795,2.5888,2.4796,2.4349,2.4374,2.3175,2.2659,2.2677,2.2177,2.144,2.0552,2.0092,1.938,0.0,0.0,0.0,0.0,0.0,0.0,0.0,0.0,2.3333,2.3709,2.4377,2.5522,2.6735,2.7323,2.9052,3.1193,3.3164,3.4661,3.6234,3.8509,4.0157,4.1275,4.1522,4.1787,4.2048,4.22,4.4101,4.6525,4.8945,4.9636,5.0291,5.1689,5.2361,5.2754,5.294,5.372,5.4558,5.5317,5.6232,5.713,5.8088,5.8053,5.7751,5.7129,5.7687,5.7881,5.7422,5.8748,5.9639,5.9885,5.9885,5.9885,5.9885,6.1572,6.2406,6.2425,6.4111,6.4907,6.4907,6.4907,6.4907,6.4907,6.4907,6.4907,6.4907,6.4907,6.4907,6.4907,6.4907,6.4907,6.4907,6.4907,6.4907,6.4907,0.0,0.0,0.0,0.0,0.0,0.0,0.0,0.0,0.0,0.0,0.0,0.0,0.0,0.0,0.0,0.0,0.0,0.0,2.0671,2.0709,2.1502,2.3317,2.1342,2.1197,2.3349,2.2701,2.2685,2.3414,2.5355,2.6295,2.628,2.5329,2.4888,2.482,2.3347,2.2712,2.2712,2.2712,2.1908,2.0604,2.0753,1.9914,1.8622,0.0,0.0,0.0,0.0,0.0,0.0,0.0,2.2865,2.3596,2.3695,2.5465,2.7494,2.7494,2.9829,3.2596,3.3468,3.5514,3.7807,3.9494,4.0593,4.1465,4.2242,4.3095,4.3947,4.4762,4.6646,4.8389,4.9271,5.0527,5.1676,5.2475,5.2789,5.3104,5.3739,5.469,5.5548,5.6249,5.7188,5.8088,5.891,5.8613,5.8031,5.7163,5.727,5.7384,5.7384,5.8218,5.907,5.9847,5.9885,5.9885,5.9885,6.1553,6.2406,6.2425,6.4092,6.4888,6.4907,6.4907,6.4907,6.4907,6.4907,6.4907,6.4907,6.4907,6.4907,6.4907,6.4907,6.4888,6.4888,6.4888,6.4888,6.4888,0.0,0.0,0.0,0.0,0.0,0.0,0.0,0.0,0.0,0.0,0.0,0.0,0.0,0.0,0.0,0.0,0.0,0.0,2.1019,2.0833,2.1378,2.2915,2.1694,2.1581,2.2932,2.3036,2.3549,2.4595,2.6017,2.6488,2.6075,2.5274,2.4626,2.407,2.3116,2.2712,2.2712,2.2816,2.2031,2.0735,2.0886,2.0056,1.8769,0.0,0.0,0.0,0.0,0.0,0.0,0.0,0.0,0.0,2.3518,2.5465,2.7494,2.7494,2.9829,3.271,3.415,3.6386,3.8565,3.9646,4.2337,4.4478,4.3531,4.3894,4.4971,4.6955,4.8179,4.9332,5.0871,5.1759,5.2531,5.3497,5.3591,5.3833,5.4708,5.5006,5.5618,5.697,5.7401,5.8008,5.9103,5.8032,5.7288,5.7308,5.6841,5.655,5.655,5.7914,5.8805,5.9051,5.9601,5.9885,5.9885,6.0947,6.1799,6.2425,6.3486,6.432,6.4907,6.4907,6.4907,6.4907,6.4907,6.4907,6.4907,6.4907,6.4907,6.4907,6.4907,6.4528,6.3998,6.3998,6.3638,6.3145,0.0,0.0,0.0,0.0,0.0,0.0,0.0,0.0,1.7304,1.7743,1.7811,1.7811,0.0,0.0,0.0,1.8826,1.9562,2.0271,2.0965,2.1088,2.1503,2.238,2.1814,2.1991,2.3042,2.3317,2.3951,2.5006,2.5705,2.588,2.5541,2.4815,2.4224,2.3753,2.3013,2.2738,2.279,2.2868,2.2104,2.0886,2.0968,2.0134,1.8806,0.0,0.0,0.0,0.0,0.0,0.0,0.0,0.0,0.0,2.3063,2.52,2.7494,2.7494,2.9829,3.2766,3.4434,3.6746,3.8888,3.9702,4.2829,4.5647,4.5578,4.5684,4.6275,4.8032,4.9126,5.0174,5.1536,5.2543,5.3386,5.3907,5.4298,5.4671,5.5119,5.5733,5.6455,5.7379,5.7788,5.8151,5.8653,5.7547,5.6804,5.6803,5.6121,5.583,5.6171,5.7156,5.7839,5.8161,5.8653,5.89,5.89,5.9715,6.0397,6.0947,6.2065,6.288,6.341,6.4092,6.4396,6.4377,6.4055,6.3922,6.3922,6.3922,6.3922,6.3922,6.3922,6.36,6.3126,6.3126,6.27,6.2121,0.0,0.0,0.0,0.0,0.0,0.0,0.0,1.7811,1.7811,1.7811,1.7811,1.7811,0.0,0.0,0.0,1.8826,1.9562,2.0219,2.0699,2.1363,2.179,2.184,2.179,2.23,2.3476,2.3442,2.3835,2.4682,2.4726,2.4761,2.4797,2.4104,2.3753,2.3667,2.3005,2.279,2.2893,2.2944,2.2229,2.11,2.1029,2.017,1.8913,1.886,0.0,0.0,0.0,0.0,0.0,0.0,0.0,0.0,2.2495,2.4763,2.7399,2.7475,2.9772,3.2672,3.4415,3.6803,3.8982,3.9721,4.2318,4.5363,4.7956,4.7935,4.7629,4.8428,4.9751,5.0946,5.1604,5.3061,5.4092,5.4019,5.4874,5.5507,5.5322,5.674,5.7728,5.7602,5.8252,5.8464,5.7882,5.7192,5.6563,5.5975,5.5283,5.5242,5.6038,5.6152,5.6531,5.727,5.7365,5.7403,5.7403,5.818,5.8616,5.871,6.017,6.0909,6.1041,6.2728,6.3505,6.3467,6.2728,6.2406,6.2406,6.2406,6.2406,6.2406,6.2406,6.2368,6.2292,6.2258,6.1934,6.1449,0.0,0.0,0.0,0.0,0.0,0.0,1.7794,1.7811,1.7811,1.7811,1.7811,1.7811,1.7811,1.7811,0.0,1.8826,1.9562,2.0297,2.1046,2.1248,2.1602,2.2163,2.1646,2.2033,2.3562,2.3016,2.2822,2.3103,2.4259,2.4591,2.4046,2.3874,2.3478,2.2936,2.2886,2.285,2.2902,2.3102,2.27,2.1808,2.1274,2.0535,1.9701,1.9337,1.9212,0.0,0.0,0.0,0.0,0.0,0.0,0.0,2.2495,2.4333,2.6622,2.7304,2.9374,3.197,3.4263,3.722,3.9683,3.9851,4.1446,4.4094,4.8564,4.8431,4.7924,4.9751,5.1023,5.1983,5.2648,5.3628,5.4562,5.5322,5.5409,5.5846,5.7229,5.7506,5.7773,5.8364,5.8605,5.8545,5.8072,5.7302,5.6616,5.6185,5.5364,5.4977,5.5166,5.583,5.6285,5.6455,5.7062,5.7403,5.7403,5.7592,5.8009,5.8691,5.9051,5.9544,6.0207,6.1894,6.2671,6.2652,6.2482,6.2406,6.2406,6.2406,6.2406,6.2406,6.2406,6.1989,6.133,6.1032,6.0398,5.9703,0.0,0.0,0.0,0.0,0.0,0.0,0.0,0.0,1.7811,1.7811,1.7811,1.7811,1.7811,1.7811,0.0,0.0,1.936,2.017,2.0602,2.1339,2.1942,2.236,2.1701,2.1873,2.3072,2.273,2.275,2.3165,2.3984,2.4001,2.3254,2.3254,2.3064,2.2712,2.2842,2.2944,2.302,2.3217,2.2858,2.2162,2.1818,2.1215,2.0505,2.0407,2.0411,2.0538,2.088,0.0,0.0,0.0,0.0,0.0,0.0,0.0,2.6375,2.7247,2.926,3.1743,3.4226,3.7068,3.9911,4.2318,4.2659,4.372,4.8742,4.859,4.8159,5.079,5.1744,5.2309,5.2996,5.3856,5.4769,5.5616,5.5999,5.6589,5.781,5.8202,5.8458,5.8642,5.8781,5.8607,5.7997,5.7265,5.6598,5.6071,5.5333,5.4901,5.4901,5.5337,5.5583,5.5583,5.5981,5.6209,5.6209,5.6209,5.6436,5.6891,5.7289,5.7914,5.8748,6.0435,6.1193,6.1193,6.1193,6.1193,6.1193,6.1193,6.1193,6.1193,6.1193,6.0789,6.0163,5.9947,5.9343,5.8568,0.0,0.0,0.0,0.0,0.0,0.0,0.0,0.0,0.0,1.7811,1.7811,1.7811,1.7811,1.7811,1.7811,0.0,0.0,0.0,2.0002,2.1501,2.2432,2.2515,2.1806,2.1781,2.2588,2.2485,2.2804,2.3598,2.3598,2.3357,2.2901,2.2901,2.2901,2.2901,2.292,2.2995,2.3119,2.3265,2.3016,2.25,2.2357,2.1914,2.1368,2.1497,2.1675,2.1856,2.2135,2.1903,2.1415,2.1415,0.0,0.0,0.0,0.0,2.6205,2.7209,2.9052,3.1345,3.3979,3.6765,4.0006,4.4611,4.4289,4.4004,4.8439,4.8496,4.8488,5.1525,5.2156,5.2409,5.3231,5.4062,5.4918,5.5785,5.6553,5.731,5.7997,5.8728,5.9081,5.8781,5.8884,5.8646,5.7921,5.736,5.677,5.6215,5.551,5.5129,5.5129,5.4977,5.4901,5.4901,5.4901,5.4901,5.4901,5.4901,5.4901,5.492,5.5621,5.6349,5.71,5.8532,5.9265,5.9468,5.962,5.9677,5.9696,5.9828,5.9853,5.9767,5.9767,5.9505,5.9084,5.9008,5.8526,5.7905,0.0,0.0,0.0,0.0,0.0,0.0,0.0,0.0,0.0,0.0,1.7811,1.7811,1.7811,1.7811,1.7811,1.7811,1.914,2.0002,2.0002,0.0,0.0,2.2579,2.1876,2.185,2.2668,2.2065,2.21,2.2867,2.2867,2.3116,2.3633,2.3633,2.3633,2.3643,2.3249,2.3077,2.3119,2.336,2.3422,2.3285,2.2571,2.2339,2.2341,2.1933,2.184,2.2014,2.2343,2.2407,2.2324,2.2324,2.2874,0.0,0.0,0.0,2.5484,2.7039,2.8218,2.9737,3.2975,3.6746,4.0442,4.3322,4.4308,4.5122,4.7245,4.8136,4.9254,5.1841,5.2371,5.2786,5.4145,5.4635,5.5364,5.6904,5.6964,5.7446,5.9114,5.9025,5.8803,5.8964,5.8803,5.8586,5.8109,5.7977,5.7724,5.7226,5.6474,5.6019,5.6019,5.5318,5.4901,5.4901,5.4901,5.4901,5.4901,5.4901,5.4901,5.4901,5.5015,5.5316,5.5755,5.598,5.6677,5.7782,5.8521,5.8843,5.89,5.9601,5.9681,5.9289,5.9289,5.9046,5.8628,5.8245,5.7978,5.7812,0.0,0.0,0.0,0.0,0.0,0.0,0.0,0.0,0.0,0.0,0.0,1.842,1.842,1.8856,1.9127,1.9127,2.0136,2.0891,2.1332,2.2031,2.2515,2.2596,2.2323,2.2125,2.2091,2.2177,2.2177,2.2091,2.2505,2.3064,2.3788,2.3374,2.366,2.4453,2.3929,2.3726,2.3716,2.3561,2.3494,2.3481,2.3124,2.3117,2.3313,2.318,2.3553,2.4105,2.3963,2.3897,2.3821,2.3329,2.3405,2.3689,2.3689,0.0,0.0,0.0,2.8066,2.9623,3.3922,3.7447,4.0382,4.2469,4.3947,4.5217,4.6449,4.7738,4.914,5.0675,5.1755,5.2882,5.4489,5.4822,5.5299,5.6531,5.6857,5.7438,5.8732,5.9101,5.9196,5.9178,5.9196,5.9084,5.8802,5.8461,5.817,5.798,5.7264,5.6872,5.6872,5.6076,5.5621,5.5621,5.5148,5.4901,5.4901,5.4901,5.4901,5.4901,5.4901,5.4868,5.4841,5.4841,5.55,5.6758,5.7133,5.7302,5.7358,5.8165,5.8372,5.8256,5.8684,5.8609,5.8157,5.7996,5.7737,5.7468,0.0,0.0,0.0,0.0,0.0,0.0,0.0,0.0,0.0,0.0,0.0,1.9246,1.9246,0.0,0.0,0.0,2.0884,2.1632,2.2381,2.246,2.2456,2.2348,2.2384,2.2177,2.1625,2.1953,2.2031,2.1884,2.2031,2.2582,2.3495,2.2754,2.3143,2.4458,2.4095,2.4024,2.4164,2.3697,2.3601,2.3797,2.3797,2.4096,2.4582,2.4763,2.5391,2.6132,2.5769,2.5636,0.0,0.0,2.4333,2.4295,2.4087,2.4466,0.0,0.0,0.0,3.0265,3.4434,3.739,3.9683,4.1351,4.3189,4.4876,4.5937,4.7169,4.8477,4.9917,5.1054,5.2343,5.4257,5.4769,5.5155,5.5977,5.6506,5.7182,5.8257,5.8813,5.9193,5.9345,5.9419,5.9419,5.9383,5.8964,5.8729,5.8797,5.8135,5.7725,5.7725,5.6948,5.6493,5.6493,5.5678,5.5223,5.5223,5.5015,5.4901,5.4901,5.4791,5.4533,5.4158,5.4033,5.4446,5.5277,5.5705,5.5877,5.5933,5.675,5.7004,5.6996,5.7788,5.7844,5.7444,5.7664,5.7516,5.7188,0.0,0.0,0.0,0.0,0.0,0.0,0.0,0.0,0.0,0.0,0.0,2.0152,2.0208,2.0284,2.0277,2.022,2.0884,2.1659,2.2436,2.2515,2.2243,2.1669,2.166,0.0,2.1608,2.0877,2.1221,2.2634,2.1221,2.129,2.2746,2.2005,2.2142,2.3007,2.3115,2.3551,2.4164,2.3697,2.3945,2.4641,2.4641,2.5321,2.6395,2.6516,2.6842,2.7223,2.7331,0.0,0.0,0.0,2.6072,2.5939,2.5181,2.4972,2.5332,0.0,0.0,0.0,3.3335,3.5628,3.7921,3.9627,4.192,4.4194,4.5824,4.6259,4.7245,5.0467,5.0542,5.0789,5.3309,5.4389,5.5106,5.5799,5.5937,5.6522,5.8163,5.8108,5.8297,5.9451,5.9253,5.9178,5.9526,5.9578,5.9609,5.9796,5.907,5.8616,5.8616,5.7801,5.7327,5.7327,5.655,5.6133,5.6133,5.5318,5.4901,5.4901,5.4533,5.4123,5.372,5.3367,5.298,5.2781,5.433,5.4964,5.502,5.5895,5.6006,5.5698,5.6463,5.6492,5.6187,5.6967,5.7239,5.7188,0.0,0.0,0.0,0.0,0.0,0.0,0.0,0.0,0.0,0.0,0.0,0.0,0.0,2.1369,2.1712,2.1685,2.1951,2.2251,2.2497,2.2097,2.1756,2.155,2.1076,2.0825,2.0825,2.1049,2.1187,2.1221,2.1187,2.1453,2.1987,2.1211,2.1572,2.2903,2.3045,2.3284,2.3664,2.4082,2.4444,2.4748,2.5356,2.6023,2.6645,2.6784,2.7734,0.0,0.0,0.0,0.0,0.0,0.0,0.0,0.0,2.6603,2.683,2.7934,2.9658,3.1572,3.324,3.5514,3.7675,3.8831,4.1427,4.3701,4.3758,4.5426,4.715,4.7851,4.9443,5.0846,5.1187,5.2729,5.417,5.4918,5.5303,5.5798,5.6677,5.7014,5.7618,5.8883,5.891,5.9065,5.973,5.9786,5.982,5.9885,5.962,5.9468,5.9468,5.8672,5.8218,5.8218,5.7403,5.672,5.6209,5.5337,5.4901,5.4901,5.45,5.4069,5.3683,5.3267,5.2875,5.2544,5.3097,5.3365,5.3438,5.4261,5.4519,5.4428,5.5229,5.5704,5.6029,5.6319,5.6754,5.7188,0.0,0.0,0.0,0.0,0.0,0.0,0.0,0.0,0.0,1.9767,0.0,0.0,0.0,0.0,2.2569,2.2542,2.2552,2.2569,2.2542,2.1893,2.1387,2.1154,2.0422,2.0033,2.0033,2.0291,2.0573,2.0791,2.0808,2.1108,2.1591,2.0515,2.0662,2.1812,2.2177,2.284,2.3696,2.439,2.4998,2.5558,2.658,2.736,2.7964,2.8425,2.9682,3.108,0.0,0.0,0.0,0.0,0.0,0.0,0.0,2.7896,2.801,2.854,2.968,3.108,3.2482,3.4472,3.65,3.7902,4.0157,4.2166,4.2716,4.4326,4.588,4.6468,4.8155,4.969,5.0239,5.128,5.2504,5.386,5.4405,5.4919,5.5706,5.6218,5.6945,5.811,5.8205,5.8494,5.9412,5.9487,5.9601,5.9866,5.9885,5.9885,5.9885,5.9374,5.8976,5.871,5.8142,5.7441,5.6607,5.5754,5.5337,5.5337,5.4514,5.3961,5.3683,5.312,5.2761,5.2498,5.2498,5.2498,5.2534,5.3078,5.3295,5.3385,5.4182,5.4798,5.5287,5.5812,5.6337,5.6826,0.0,0.0,0.0,0.0,0.0,0.0,0.0,0.0,2.1258,2.1481,0.0,0.0,0.0,0.0,0.0,2.2623,2.2508,2.2508,2.2605,2.1902,2.1171,2.0463,1.9705,1.9292,1.9292,1.8586,1.9332,2.1574,2.0108,2.0136,2.1608,2.0073,1.946,1.9693,2.0473,2.2136,2.4421,2.464,2.5622,2.7155,2.8275,2.9379,3.0446,3.1624,3.2749,3.3638,3.2804,3.307,0.0,3.1895,0.0,0.0,0.0,0.0,2.8771,2.8733,2.9282,3.0078,0.0,0.0,0.0,3.6708,3.8016,3.9551,4.2848,4.3,4.336,4.6582,4.6733,4.7245,5.0467,5.0134,5.0172,5.2644,5.322,5.3868,5.5326,5.5706,5.6209,5.722,5.7168,5.7475,5.8559,5.8653,5.8995,5.9791,5.9847,5.9866,5.9885,5.9885,5.9525,5.8748,5.871,5.8293,5.7441,5.6645,5.6209,5.619,5.4535,5.3701,5.3683,5.2875,5.2498,5.2498,5.2498,5.2498,5.2498,5.2498,5.2498,5.257,5.3367,5.3675,5.3874,5.5377,5.5957,5.612,0.0,0.0,0.0,0.0,0.0,1.9691,1.9482,2.0131,2.0813,0.0,0.0,0.0,0.0,0.0,0.0,2.2605,2.2151,2.2091,2.2624,2.1437,2.0877,2.1238,1.9998,1.9292,1.9292,1.9085,1.9568,2.0722,2.0901,2.147,2.2367,2.0928,2.061,2.1259,2.1035,2.2313,2.4657,2.5241,2.6425,2.7996,2.9259,3.0336,3.1298,3.261,3.3695,3.4624,0.0,3.5685,3.6215,0.0,3.4396,3.3486,0.0,0.0,3.0379,2.9737,2.9718,3.0078,3.0966,0.0,0.0,0.0,0.0,0.0,4.0612,4.2134,4.3315,4.3696,4.5918,4.7764,4.7598,4.8182,4.9284,5.1186,5.1837,5.2555,5.3822,5.4056,5.4698,5.633,5.6481,5.6772,5.7668,5.7763,5.8104,5.8957,5.9014,5.9279,5.9866,5.9885,5.9791,5.9563,5.8995,5.8578,5.8331,5.7479,5.6777,5.619,5.5115,5.424,5.3683,5.2875,5.2498,5.2498,5.2498,5.2498,5.2498,5.2498,5.2498,5.2516,5.2752,5.3186,5.3748,5.4182,5.5033,5.612,0.0,0.0,1.9227,1.9034,1.9597,1.9967,1.965,2.0383,2.1112,0.0,0.0,0.0,2.3007,0.0,2.289,2.3543,2.3237,2.2936,2.2703,2.1566,2.0946,2.1083,1.9636,1.8982,1.9292,1.8672,1.9016,2.0394,2.0549,2.1391,2.2756,2.1288,2.108,2.1942,2.1295,2.2376,2.4766,2.5854,2.7228,2.8889,3.0954,3.2072,3.2728,3.448,3.5684,3.65,0.0,0.0,3.7807,3.6973,3.614,0.0,0.0,0.0,3.1535,3.0701,3.0173,3.0002,3.053,3.1876,3.3354,3.4188,0.0,0.0,3.9134,4.1018,4.2621,4.2882,4.4802,4.6592,4.715,4.7303,4.8032,5.0137,5.0365,5.0892,5.2604,5.2942,5.3513,5.4996,5.5166,5.5621,5.6796,5.6891,5.7251,5.8085,5.8161,5.8521,5.9336,5.9715,5.9885,5.9885,5.9449,5.9184,5.9184,5.835,5.7624,5.6932,5.5548,5.457,5.3927,5.2951,5.2498,5.2498,5.2498,5.2498,5.2498,5.2498,5.2498,5.2498,5.2498,5.2788,5.3241,5.3585,5.4472,5.5703,0.0,0.0,1.9261,1.9157,1.9829,2.0281,1.9959,2.1038,2.1864,0.0,2.2315,2.3079,2.396,2.3419,2.3522,2.4885,2.485,2.4247,2.3039,2.2194,2.1393,2.0687,1.9309,1.8792,1.9275,1.788,1.8207,2.0394,1.974,2.0627,2.2884,2.1335,2.1253,2.2321,2.1515,2.2558,2.5069,2.6603,2.8191,2.9919,3.2834,3.4086,3.4513,3.6804,3.8092,3.8624,3.8016,3.8262,3.8698,3.794,3.7144,0.0,0.0,0.0,0.0,0.0,3.0871,3.0154,3.0059,3.1212,3.2596,3.3354,3.4889,0.0,3.8073,3.9797,4.1442,4.2848,4.3412,4.4586,4.7586,4.6781,4.6501,4.9083,4.8748,4.9079,5.1647,5.2086,5.2494,5.3442,5.3556,5.4143,5.5621,5.5868,5.6266,5.7062,5.7289,5.7782,5.8635,5.9374,5.9809,5.9885,5.9885,5.9885,5.9885,5.9133,5.848,5.7958,5.6031,5.4851,5.4374,5.3181,5.2625,5.2625,5.2534,5.2498,5.2498,5.2498,5.2498,5.2498,5.2498,5.2498,5.2589,5.3403,5.4218,5.5124,1.9305,1.9305,1.9463,1.9954,2.0494,2.1052,2.1676,2.2194,2.2599,2.2793,2.3249,2.4098,2.5505,2.5005,2.4678,2.4971,2.3884,2.3557,2.4488,2.3264,2.2436,2.2255,2.1418,2.0435,1.9309,1.8414,1.8758,2.0394,2.0257,2.1122,2.2884,2.1447,2.1937,2.3968,2.2647,2.3731,2.6657,2.8245,2.9833,3.1422,3.3248,3.4752,3.6091,3.8497,3.9115,3.8831,4.0044,4.0119,3.9646,3.9475,3.8888,3.8054,3.7182,0.0,0.0,3.3657,0.0,3.1781,3.1118,0.0,0.0,0.0,0.0,0.0,3.6594,3.8385,3.9928,3.9719,4.1732,4.3788,4.453,4.4378,4.4757,4.662,4.6746,4.7723,5.0922,5.0799,5.094,5.2475,5.2665,5.2779,5.312,5.3783,5.4522,5.5337,5.6645,5.7782,5.8635,5.8843,5.9222,5.9866,5.9885,5.9885,5.9885,5.9354,5.8743,5.7977,5.6862,5.5974,5.5218,5.4036,5.3476,5.344,5.277,5.2498,5.2498,5.2498,5.2498,5.2498,5.2498,5.2498,5.2589,5.3403,5.4218,5.5124,1.9305,1.9305,1.9531,2.0257,2.0953,2.1598,2.2146,2.3059,2.3753,2.4015,2.4936,2.5988,2.7126,2.6919,2.6851,2.7213,2.6195,2.554,2.5557,2.4081,2.3237,2.3237,2.1445,2.0453,2.0453,1.9326,1.9292,2.0394,2.0791,2.169,2.296,2.1861,2.2512,2.4544,2.3422,2.4659,2.771,2.928,3.11,3.3051,3.4568,3.5898,3.7173,3.9157,3.9665,3.9475,4.0745,4.1181,4.1105,4.0688,4.029,3.9797,3.8925,3.7807,3.6632,0.0,3.4358,3.2956,0.0,0.0,0.0,3.3051,0.0,0.0,0.0,3.7425,3.8596,3.8679,4.0302,4.1978,4.2882,4.3057,4.3739,4.5862,4.5843,4.643,4.8951,4.9652,5.0201,5.1054,5.1547,5.1812,5.1812,5.257,5.3404,5.4238,5.5849,5.6986,5.7422,5.8237,5.8881,5.9279,5.9677,5.9801,5.954,5.9344,5.8763,5.7932,5.7099,5.6356,5.5694,5.4731,5.4309,5.4291,5.3874,5.3693,5.3693,5.3693,5.3458,5.3059,5.2661,5.2752,5.315,5.3548,5.4436,5.5613,1.9326,1.9418,1.9785,2.0611,2.1421,2.2136,2.2743,2.3927,2.5023,2.5772,2.6833,2.7851,2.8747,2.8696,2.8851,2.9455,2.8834,2.7937,2.6833,2.5333,2.4391,2.4236,2.1755,2.078,2.1591,2.0384,2.0015,2.0636,2.1167,2.1982,2.3077,2.216,2.2794,2.4676,2.4177,2.5551,2.8307,3.019,3.2219,3.4333,3.5944,3.7276,3.8498,4.0042,4.0631,4.0707,4.1237,4.1863,4.2337,4.1844,4.1692,4.1541,4.0669,3.9456,0.0,0.0,0.0,0.0,0.0,0.0,0.0,0.0,0.0,3.5078,0.0,0.0,0.0,3.8054,3.8869,3.993,4.1616,4.1787,4.2356,4.4421,4.4573,4.4781,4.5805,4.7681,4.8988,4.9159,5.0088,5.0599,5.0277,5.1263,5.2343,5.3366,5.4863,5.5792,5.5943,5.7384,5.8274,5.8426,5.9241,5.9435,5.8971,5.9065,5.8691,5.7905,5.7153,5.6627,5.621,5.545,5.5106,5.5106,5.4961,5.4907,5.4907,5.4907,5.4526,5.3874,5.3222,5.3259,5.3748,5.4037,5.4925,5.612,1.9436,1.9877,2.0647,2.1492,2.2136,2.3079,2.4789,2.5141,2.612,2.866,2.8575,2.8834,3.0265,2.9799,0.0,0.0,0.0,0.0,2.9092,2.773,2.6575,2.5885,2.4885,2.3488,2.1643,2.1436,2.1384,2.147,2.0969,2.1522,2.3084,2.1718,2.2407,2.473,2.5301,2.6532,2.8378,3.1367,3.3329,3.4622,3.6515,3.8741,4.1056,4.2668,4.3265,4.3189,4.2507,4.2318,4.2507,4.3189,4.3417,4.3265,4.2393,4.1996,4.1408,3.9191,0.0,0.0,0.0,0.0,0.0,0.0,3.4832,0.0,3.5022,0.0,3.6348,3.6462,0.0,3.8205,3.9873,0.0,0.0,3.9494,4.1313,4.2242,4.0934,4.3474,4.5748,4.6525,4.8003,4.8401,4.6904,4.8837,5.0827,5.2438,5.3442,5.4295,5.5015,5.5962,5.6815,5.7535,5.8388,5.8623,5.8145,5.8516,5.8418,5.7905,5.7377,5.7112,5.7043,5.6228,5.5866,5.583,5.5178,5.4907,5.4907,5.4907,5.4852,5.4762,5.4671,5.4255,5.3874,5.5233,5.5848,5.612,2.017,2.0264,2.0906,2.2263,2.3069,2.4071,2.5637,2.7487,2.9228,3.0645,3.1714,3.2421,3.2645,0.0,0.0,0.0,0.0,3.1145,0.0,0.0,2.8627,2.8765,2.635,2.4585,2.37,2.3152,2.2548,2.1812,2.2327,2.3038,2.3912,2.3307,2.4093,2.6068,2.6853,2.8334,3.0386,3.2634,3.436,3.5744,3.7235,3.9528,4.2001,4.2096,4.2777,4.3644,4.3284,4.3455,4.3834,4.3739,4.3701,4.3644,4.3265,4.281,4.2204,4.1143,3.9911,3.8793,3.8452,3.7732,3.7087,0.0,0.0,0.0,3.6462,0.0,3.6746,0.0,0.0,0.0,0.0,0.0,0.0,0.0,3.957,4.0347,4.0631,4.1882,4.3417,4.5236,4.6506,4.7359,4.7605,4.9462,5.0959,5.1661,5.2494,5.3309,5.4162,5.4996,5.583,5.6683,5.7497,5.7842,5.7581,5.7757,5.7722,5.7516,5.7289,5.7188,5.7188,5.6844,5.6699,5.6681,5.6373,5.6228,5.6228,5.6228,5.5957,5.5577,5.6047,5.574,5.5106,5.5758,5.6283,5.6736,2.131,2.1181,2.1566,2.2777,2.3859,2.5171,2.7031,2.9763,3.195,3.2928,3.43,3.5145,3.5025,3.5301,0.0,0.0,3.3869,3.3438,0.0,0.0,3.0696,3.1282,2.8265,0.0,2.6144,2.5276,2.4215,2.2968,2.3745,2.4366,2.4825,2.4637,2.5316,2.6728,2.7977,2.9601,3.1492,3.3544,3.5202,3.6629,3.816,4.0588,4.3206,4.2886,4.3572,4.4706,4.4706,4.5085,4.5501,4.4914,4.4876,4.4952,4.4251,4.3758,4.3303,4.2602,4.1711,4.084,4.0385,3.9835,3.9323,3.9077,3.8679,3.8224,3.7845,0.0,0.0,0.0,3.6651,0.0,0.0,0.0,3.7125,3.7296,0.0,3.8186,3.8717,3.9399,4.084,4.3568,4.4649,4.5994,4.8136,4.9443,5.0163,5.0163,5.1357,5.2248,5.2646,5.3878,5.4863,5.5489,5.6531,5.6911,5.6655,5.706,5.7173,5.6862,5.708,5.7188,5.7188,5.7188,5.7188,5.7188,5.7188,5.7188,5.7188,5.7188,5.6862,5.6373,5.6971,5.6826,5.6319,5.6319,5.6699,5.7188,2.2942,2.2905,2.2942,2.2978,2.43,2.6453,2.9697,3.1564,3.3494,3.5849,3.5594,3.5749,0.0,0.0,0.0,0.0,0.0,3.4818,3.4093,0.0,3.28,3.2835,0.0,2.9868,0.0,2.7774,2.6731,2.5385,2.4784,2.4888,2.564,2.5002,2.5105,2.5943,2.8316,2.9797,3.0743,3.3865,3.5803,3.6991,3.9283,4.2187,4.5258,4.6663,4.7226,4.7283,4.7283,4.7302,4.7321,4.7283,4.7832,4.8098,4.5634,4.5426,4.5596,4.3133,4.2962,4.3227,4.1598,4.1143,4.0934,4.006,3.8641,3.7656,3.8472,3.7997,3.7163,0.0,0.0,0.0,0.0,0.0,0.0,0.0,0.0,0.0,0.0,3.4813,3.758,4.0934,4.2033,4.3815,4.7112,4.7491,4.751,4.751,4.9841,5.0884,5.0069,5.2381,5.3745,5.3783,5.5375,5.5833,5.5001,5.6503,5.6878,5.6047,5.6826,5.7188,5.7188,5.7188,5.7188,5.7188,5.7188,5.7188,5.7188,5.7188,5.717,5.7152,5.7188,5.717,5.7152,5.7152,5.717,5.7188,2.3786,2.3786,2.3951,2.4502,2.5915,2.8093,3.1403,3.3492,3.5069,3.6177,3.7404,3.818,0.0,3.8405,3.8249,0.0,0.0,3.7129,3.6387,3.6094,0.0,0.0,0.0,3.2175,0.0,2.9522,2.8185,2.6499,2.6171,2.6198,2.6551,2.631,2.6639,2.7478,2.9315,3.0868,3.2259,3.4882,3.6809,3.8366,4.1071,4.283,4.4054,4.6497,4.7397,4.7397,4.7397,4.7397,4.7397,4.7397,4.7605,4.7681,4.6828,4.6752,4.6601,4.463,4.427,4.4251,4.3152,4.3246,4.3322,4.192,4.156,4.1351,4.0536,3.9683,3.8982,3.8698,0.0,0.0,0.0,0.0,0.0,0.0,0.0,0.0,0.0,3.4794,3.6159,3.8414,4.0877,4.3284,4.552,4.6752,4.7397,4.7397,4.9235,5.0201,4.9917,5.1263,5.2551,5.3669,5.3987,5.4378,5.4909,5.5697,5.6071,5.5993,5.6808,5.7188,5.7188,5.7188,5.7188,5.7188,5.7188,5.7188,5.7188,5.7188,5.7188,5.7188,5.7188,5.7188,5.7188,5.7188,5.7188,5.7188,2.463,2.463,2.4777,2.5311,2.7438,2.9988,3.2706,3.5066,3.6703,3.7059,3.8745,3.9898,3.983,4.0215,4.0319,0.0,3.956,3.9198,3.8732,3.818,0.0,3.673,3.5642,0.0,0.0,3.1421,3.011,2.8673,2.8037,2.7771,2.7852,2.7567,2.787,2.8709,3.0243,3.1813,3.3455,3.5525,3.7487,3.9435,4.2359,4.3962,4.4869,4.7237,4.8107,4.8172,4.8621,4.8932,4.9178,4.9178,4.9178,4.9064,4.8477,4.8287,4.7946,4.6278,4.6013,4.6013,4.4895,4.4971,4.5028,4.3644,4.3512,4.3493,4.2697,4.1635,4.0726,4.0423,3.9475,0.0,0.0,0.0,0.0,0.0,0.0,0.0,0.0,3.4017,3.4624,3.631,3.921,4.1863,4.3815,4.552,4.6639,4.6942,4.823,4.914,4.9443,5.0277,5.1509,5.3177,5.3289,5.3684,5.4463,5.5036,5.5412,5.5613,5.6391,5.6917,5.7188,5.7188,5.7188,5.7188,5.7188,5.7188,5.7188,5.7188,5.7188,5.7188,5.7188,5.7188,5.7188,5.7188,5.7188,5.7188,2.5586,2.5642,2.5715,2.5752,2.892,3.2056,3.3845,3.6355,3.8221,3.8695,3.9739,4.0874,4.1919,4.2043,4.2043,4.2043,4.1405,4.0974,4.094,3.956,0.0,0.0,3.7589,3.6256,3.5066,3.3509,0.0,3.176,3.0243,2.9494,2.944,2.8691,2.8727,2.953,3.1064,3.2652,3.4258,3.5846,3.7898,4.031,4.3211,4.559,4.758,4.8939,4.9527,4.9727,5.0865,5.1755,5.24,5.24,5.24,5.2134,5.0523,5.0012,4.969,4.806,4.8136,4.8382,4.6771,4.6316,4.6089,4.5198,4.4383,4.4004,4.4743,4.3644,4.2261,4.1541,4.0044,3.8869,3.8869,3.813,0.0,0.0,0.0,0.0,3.271,3.2463,3.307,3.4643,3.7087,3.9589,4.2052,4.3796,4.5141,4.607,4.6923,4.7776,4.8647,4.9443,5.0675,5.2362,5.3167,5.3634,5.372,5.4461,5.4846,5.4852,5.5631,5.6391,5.7134,5.717,5.7188,5.7188,5.7188,5.7188,5.7188,5.7188,5.7188,5.7188,5.7188,5.7188,5.7188,5.7188,5.7188,5.7188,2.8081,2.9035,3.0044,3.065,3.1646,3.3409,3.6561,3.737,3.8402,4.0499,4.1233,4.1912,4.2817,4.2871,4.2871,4.2871,4.2748,4.2337,4.175,4.1336,4.0799,4.0053,3.8963,3.7872,3.6933,3.519,3.377,3.2581,3.1599,3.0796,3.0225,3.0011,3.0029,3.0297,3.1867,3.3455,3.5079,3.7255,3.9899,4.2813,4.4576,4.6341,4.8108,4.9683,5.1067,5.2145,5.2113,5.2229,5.24,5.24,5.24,5.2324,5.1888,5.1755,5.1566,5.0542,4.9917,4.9367,4.8325,4.806,4.77,4.6222,4.571,4.5445,4.5009,4.4099,4.3474,4.3872,4.2621,4.1446,4.1446,4.0252,3.9058,0.0,0.0,0.0,0.0,0.0,3.3524,3.396,3.6196,3.8471,4.0366,4.2071,4.3663,4.5122,4.6582,4.7776,4.8647,4.9443,5.0675,5.2362,5.2043,5.2434,5.3683,5.3904,5.3999,5.4019,5.5359,5.6102,5.6319,5.6935,5.7188,5.7188,5.7188,5.7188,5.7188,5.7087,5.7036,5.7036,5.7036,5.7087,5.7188,5.7188,5.7188,5.7188,3.0552,3.2173,3.3788,3.4596,3.5229,3.6152,3.7832,3.9058,4.0228,4.1358,4.2242,4.3013,4.3611,4.3698,4.3785,4.413,4.3854,4.3613,4.3492,4.2871,4.2215,4.1428,4.0517,3.9592,3.8629,3.695,0.0,3.4936,3.3473,3.2527,3.2081,3.1706,3.1742,3.2135,3.3366,3.4579,3.5935,3.9022,4.1618,4.3763,4.559,4.7138,0.0,5.0238,5.1949,5.3371,5.3459,5.3499,5.3499,5.3499,5.3499,5.3442,5.3082,5.2968,5.2798,5.1983,5.1376,5.0884,5.0448,5.005,4.9462,4.8136,4.7813,4.7586,4.6752,4.5634,4.4914,4.5369,4.4137,4.3076,4.3436,4.2128,4.0612,0.0,0.0,0.0,0.0,0.0,0.0,3.4794,3.6329,3.7921,3.9248,4.156,4.3512,4.48,4.5767,4.6999,4.8609,4.8761,4.9746,5.1812,5.1565,5.1917,5.3031,5.3182,5.3342,5.3568,5.4778,5.5519,5.5862,5.6675,5.7054,5.7054,5.7054,5.7054,5.7003,5.6951,5.6899,5.6899,5.6899,5.6951,5.7054,5.7054,5.7036,5.7087,3.3403,3.522,3.7019,3.7826,3.8951,3.9585,3.9039,4.1034,4.2486,4.2027,4.3074,4.4073,4.4544,4.4578,4.4889,4.5665,4.5113,4.501,4.5682,4.4302,4.3412,4.3162,4.2209,4.1216,4.0214,3.879,3.7898,3.7577,3.556,3.4454,3.424,3.3526,3.3562,3.4294,3.5025,3.5971,3.7255,4.0895,4.303,4.4115,4.6421,4.7988,4.9139,5.0767,5.2394,5.3875,5.4576,5.4871,5.4901,5.4901,5.4901,5.4787,5.4086,5.3859,5.3707,5.2949,5.2665,5.257,5.257,5.1983,5.1187,5.041,5.0144,4.986,4.9026,4.7719,4.6639,4.6544,4.5274,4.4402,4.5103,4.3872,4.2223,4.0669,0.0,0.0,0.0,0.0,0.0,0.0,0.0,0.0,3.8772,4.1598,4.3758,4.4668,4.4719,4.5818,4.8382,4.7795,4.8488,5.0903,5.133,5.1728,5.2135,5.245,5.278,5.3145,5.4044,5.4817,5.5464,5.6381,5.6794,5.6794,5.6794,5.6794,5.6794,5.6794,5.6794,5.6794,5.6742,5.6742,5.6794,5.6742,5.6847,5.6951,3.7643,3.8524,3.9515,4.0341,4.1412,4.2486,4.3412,4.2494,4.2335,4.4085,4.4272,4.4716,4.6044,4.6199,4.6493,4.7251,4.7182,4.7165,4.7303,4.5872,4.5165,4.5576,4.3594,4.2273,4.1895,4.0949,3.9539,3.7577,3.7184,3.631,3.5007,3.4865,3.4882,3.5043,3.5846,3.7702,4.0414,4.243,4.4168,4.5717,4.7072,4.8644,5.0306,5.158,5.2955,5.4228,5.4359,5.4616,5.4901,5.4901,5.4901,5.4882,5.4731,5.4693,5.4655,5.4522,5.3992,5.348,5.348,5.2854,5.2153,5.2002,5.1471,5.0751,4.9879,4.9443,4.9045,4.8382,4.7453,4.679,4.6942,4.5596,4.4156,4.3189,4.3038,0.0,0.0,0.0,0.0,0.0,0.0,4.0265,3.9584,4.081,4.228,4.3796,4.3812,4.489,4.7491,4.7394,4.7994,4.9676,5.061,5.1302,5.1789,5.2055,5.2234,5.2318,5.3738,5.4493,5.4655,5.6129,5.6794,5.6794,5.6794,5.6794,5.6794,5.6689,5.6653,5.6653,5.6492,5.66,5.6794,5.6546,5.6546,5.6689,3.9955,4.0928,4.1882,4.2286,4.3487,4.4598,4.5164,4.4335,4.4076,4.5145,4.5434,4.5768,4.6527,4.6958,4.732,4.7683,4.7717,4.7717,4.7717,4.7027,4.6637,4.6768,4.5295,4.4417,4.4125,4.2537,4.1163,4.0021,3.92,3.8201,3.7077,3.7077,3.6845,3.6488,3.7702,3.9753,4.243,4.359,4.5275,4.7205,4.7777,4.9191,5.0988,5.1665,5.2749,5.3962,5.4447,5.4759,5.4987,5.5423,5.5849,5.6209,5.6209,5.6209,5.6209,5.6209,5.5925,5.5527,5.511,5.4693,5.4162,5.329,5.2779,5.2267,5.1395,5.0865,5.0334,4.9481,4.8988,4.842,4.7548,4.7112,4.6449,4.5198,4.499,0.0,0.0,0.0,0.0,0.0,0.0,0.0,0.0,4.1194,4.2408,4.4096,4.4101,4.5221,4.7927,4.7537,4.7834,4.9259,5.0322,5.0904,5.0848,5.1531,5.1889,5.1907,5.3071,5.3823,5.4253,5.5435,5.6206,5.66,5.66,5.66,5.66,5.6546,5.6492,5.6492,5.6455,5.6492,5.66,5.6455,5.6455,5.6492,4.1882,4.302,4.4048,4.4232,4.515,4.5903,4.6058,4.597,4.5864,4.5864,4.6306,4.6734,4.7044,4.7596,4.801,4.8183,4.82,4.82,4.82,4.8045,4.7885,4.7803,4.7116,4.6517,4.607,4.4232,4.3036,4.2537,4.1109,3.9611,3.8058,3.8736,3.879,3.8397,3.9789,4.1663,4.3804,4.4732,4.6302,4.8258,4.859,4.9739,5.1203,5.158,5.2517,5.3743,5.455,5.5092,5.5564,5.6441,5.6942,5.727,5.7352,5.7403,5.7403,5.7403,5.7403,5.7251,5.6626,5.6455,5.6133,5.4825,5.4371,5.401,5.3139,5.2324,5.149,5.0599,5.0144,4.9481,4.8174,4.8344,4.8193,4.6695,4.6449,4.6449,0.0,0.0,0.0,0.0,0.0,0.0,4.2033,4.2115,4.3076,4.5281,4.4701,4.5358,4.7969,4.7259,4.7387,4.8749,5.0028,5.0419,4.9999,5.1113,5.169,5.1708,5.2511,5.3278,5.4045,5.4848,5.5651,5.6401,5.6401,5.6401,5.6401,5.6401,5.6401,5.6401,5.6401,5.6401,5.6401,5.6401,5.6401,5.6401,4.4378,4.5076,4.5902,4.6654,4.6155,4.6093,4.7271,4.6888,4.6532,4.6532,4.6564,4.7131,4.8476,4.8683,4.901,4.9735,4.9786,4.9786,4.9786,4.9114,4.8907,4.9451,4.8731,4.7876,4.6908,4.6659,4.5517,4.3393,4.2501,3.9825,3.5614,3.8469,4.0164,4.0806,4.168,4.2983,4.4624,4.6123,4.7319,4.83,4.971,5.0449,5.0856,5.1592,5.2788,5.4092,5.4556,5.572,5.7221,5.8159,5.7706,5.6826,5.727,5.7403,5.7403,5.7403,5.7403,5.7384,5.7308,5.7289,5.7251,5.7081,5.6512,5.5735,5.4863,5.4048,5.3215,5.2362,5.0959,4.9841,4.969,4.9121,4.8382,4.7434,4.7283,4.7283,0.0,0.0,0.0,0.0,0.0,0.0,4.5398,4.3393,4.3632,4.7586,4.5097,4.4221,4.6051,4.5686,4.6071,4.7525,4.9248,4.9955,4.9572,5.1003,5.169,5.1708,5.2511,5.3278,5.4045,5.4848,5.5651,5.6401,5.6401,5.6401,5.6401,5.6401,5.6401,5.6401,5.6401,5.6401,5.6401,5.6401,5.6401,5.6401,4.5424,4.6085,4.6653,4.6658,4.715,4.7465,4.744,4.7553,4.7751,4.7928,4.7941,4.8165,4.8752,4.9252,4.9666,4.9976,5.0011,5.0011,5.0011,4.9717,4.9795,5.0328,4.9644,4.9199,4.9103,4.8175,4.7015,4.5606,4.4785,4.2947,4.0217,4.1484,4.2234,4.259,4.3839,4.5017,4.6141,4.7711,4.8835,4.962,5.0245,5.0829,5.1343,5.1732,5.2587,5.358,5.4262,5.5275,5.6455,5.769,5.8142,5.8256,5.8765,5.89,5.89,5.89,5.89,5.8786,5.8312,5.818,5.8047,5.7535,5.7156,5.6834,5.6474,5.5773,5.4958,5.4086,5.257,5.1395,5.1395,5.0629,4.9939,4.9719,4.9153,4.8804,4.8894,0.0,0.0,0.0,0.0,0.0,0.0,4.3671,4.4184,4.6309,4.5263,4.5238,4.693,4.6754,4.6664,4.6928,4.8985,4.9866,4.9365,5.0905,5.169,5.169,5.2029,5.2814,5.4028,5.4349,5.5187,5.6401,5.6401,5.6401,5.6401,5.6401,5.6401,5.6401,5.6401,5.6401,5.6401,5.6401,5.6401,5.6401,4.6338,4.7033,4.7536,4.7487,4.8109,4.8447,4.7925,4.8241,4.8588,4.8808,4.9028,4.9166,4.9166,4.9666,5.0011,5.0011,5.0011,5.0011,5.0011,5.0011,5.0263,5.0766,5.0311,5.0188,5.0513,4.9424,4.8478,4.7676,4.689,4.5356,4.3144,4.2912,4.3554,4.4928,4.6016,4.6944,4.7765,4.9103,4.9995,5.053,5.0762,5.1191,5.1726,5.2058,5.2699,5.3605,5.4557,5.535,5.6088,5.7131,5.7882,5.846,5.9058,5.9118,5.8996,5.9048,5.9114,5.9089,5.8767,5.8691,5.8597,5.8218,5.7952,5.7782,5.7782,5.7137,5.6304,5.547,5.4143,5.3034,5.2759,5.1914,5.1307,5.1374,5.0617,5.0002,5.01,4.94,0.0,4.7164,4.6089,0.0,4.5021,4.4766,4.5163,4.635,4.6174,4.6541,4.7788,4.7525,4.7353,4.7427,4.9264,5.0045,4.9674,5.1012,5.169,5.169,5.1922,5.2743,5.4045,5.4509,5.533,5.6401,5.6401,5.6401,5.6401,5.6401,5.6328,5.6273,5.6346,5.6328,5.6273,5.6273,5.6273,5.6217,4.7451,4.8127,4.8942,4.9792,4.9114,4.8569,4.9096,4.8942,4.8821,4.8821,4.951,4.9993,4.9993,4.9993,5.0011,5.0011,5.0011,5.0011,5.0011,5.0011,5.0263,5.0766,5.0803,5.0717,5.0513,5.0477,5.0084,4.9281,4.8514,4.6141,4.2287,4.1502,4.3625,4.8122,4.8139,4.8568,4.9353,5.0156,5.0495,5.0584,5.1369,5.169,5.1779,5.2564,5.3471,5.4412,5.5662,5.6378,5.6789,5.6959,5.6709,5.6502,5.7423,5.7304,5.6882,5.7092,5.7276,5.7611,5.8464,5.8691,5.8881,5.9658,5.926,5.8672,5.8672,5.8009,5.7156,5.6341,5.5489,5.4557,5.3572,5.2673,5.2046,5.1912,5.1166,5.0603,5.0585,4.989,4.9446,4.9625,4.8183,4.7825,4.9466,4.723,4.6641,4.8987,4.823,4.7783,4.7983,4.7296,4.7661,4.9313,5.0118,5.0495,5.0495,5.128,5.169,5.1708,5.2493,5.3278,5.4063,5.5651,5.6383,5.6401,5.6401,5.6401,5.6401,5.6401,5.6217,5.5918,5.6273,5.6217,5.5918,5.5918,5.5918,5.5861,4.972,4.9646,4.9559,4.9457,4.933,4.9153,4.8939,4.9323,4.9631,4.9631,4.9855,5.0011,5.0011,5.0011,5.0011,5.0011,5.0011,5.0011,5.0011,5.0011,5.0263,5.0766,5.0803,5.0964,5.1315,5.1315,5.0923,5.0138,4.9888,4.8835,4.7087,4.6819,4.7515,4.8978,4.9513,4.9906,5.0174,5.0976,5.1315,5.1333,5.1601,5.169,5.1779,5.2564,5.3419,5.4187,5.5147,5.5936,5.6456,5.6061,5.5428,5.4887,5.4894,5.5447,5.6197,5.6647,5.6701,5.6793,5.7427,5.7522,5.768,5.849,5.8578,5.8608,5.9018,5.8474,5.7645,5.6764,5.6368,5.5936,5.504,5.4093,5.3309,5.2799,5.1892,5.1335,5.1485,5.126,5.0853,5.0239,4.9227,4.8503,4.8338,4.7564,4.7285,4.7807,4.7534,4.7662,4.8288,4.8379,4.8553,4.8932,4.9941,5.0513,5.0513,5.1298,5.169,5.1708,5.2511,5.3564,5.4866,5.5919,5.6401,5.6401,5.6401,5.6401,5.6401,5.6144,5.5975,5.5918,5.5822,5.5706,5.5648,5.5648,5.5648,5.5648,5.0653,5.038,5.0085,4.987,4.9785,4.9739,4.9556,4.978,5.0011,5.0011,5.0011,5.0011,5.0011,5.0011,5.0011,5.0011,5.0011,5.0011,5.0011,5.0109,5.0359,5.0749,5.0928,5.1211,5.169,5.169,5.144,5.0959,5.0959,5.0691,5.0209,5.0209,5.0209,5.0227,5.0727,5.0959,5.0976,5.1476,5.169,5.169,5.169,5.169,5.1815,5.2903,5.3599,5.4152,5.5259,5.5972,5.6222,5.524,5.4525,5.3969,5.3145,5.3533,5.4404,5.5053,5.5189,5.5359,5.614,5.6307,5.6442,5.7413,5.7971,5.8458,5.9158,5.8915,5.8314,5.7452,5.7283,5.702,5.6104,5.5172,5.4371,5.3884,5.3047,5.2377,5.2202,5.2146,5.1847,5.0953,5.0411,4.9855,4.9216,4.9161,4.9057,4.8808,4.8772,4.9086,4.9821,4.9236,4.9161,4.9753,5.0551,5.0959,5.0959,5.144,5.1833,5.2154,5.3242,5.442,5.5669,5.6169,5.6401,5.6401,5.6401,5.6328,5.6217,5.5975,5.5746,5.5572,5.5531,5.5413,5.5294,5.5294,5.5294,5.5294,5.0755,5.0673,5.0705,5.0946,5.0515,5.0305,5.0815,5.0459,5.0149,5.0149,5.0149,5.0131,5.008,5.0131,5.0131,5.008,5.008,5.0097,5.0149,5.0419,5.0666,5.0978,5.1229,5.1473,5.1779,5.1726,5.169,5.169,5.169,5.169,5.169,5.169,5.169,5.169,5.169,5.169,5.169,5.169,5.169,5.169,5.169,5.1726,5.194,5.3439,5.4045,5.4313,5.5847,5.6401,5.6151,5.4616,5.4099,5.3831,5.2332,5.1851,5.1996,5.2758,5.3088,5.3499,5.465,5.495,5.5249,5.6442,5.7395,5.824,5.9009,5.9215,5.9047,5.8315,5.8165,5.781,5.6762,5.594,5.5361,5.5059,5.437,5.3608,5.281,5.2679,5.2456,5.1833,5.1684,5.1665,5.1665,5.161,5.1521,5.1398,5.1361,5.1583,5.2026,4.9973,4.9603,5.1497,5.167,5.169,5.169,5.169,5.2118,5.2975,5.4491,5.5633,5.6401,5.6401,5.6401,5.6401,5.6401,5.6217,5.5918,5.5861,5.5514,5.5053,5.5294,5.5234,5.4992,5.4992,5.4992,5.493,5.3652,5.3337,5.2927,5.2544,5.2062,5.1743,5.1845,5.1743,5.1701,5.1701,5.1701,5.1476,5.0907,5.1356,5.1459,5.0907,5.0856,5.1097,5.1666,5.1743,5.2021,5.2558,5.2087,5.2059,5.26,5.1993,5.169,5.169,5.169,5.169,5.169,5.169,5.169,5.169,5.169,5.169,5.169,5.169,5.169,5.169,5.169,5.2065,5.2707,5.3671,5.4402,5.5062,5.6044,5.6401,5.624,5.5259,5.4937,5.4759,5.3778,5.3474,5.3361,5.2771,5.2544,5.2599,5.3327,5.3603,5.3924,5.4818,5.6395,5.7728,5.807,5.8516,5.8806,5.862,5.8583,5.8282,5.7423,5.7125,5.6527,5.5224,5.4853,5.4444,5.3627,5.3534,5.3441,5.3312,5.2754,5.2363,5.2363,5.1824,5.1324,5.1043,5.1043,5.1219,5.17,5.0957,5.0985,5.2017,5.1813,5.169,5.169,5.169,5.2386,5.376,5.4741,5.5633,5.6401,5.6401,5.6401,5.6401,5.6144,5.5975,5.5861,5.5396,5.5113,5.4992,5.4807,5.4683,5.4637,5.4637,5.4637,5.4637,5.4341,5.3903,5.3329,5.2741,5.2364,5.2218,5.2218,5.2218,5.2218,5.2218,5.2218,5.1942,5.1183,5.177,5.2063,5.1649,5.1614,5.1787,5.2183,5.2339,5.2618,5.3102,5.2846,5.2908,5.3403,5.2975,5.2582,5.2243,5.2243,5.2047,5.169,5.169,5.169,5.169,5.169,5.169,5.169,5.169,5.169,5.1726,5.2083,5.2493,5.301,5.4135,5.483,5.5312,5.6115,5.6401,5.6276,5.5473,5.5205,5.5062,5.4277,5.4028,5.3901,5.3342,5.3091,5.3158,5.358,5.38,5.4154,5.5312,5.6557,5.7643,5.8117,5.8464,5.8716,5.8716,5.8716,5.8586,5.8141,5.7751,5.7212,5.6302,5.5503,5.4853,5.4407,5.4035,5.3813,5.3813,5.3423,5.3144,5.3144,5.2754,5.24,5.2229,5.2229,5.2198,5.2156,5.1972,5.1973,5.2185,5.1853,5.169,5.169,5.2404,5.3367,5.4581,5.5366,5.5972,5.6383,5.6217,5.6162,5.6144,5.5861,5.5631,5.5455,5.5174,5.493,5.4745,5.4575,5.4512,5.4512,5.4512,5.4512,5.4512,5.4242,5.372,5.3207,5.2606,5.2563,5.2563,5.2563,5.2563,5.2563,5.2563,5.2563,5.2287,5.1545,5.2132,5.2511,5.2408,5.2494,5.2563,5.2563,5.2822,5.3101,5.3339,5.3591,5.3831,5.4082,5.4028,5.3706,5.3064,5.3064,5.2707,5.2047,5.2047,5.2047,5.2047,5.2047,5.2047,5.2047,5.2047,5.2047,5.2101,5.2779,5.3118,5.3367,5.4706,5.5294,5.5473,5.6151,5.6401,5.6294,5.5616,5.5384,5.5277,5.4598,5.4384,5.4384,5.4384,5.4384,5.4366,5.4493,5.4521,5.493,5.6291,5.7026,5.7594,5.8262,5.8563,5.8716,5.8716,5.8716,5.8716,5.8716,5.8141,5.7639,5.7528,5.632,5.5299,5.5039,5.4407,5.3943,5.3813,5.3813,5.3813,5.3813,5.3813,5.3813,5.3813,5.3813,5.3521,5.285,5.2806,5.2608,5.2155,5.1871,5.1744,5.1869,5.3369,5.4421,5.5151,5.5899,5.6273,5.6273,5.5975,5.5861,5.5804,5.5531,5.5294,5.4992,5.493,5.4745,5.4512,5.4512,5.4512,5.4512,5.4512,5.4512,5.4512,5.5221,5.5074,5.4874,5.4257,5.4149,5.4149,5.4149,5.4149,5.4149,5.4149,5.4149,5.3873,5.3132,5.3701,5.3908,5.327,5.3787,5.4149,5.4149,5.4212,5.4399,5.4687,5.4355,5.4349,5.4611,5.4189,5.3956,5.3849,5.3849,5.3778,5.3653,5.3653,5.3653,5.3653,5.3653,5.3653,5.3653,5.3653,5.3653,5.3671,5.3796,5.4259,5.4866,5.5116,5.5633,5.6222,5.6347,5.6401,5.6383,5.6258,5.6204,5.6186,5.6062,5.6026,5.6026,5.6026,5.6026,5.5723,5.4437,5.432,5.4755,5.5257,5.6171,5.7051,5.7162,5.7968,5.8716,5.8716,5.8716,5.8716,5.8716,5.8605,5.8289,5.7621,5.7286,5.6617,5.5206,5.489,5.4574,5.3887,5.3813,5.3813,5.3813,5.3813,5.3813,5.3813,5.3813,5.3521,5.285,5.2806,5.249,5.1772,5.174,5.2029,5.2689,5.3957,5.4664,5.4806,5.5376,5.5648,5.5648,5.559,5.559,5.5531,5.5234,5.5053,5.4992,5.4683,5.4575,5.4512,5.4512,5.4512,5.4512,5.4512,5.4512,5.4512,5.5432,5.5122,5.4834,5.4557,5.4512,5.4512,5.4512,5.4512,5.4512,5.4512,5.4512,5.4236,5.3477,5.4063,5.4201,5.346,5.408,5.4512,5.4512,5.4512,5.462,5.4992,5.4944,5.516,5.5611,5.5419,5.5098,5.467,5.467,5.4438,5.4028,5.4028,5.4028,5.4028,5.4028,5.4028,5.4028,5.4028,5.4028,5.4063,5.4491,5.4884,5.5259,5.5687,5.6079,5.6401,5.6401,5.6401,5.6401,5.6401,5.6401,5.6401,5.6401,5.6401,5.6401,5.6401,5.6401,5.624,5.5491,5.5612,5.5952,5.6084,5.6696,5.7299,5.7526,5.7998,5.8449,5.8656,5.8716,5.8716,5.8716,5.8716,5.8586,5.8215,5.7788,5.723,5.6469,5.5577,5.4871,5.45,5.4073,5.3813,5.3813,5.3813,5.3813,5.3813,5.3813,5.36,5.3109,5.3277,5.3134,5.2646,5.2416,5.2852,5.3833,5.4434,5.485,5.516,5.5355,5.5472,5.5472,5.5294,5.5234,5.5234,5.4869,5.4745,5.4745,5.4557,5.4512,5.4512,5.4512,5.4512,5.4512,5.4512,5.4512,5.4512,5.5224,5.4834,5.4512,5.4512,5.4512,5.4512,5.4512,5.4512,5.4512,5.4512,5.4512,5.4287,5.3718,5.4167,5.4287,5.3718,5.4184,5.4512,5.4512,5.4512,5.462,5.4869,5.5234,5.5648,5.6273,5.6273,5.6043,5.5491,5.5491,5.5169,5.4581,5.4581,5.4581,5.4581,5.4581,5.4581,5.4581,5.4581,5.4581,5.4616,5.5241,5.5491,5.5544,5.6151,5.6401,5.6401,5.6401,5.6401,5.6401,5.6401,5.6401,5.6401,5.6401,5.6401,5.6401,5.6401,5.6401,5.6401,5.6401,5.6653,5.6847,5.6847,5.7138,5.7534,5.7895,5.8015,5.8213,5.8614,5.8716,5.8716,5.8716,5.8716,5.8716,5.8716,5.8196,5.7713,5.7528,5.6395,5.5447,5.5057,5.4463,5.4017,5.3831,5.3813,5.3887,5.4073,5.4091,5.3952,5.3726,5.4034,5.4041,5.3706,5.3506,5.3816,5.4659,5.4815,5.5032,5.5413,5.5294,5.5294,5.5234,5.4992,5.4869,5.4869,5.4637,5.4512,5.4512,5.4512,5.4512,5.4512,5.4512,5.4512,5.4512,5.4512,5.4512,5.4512,5.4683,5.4512,5.4512,5.4512,5.4512,5.4512,5.4512,5.4512,5.4512,5.4512,5.4512,5.4494,5.4425,5.4477,5.4494,5.4425,5.4477,5.4512,5.4512,5.4512,5.4512,5.4512,5.4869,5.5336,5.5918,5.5918,5.607,5.6311,5.6311,5.6276,5.6222,5.6222,5.6222,5.6222,5.6222,5.6222,5.6222,5.6222,5.6222,5.6222,5.6294,5.6311,5.6311,5.6383,5.6401,5.6401,5.6401,5.6401,5.6401,5.6401,5.6401,5.6401,5.6401,5.6401,5.6401,5.6401,5.6401,5.6401,5.6401,5.6401,5.6437,5.6437,5.6742,5.7156,5.7553,5.7895,5.8213,5.8614,5.8716,5.8716,5.8716,5.8716,5.8716,5.8716,5.8661,5.8364,5.7602,5.7398,5.6747,5.5187,5.4964,5.463,5.3868,5.3813,5.411,5.4871,5.4927,5.4962,5.5067,5.5085,5.4936,5.4593,5.4865,5.4919,5.4677,5.519,5.5301,5.5053,5.4745,5.4557,5.4557,5.4575,5.4512,5.4512,5.4512,5.4512,5.4512,5.4512,5.4512,5.4512,5.4512,5.4512,5.4512,5.4512,5.4512,5.4512,5.4575,5.4512,5.4512,5.4512,5.4512,5.4512,5.4512,5.4512,5.4512,5.4512,5.4512,5.4512,5.4512,5.4512,5.4512,5.4512,5.4512,5.4512,5.4512,5.4512,5.4557,5.4807,5.493,5.5217,5.5631,5.5631,5.5804,5.6088,5.6088,5.6217,5.6401,5.6401,5.6401,5.6401,5.6401,5.6401,5.6401,5.6401,5.6401,5.6401,5.6401,5.6401,5.6401,5.6401,5.6401,5.6401,5.6401,5.6401,5.6401,5.6401,5.6401,5.6401,5.6401,5.6401,5.6401,5.6401,5.6401,5.6401,5.6401,5.6401,5.6401,5.6401,5.6492,5.6742,5.7156,5.7534,5.7895,5.8257,5.8511,5.8716,5.8716,5.8716,5.8716,5.8716,5.8716,5.8605,5.8289,5.7806,5.7268,5.6636,5.6116,5.5689,5.5391,5.5354,5.5387,5.5401,5.542,5.5276,5.4869,5.49,5.5027,5.5173,5.5305,5.5248,5.4898,5.5077,5.4992,5.4683,5.4575,5.4512,5.4512,5.4512,5.4512,5.4512,5.4512,5.4512,5.4512,5.4512,5.4512,5.4512,5.4512,5.4512,5.4512,5.4512,5.4512,5.4512,5.4512,5.4512,5.4512,5.4512,5.4512,5.4512,5.4512,5.4512,5.4512,5.4512,5.4512,5.4512,5.4512,5.4512,5.4512,5.4512,5.4512,5.4512,5.4512,5.4512,5.462,5.4807,5.4869,5.4992,5.5354,5.5354,5.5455,5.5746,5.5746,5.5861,5.6106,5.6106,5.6162,5.6217,5.6217,5.6273,5.6401,5.6401,5.6401,5.6401,5.6401,5.6401,5.6401,5.6401,5.6401,5.6401,5.6401,5.6401,5.6401,5.6401,5.6401,5.6401,5.6401,5.6401,5.6401,5.6401,5.6401,5.6401,5.6401,5.6401,5.6401,5.6401,5.6401,5.6492,5.6899,5.7289,5.7679,5.7895,5.8363,5.8656,5.8553,5.8614,5.8716,5.8716,5.8716,5.8716,5.8716,5.8234,5.7788,5.7528,5.6926,5.6381,5.614,5.602,5.5926,5.5886,5.5815,5.5549,5.5065,5.4917,5.5014,5.5336,5.5234,5.5053,5.4869,5.493,5.4807,5.4512,5.4512,5.4512,5.4512,5.4512,5.4512,5.4512,5.4512,5.4512,5.4512,5.4512,5.4512,5.4512,5.4512,5.4512,5.4512,5.4512,5.4512,5.4512,5.4512,5.4512,5.4512,5.4512,5.4512,5.4512,5.4512,5.4512,5.4512,5.4512,5.4512,5.4512,5.4512,5.4512,5.4512,5.4512,5.4512,5.4512,5.4512,5.4512,5.4512,5.4512,5.4512,5.4637,5.4992,5.4992,5.5174,5.5472,5.5472,5.5472,5.5472,5.5472,5.5631,5.5918,5.5918,5.6088,5.6401,5.6401,5.6401,5.6401,5.6401,5.6401,5.6401,5.6401,5.6401,5.6401,5.6401,5.6401,5.6401,5.6401,5.6401,5.6401,5.6401,5.6401,5.6401,5.6401,5.6401,5.6401,5.6401,5.6401,5.6401,5.6401,5.6401,5.6492,5.6899,5.7307,5.7601,5.7601,5.8205,5.8553,5.815,5.8406,5.8716,5.8716,5.8716,5.8716,5.8716,5.8716,5.8401,5.7602,5.7162,5.6614,5.5779,5.5359,5.5458,5.6223,5.6055,5.5911,5.6004,5.5343,5.4992,5.4992,5.4683,5.4512,5.4512,5.4807,5.4807,5.4512,5.4512,5.4512,5.4512,5.4512,5.4512,5.4512,5.4512,5.4512,5.4512,5.4512,5.4512,5.4512,5.4512,5.4512,5.4512,5.4512,5.4512,5.4512,5.4512,5.4512,5.4512,5.4512,5.4512,5.4512,5.4512,5.4512,5.4512,5.4512,5.4512,5.4512,5.4512,5.4512,5.4512,5.4512,5.4512,5.4512,5.4512,5.4512,5.4512,5.4512,5.4512,5.4575,5.4637,5.462,5.4807,5.5174,5.5174,5.5294,5.5472,5.5472,5.5531,5.5648,5.5648,5.5746,5.6032,5.6032,5.6144,5.6401,5.6401,5.6401,5.6401,5.6401,5.6401,5.6401,5.6401,5.6401,5.6401,5.6401,5.6401,5.6401,5.6401,5.6401,5.6401,5.6401,5.6401,5.6401,5.6401,5.6401,5.6401,5.6401,5.6401,5.6437,5.6546,5.6899,5.7188,5.7188,5.7583,5.796,5.806,5.8213,5.8363,5.8656,5.8716,5.8716,5.8716,5.8716,5.8521,5.7987,5.7818,5.7573,5.7078,5.6721,5.6518,5.6449,5.5717,5.5273,5.5284,5.4913,5.462,5.462,5.4575,5.4512,5.4512,5.4637,5.4637,5.4512,5.4512,5.4512,5.4512,5.4512,5.4512,5.4512,5.4512,5.4512,5.4512,5.4512,5.4512,5.4512,5.4512,5.4512,5.4512,5.4512,5.4512,5.4512,5.4512,5.4512,5.4512,5.4512,5.4512,5.4512,5.4512,5.4512,5.4512,5.4512,5.4512,5.4512,5.4512,5.4512,5.4512,5.4512,5.4512,5.4512,5.4512,5.4512,5.4512,5.4512,5.4512,5.4512,5.4512,5.4512,5.4637,5.4807,5.4807,5.493,5.5113,5.5113,5.5174,5.5294,5.5294,5.5514,5.5918,5.5918,5.6088,5.6401,5.6401,5.6401,5.6401,5.6401,5.6401,5.6401,5.6401,5.6401,5.6401,5.6401,5.6401,5.6401,5.6401,5.6401,5.6401,5.6401,5.6401,5.6401,5.6401,5.6401,5.6401,5.6401,5.6401,5.6455,5.66,5.6847,5.7054,5.7188,5.7534,5.7849,5.806,5.8213,5.8406,5.8656,5.8716,5.8716,5.8716,5.8716,5.8596,5.8301,5.7905,5.7624,5.7351,5.6827,5.6276,5.5904,5.5319,5.493,5.4807,5.4637,5.4512,5.4512,5.4512,5.4512,5.4512,5.4512,5.4512,5.4512,5.4512,5.4512,5.4512,5.4512,5.4512,5.4512,5.4512,5.4512,5.4512,5.4512,5.4448,5.4367,5.4367,5.4367,5.4367,5.4367,5.4431,5.4512,5.4512,5.4512,5.4512,5.4512,5.4512,5.4512,5.4512,5.4512,5.4512,5.4512,5.4512,5.4512,5.4512,5.4512,5.4512,5.4512,5.4512,5.4512,5.4512,5.4512,5.4512,5.4512,5.4512,5.4512,5.4512,5.4512,5.4512,5.4512,5.4512,5.4512,5.4512,5.4512,5.4683,5.493,5.493,5.5277,5.5861,5.5861,5.6088,5.6401,5.6401,5.6401,5.6401,5.6401,5.6401,5.6401,5.6401,5.6401,5.6401,5.6401,5.6401,5.6401,5.6401,5.6401,5.6401,5.6401,5.6401,5.6401,5.6401,5.6401,5.6401,5.6437,5.6437,5.6546,5.6899,5.7054,5.7156,5.7534,5.7849,5.806,5.8105,5.8406,5.8656,5.8698,5.8716,5.8716,5.8716,5.8716,5.8656,5.8468,5.7653,5.7065,5.6912,5.609,5.5336,5.4992,5.493,5.4807,5.4512,5.4512,5.4512,5.4512,5.4512,5.4512,5.4512,5.4512,5.4512,5.4512,5.4512,5.4512,5.4512,5.4512,5.4512,5.4512,5.4512,5.4512,5.4512,5.4512,5.4367,5.4222,5.4175,5.4175,5.4175,5.4175,5.4303,5.4448,5.4512,5.4512,5.4512,5.4512,5.4512,5.4512,5.4512,5.4512,5.4512,5.4512,5.4512,5.4512,5.4512,5.4512,5.4512,5.4512,5.4512,5.4512,5.4512,5.4512,5.4512,5.4512,5.4512,5.4512,5.4512,5.4512,5.4512,5.4512,5.4512,5.4512,5.4512,5.4512,5.4575,5.4637,5.4637,5.4992,5.559,5.559,5.5879,5.6401,5.6401,5.6401,5.6401,5.6401,5.6401,5.6401,5.6401,5.6401,5.6401,5.6401,5.6401,5.6401,5.6401,5.6401,5.6401,5.6401,5.6401,5.6401,5.6401,5.6401,5.651,5.6794,5.6847,5.6899,5.7003,5.7239,5.7486,5.7601,5.7649,5.7821,5.806,5.815,5.8319,5.8656,5.8716,5.8716,5.8716,5.8716,5.8529,5.8179,5.748,5.7134,5.712,5.6311,5.5496,5.4683,5.4637,5.4575,5.4512,5.4512,5.4512,5.4512,5.4512,5.4512,5.4512,5.4367,5.4367,5.4512,5.4512,5.4512,5.4512,5.4512,5.4512,5.4512,5.4512,5.4512,5.4512,5.4303,5.4239,5.4158,5.411,5.4045,5.4045,5.4045,5.4045,5.411,5.4512,5.4512,5.4512,5.4512,5.4512,5.4512,5.4512,5.4512,5.4512,5.4512,5.4512,5.4512,5.4512,5.4512,5.4512,5.4512,5.4512,5.4512,5.4512,5.4512,5.4512,5.4512,5.4512,5.4512,5.4512,5.4512,5.4512,5.4512,5.4512,5.4512,5.4512,5.4512,5.4512,5.4512,5.4512,5.4869,5.5472,5.5472,5.5879,5.6401,5.6401,5.6401,5.6401,5.6401,5.6401,5.6401,5.6401,5.6401,5.6401,5.6401,5.6401,5.6401,5.6401,5.6401,5.6401,5.6401,5.6401,5.6401,5.6401,5.6401,5.6437,5.6653,5.6984,5.7338,5.7516,5.7565,5.7697,5.8051,5.796,5.7941,5.8319,5.8406,5.8468,5.8675,5.8716,5.8716,5.8716,5.8656,5.8486,5.8242,5.7594,5.6964,5.6402,5.5904,5.5361,5.4557,5.4512,5.4512,5.4512,5.4512,5.4512,5.4512,5.4512,5.4512,5.4512,5.4367,5.4367,5.4367,5.4303,5.4303,5.4367,5.4367,5.4431,5.4512,5.4367,5.4367,5.4367,5.4175,5.4045,5.3963,5.3898,5.3849,5.3849,5.3849,5.3849,5.3849,5.4512,5.4512,5.4512,5.4512,5.4512,5.4512,5.4512,5.4512,5.4512,5.4512,5.4512,5.4512,5.4512,5.4512,5.4512,5.4512,5.4512,5.4512,5.4512,5.4512,5.4512,5.4512,5.4512,5.4512,5.4512,5.4512,5.4512,5.4512,5.4512,5.4512,5.4512,5.4512,5.4512,5.4512,5.4512,5.4869,5.5413,5.5413,5.5764,5.6217,5.6273,5.6328,5.6328,5.6401,5.6401,5.6401,5.6401,5.6401,5.6401,5.6401,5.6401,5.6401,5.6401,5.6401,5.6401,5.6401,5.6401,5.6401,5.6401,5.6401,5.6401,5.651,5.6984,5.7583,5.8015,5.7941,5.796,5.8572,5.8449,5.8301,5.8656,5.8716,5.8716,5.8716,5.8716,5.8656,5.8553,5.8406,5.8338,5.8223,5.7642,5.6721,5.5385,5.5343,5.5182,5.4575,5.4512,5.4512,5.4512,5.4512,5.4512,5.4512,5.4448,5.4448,5.4448,5.4367,5.4303,5.4093,5.398,5.398,5.4175,5.4175,5.4239,5.4385,5.4239,5.4222,5.4158,5.4045,5.3915,5.3783,5.3717,5.3651,5.3651,5.3651,5.3651,5.3717,5.4512,5.4512,5.4512,5.4512,5.4512,5.4512,5.4512,5.4512,5.4512,5.4512,5.4512,5.4512,5.4512,5.4512,5.4512,5.4512,5.4512,5.4512,5.4512,5.4512,5.4512,5.4512,5.4512,5.4512,5.4512,5.4512,5.4512,5.4512,5.4512,5.4512,5.4512,5.4512,5.4512,5.4512,5.4512,5.4683,5.5053,5.5053,5.5294,5.5648,5.5861,5.5975,5.5975,5.6273,5.6401,5.6401,5.6401,5.6401,5.6401,5.6401,5.6401,5.6401,5.6401,5.6401,5.6401,5.6401,5.6401,5.6401,5.6401,5.6401,5.6492,5.6847,5.7003,5.7289,5.7923,5.8319,5.8572,5.8675,5.8656,5.8656,5.8716,5.8716,5.8716,5.8716,5.8716,5.8511,5.7905,5.7812,5.7719,5.748,5.7266,5.6456,5.4772,5.5122,5.5182,5.4575,5.4512,5.4512,5.4512,5.4512,5.4512,5.4512,5.4303,5.4239,5.4239,5.3963,5.3766,5.3783,5.3618,5.3751,5.4045,5.4045,5.4045,5.4045,5.4175,5.4222,5.4158,5.4045,5.398,5.3915,5.3618,5.3501,5.3501,5.3501,5.3501,5.3501,5.4512,5.4512,5.4512,5.4512,5.4512,5.4512,5.4512,5.4512,5.4512,5.4512,5.4512,5.4512,5.4512,5.4512,5.4512,5.4512,5.4512,5.4512,5.4512,5.4512,5.4512,5.4512,5.4512,5.4512,5.4512,5.4512,5.4512,5.4512,5.4512,5.4512,5.4512,5.4512,5.4512,5.4512,5.4512,5.47,5.4992,5.4992,5.5174,5.5531,5.5648,5.5689,5.5689,5.5822,5.5993,5.6162,5.6328,5.6401,5.6401,5.6401,5.6401,5.6401,5.6401,5.6401,5.6401,5.6401,5.6401,5.6401,5.6401,5.6401,5.6437,5.66,5.6847,5.7036,5.7166,5.7784,5.84,5.8656,5.8716,5.8716,5.8716,5.8716,5.8675,5.8614,5.8614,5.8344,5.7653,5.751,5.7297,5.6791,5.6686,5.6203,5.5122,5.5224,5.5182,5.4575,5.4512,5.4512,5.4512,5.4367,5.4303,5.4303,5.4175,5.411,5.411,5.3915,5.3849,5.37,5.3668,5.3668,5.3849,5.3849,5.3915,5.398,5.3963,5.3898,5.3915,5.38,5.3751,5.3685,5.3568,5.3501,5.3501,5.3501,5.3501,5.3501]},{"header":{"parameterUnit":"m.s-1","parameterCategory":1,"la1":30.6,"la2":28.766,"lo1":-90.7593,"lo2":-88.6598,"dx":0.0162,"dy":0.0183,"nx":116,"ny":114,"refTime":"2022-12-16T18:00:00:Z","depth":0,"parameterNumber":3,"parameterNumberName":"V-component_of_WINDS"},"data":[0.0,0.0,0.0,0.0,0.0,0.0,0.0,0.0,0.0,0.0,0.0,0.0,0.0,0.0,0.0,0.0,0.0,0.0,0.0,0.0,0.0,0.0,0.0,0.0,0.0,0.0,0.0,0.0,0.0,0.0,0.0,0.0,0.0,0.0,0.0,0.0,0.0,0.0,0.0,0.0,0.0,0.0,0.0,0.0,0.0,0.0,0.0,0.0,0.0,0.0,0.0,0.0,0.0,0.0,0.0,0.0,0.0,0.0,0.0,0.0,0.0,0.0,0.0,0.0,0.0,0.0,0.0,0.0,0.0,0.0,0.0,0.0,0.0,0.0,0.0,0.0,0.0,0.0,0.0,0.0,0.0,0.0,0.0,0.0,0.0,0.0,0.0,0.0,0.0,0.0,0.0,0.0,0.0,0.0,0.0,0.0,0.0,0.0,0.0,0.0,0.0,0.0,0.0,0.0,0.0,0.0,0.0,0.0,0.0,0.0,0.0,0.0,0.0,0.0,0.0,0.0,0.0,0.0,0.0,0.0,0.0,0.0,0.0,0.0,0.0,0.0,0.0,0.0,0.0,0.0,0.0,0.0,0.0,0.0,0.0,0.0,0.0,0.0,0.0,0.0,0.0,0.0,0.0,0.0,0.0,0.0,0.0,0.0,0.0,0.0,0.0,0.0,0.0,0.0,0.0,0.0,0.0,0.0,0.0,0.0,0.0,0.0,0.0,0.0,0.0,0.0,0.0,0.0,0.0,0.0,0.0,0.0,0.0,0.0,0.0,0.0,0.0,0.0,0.0,0.0,0.0,0.0,0.0,0.0,0.0,0.0,0.0,0.0,0.0,0.0,0.0,0.0,0.0,0.0,0.0,0.0,0.0,0.0,0.0,0.0,0.0,0.0,0.0,0.0,0.0,0.0,0.0,0.0,0.0,0.0,0.0,0.0,0.0,0.0,0.0,0.0,0.0,0.0,0.0,0.0,0.0,0.0,0.0,0.0,0.0,0.0,0.0,0.0,0.0,0.0,0.0,0.0,0.0,0.0,0.0,0.0,0.0,0.0,0.0,0.0,0.0,0.0,0.0,0.0,0.0,0.0,0.0,0.0,0.0,0.0,0.0,0.0,0.0,0.0,0.0,0.0,0.0,0.0,0.0,0.0,0.0,0.0,0.0,0.0,0.0,0.0,0.0,0.0,0.0,0.0,0.0,0.0,0.0,0.0,0.0,0.0,0.0,0.0,0.0,0.0,0.0,0.0,0.0,0.0,0.0,0.0,0.0,0.0,0.0,0.0,0.0,0.0,0.0,0.0,0.0,0.0,0.0,0.0,0.0,0.0,0.0,0.0,0.0,0.0,0.0,0.0,0.0,0.0,0.0,0.0,0.0,0.0,0.0,0.0,0.0,0.0,0.0,0.0,0.0,0.0,0.0,0.0,0.0,0.0,0.0,0.0,0.0,0.0,0.0,0.0,0.0,0.0,0.0,0.0,0.0,0.0,0.0,0.0,0.0,0.0,0.0,0.0,0.0,0.0,0.0,0.0,0.0,0.0,0.0,0.0,0.0,0.0,0.0,0.0,0.0,0.0,0.0,0.0,0.0,0.0,0.0,0.0,0.0,0.0,0.0,0.0,0.0,0.0,0.0,0.0,0.0,0.0,0.0,0.0,0.0,0.0,0.0,0.0,0.0,0.0,0.0,0.0,0.0,0.0,0.0,0.0,0.0,0.0,0.0,0.0,0.0,0.0,0.0,0.0,0.0,0.0,0.0,0.0,0.0,0.0,0.0,0.0,0.0,0.0,0.0,0.0,0.0,0.0,0.0,0.0,0.0,0.0,0.0,0.0,0.0,0.0,0.0,0.0,0.0,0.0,0.0,0.0,0.0,0.0,0.0,0.0,0.0,0.0,0.0,0.0,0.0,0.0,0.0,0.0,0.0,0.0,0.0,0.0,0.0,0.0,0.0,0.0,0.0,0.0,0.0,0.0,0.0,0.0,0.0,0.0,0.0,0.0,0.0,0.0,0.0,0.0,0.0,0.0,0.0,0.0,0.0,0.0,0.0,0.0,0.0,0.0,0.0,0.0,0.0,0.0,0.0,0.0,0.0,0.0,0.0,0.0,0.0,0.0,0.0,0.0,0.0,0.0,0.0,0.0,0.0,0.0,0.0,0.0,0.0,0.0,0.0,0.0,0.0,0.0,0.0,0.0,0.0,0.0,0.0,0.0,0.0,0.0,0.0,0.0,0.0,0.0,0.0,0.0,0.0,0.0,0.0,0.0,0.0,0.0,0.0,0.0,0.0,0.0,0.0,0.0,0.0,0.0,0.0,0.0,0.0,0.0,0.0,0.0,0.0,0.0,0.0,0.0,0.0,0.0,0.0,0.0,0.0,0.0,0.0,0.0,0.0,0.0,0.0,0.0,0.0,0.0,0.0,0.0,0.0,0.0,0.0,0.0,0.0,0.0,0.0,0.0,0.0,0.0,0.0,0.0,0.0,0.0,0.0,0.0,0.0,0.0,0.0,0.0,0.0,0.0,0.0,0.0,0.0,0.0,0.0,0.0,0.0,0.0,0.0,0.0,0.0,0.0,0.0,0.0,0.0,0.0,0.0,0.0,0.0,0.0,0.0,0.0,0.0,0.0,0.0,0.0,0.0,0.0,0.0,0.0,0.0,0.0,0.0,0.0,0.0,0.0,0.0,0.0,0.0,0.0,0.0,0.0,0.0,0.0,0.0,0.0,0.0,0.0,0.0,0.0,0.0,0.0,0.0,0.0,0.0,0.0,0.0,0.0,0.0,0.0,0.0,0.0,0.0,0.0,0.0,0.0,0.0,0.0,0.0,0.0,0.0,0.0,0.0,0.0,0.0,0.0,0.0,0.0,0.0,0.0,0.0,0.0,0.0,0.0,0.0,0.0,0.0,0.0,0.0,0.0,0.0,0.0,0.0,0.0,0.0,0.0,0.0,0.0,0.0,0.0,0.0,0.0,0.0,0.0,0.0,0.0,0.0,0.0,0.0,0.0,0.0,0.0,0.0,0.0,0.0,0.0,0.0,0.0,0.0,0.0,0.0,0.0,0.0,0.0,0.0,0.0,0.0,0.0,0.0,0.0,0.0,0.0,0.0,0.0,0.0,0.0,0.0,0.0,0.0,0.0,0.0,0.0,0.0,0.0,0.0,0.0,0.0,0.0,0.0,0.0,0.0,0.0,0.0,0.0,0.0,0.0,0.0,0.0,0.0,0.0,0.0,0.0,0.0,0.0,0.0,0.0,0.0,0.0,0.0,0.0,0.0,0.0,0.0,0.0,0.0,0.0,0.0,0.0,0.0,0.0,0.0,0.0,0.0,0.0,0.0,0.0,0.0,0.0,0.0,0.0,0.0,0.0,0.0,0.0,0.0,0.0,0.0,0.0,0.0,0.0,0.0,0.0,0.0,0.0,0.0,0.0,0.0,0.0,0.0,0.0,0.0,0.0,0.0,0.0,0.0,0.0,0.0,0.0,0.0,0.0,0.0,0.0,0.0,0.0,0.0,0.0,0.0,0.0,0.0,0.0,0.0,0.0,0.0,0.0,0.0,0.0,0.0,0.0,0.0,0.0,0.0,0.0,0.0,0.0,0.0,0.0,0.0,0.0,0.0,0.0,0.0,0.0,0.0,0.0,0.0,0.0,0.0,0.0,0.0,0.0,0.0,0.0,0.0,0.0,0.0,0.0,0.0,0.0,0.0,0.0,0.0,0.0,0.0,0.0,0.0,0.0,0.0,0.0,0.0,0.0,0.0,0.0,0.0,0.0,0.0,0.0,0.0,0.0,0.0,0.0,0.0,0.0,0.0,0.0,0.0,0.0,0.0,0.0,0.0,0.0,0.0,0.0,0.0,0.0,0.0,0.0,0.0,0.0,0.0,0.0,0.0,0.0,0.0,0.0,0.0,0.0,0.0,0.0,0.0,0.0,0.0,0.0,0.0,0.0,0.0,0.0,0.0,0.0,0.0,0.0,0.0,0.0,0.0,0.0,0.0,0.0,0.0,0.0,0.0,0.0,0.0,0.0,0.0,0.0,0.0,0.0,0.0,0.0,0.0,0.0,0.0,0.0,0.0,0.0,0.0,0.0,0.0,0.0,0.0,0.0,0.0,0.0,0.0,0.0,0.0,0.0,0.0,0.0,0.0,0.0,0.0,0.0,0.0,0.0,0.0,0.0,0.0,0.0,0.0,0.0,0.0,0.0,0.0,0.0,0.0,0.0,0.0,0.0,0.0,0.0,0.0,0.0,0.0,0.0,0.0,0.0,0.0,0.0,0.0,0.0,0.0,0.0,0.0,0.0,0.0,0.0,0.0,0.0,0.0,0.0,0.0,0.0,0.0,0.0,0.0,0.0,0.0,0.0,0.0,0.0,0.0,0.0,0.0,0.0,0.0,0.0,0.0,0.0,0.0,0.0,0.0,0.0,0.0,0.0,0.0,0.0,0.0,0.0,0.0,0.0,0.0,0.0,0.0,0.0,0.0,0.0,0.0,0.0,0.0,0.0,0.0,0.0,0.0,0.0,0.0,0.0,0.0,0.0,0.0,0.0,0.0,0.0,0.0,0.0,0.0,0.0,0.0,0.0,0.0,0.0,0.0,0.0,0.0,0.0,0.0,0.0,0.0,0.0,0.0,0.0,0.0,0.0,0.0,0.0,0.0,0.0,0.0,0.0,0.0,0.0,0.0,0.0,0.0,0.0,0.0,0.0,0.0,0.0,0.0,0.0,0.0,0.0,0.0,0.0,0.0,0.0,0.0,0.0,0.0,0.0,0.0,0.0,0.0,0.0,0.0,0.0,0.0,0.0,0.0,0.0,0.0,0.0,0.0,0.0,0.0,0.0,0.0,0.0,0.0,0.0,0.0,0.0,0.0,0.0,0.0,0.0,0.0,0.0,0.0,0.0,0.0,0.0,0.0,0.0,0.0,0.0,0.0,0.0,0.0,0.0,0.0,0.0,0.0,0.0,0.0,0.0,0.0,0.0,0.0,0.0,0.0,0.0,0.0,0.0,0.0,0.0,0.0,0.0,0.0,0.0,0.0,0.0,0.0,0.0,0.0,0.0,0.0,0.0,0.0,0.0,0.0,0.0,0.0,0.0,0.0,0.0,0.0,0.0,0.0,0.0,0.0,0.0,0.0,0.0,0.0,0.0,0.0,0.0,0.0,0.0,0.0,0.0,0.0,0.0,0.0,0.0,0.0,0.0,0.0,0.0,0.0,0.0,0.0,0.0,0.0,0.0,0.0,0.0,0.0,0.0,0.0,0.0,0.0,0.0,0.0,0.0,0.0,0.0,0.0,0.0,0.0,0.0,0.0,0.0,0.0,0.0,0.0,0.0,0.0,0.0,0.0,0.0,0.0,0.0,0.0,0.0,0.0,0.0,0.0,0.0,0.0,0.0,0.0,0.0,0.0,0.0,0.0,0.0,0.0,0.0,0.0,0.0,0.0,0.0,0.0,0.0,0.0,0.0,0.0,0.0,0.0,0.0,0.0,0.0,0.0,0.0,0.0,0.0,0.0,0.0,0.0,0.0,0.0,0.0,0.0,0.0,0.0,0.0,0.0,0.0,0.0,0.0,0.0,0.0,0.0,0.0,0.0,0.0,0.0,0.0,0.0,0.0,0.0,0.0,0.0,0.0,0.0,0.0,0.0,0.0,0.0,0.0,0.0,0.0,0.0,0.0,0.0,0.0,0.0,0.0,0.0,0.0,0.0,0.0,0.0,0.0,0.0,0.0,0.0,0.0,0.0,0.0,0.0,0.0,0.0,0.0,0.0,0.0,0.0,0.0,0.0,0.0,0.0,0.0,0.0,0.0,0.0,0.0,0.0,0.0,0.0,0.0,0.0,0.0,0.0,0.0,0.0,0.0,0.0,0.0,0.0,0.0,0.0,0.0,0.0,0.0,0.0,0.0,0.0,0.0,0.0,0.0,0.0,0.0,0.0,0.0,0.0,0.0,0.0,0.0,0.0,0.0,0.0,0.0,0.0,0.0,0.0,0.0,0.0,0.0,0.0,0.0,0.0,0.0,0.0,0.0,0.0,0.0,0.0,0.0,0.0,0.0,0.0,0.0,0.0,0.0,0.0,0.0,0.0,0.0,-0.9057,-0.8429,0.0,0.0,0.0,0.0,0.0,0.0,0.0,0.0,0.0,0.0,0.0,0.0,0.0,0.0,0.0,0.0,0.0,0.0,0.0,0.0,0.0,0.0,0.0,-0.7299,-0.7563,-0.7806,-0.7575,0.0,0.0,0.0,0.0,0.0,0.0,0.0,0.0,0.0,-0.7579,-0.7353,-0.816,-0.8839,-0.9335,-0.8898,-0.856,-0.8238,0.0,0.0,0.0,0.0,0.0,0.0,0.0,0.0,0.0,0.0,0.0,0.0,0.0,0.0,0.0,0.0,0.0,0.0,0.0,0.0,0.0,0.0,0.0,0.0,0.0,0.0,0.0,0.0,0.0,0.0,0.0,0.0,0.0,0.0,0.0,0.0,0.0,0.0,0.0,0.0,0.0,0.0,0.0,0.0,0.0,0.0,0.0,0.0,0.0,0.0,0.0,0.0,0.0,0.0,0.0,0.0,0.0,0.0,0.0,0.0,0.0,0.0,0.0,0.0,0.0,0.0,0.0,0.0,0.0,0.0,-0.9564,-0.9053,0.0,0.0,0.0,0.0,0.0,0.0,0.0,0.0,0.0,0.0,0.0,0.0,0.0,0.0,0.0,0.0,0.0,0.0,0.0,0.0,0.0,-0.7443,-0.7972,-0.8441,-0.8838,-0.9199,-0.8779,-0.8528,-0.8661,-0.8606,0.0,0.0,0.0,0.0,-0.7276,-0.7841,-0.8318,-0.8711,-0.9425,-1.0105,-1.0761,-1.0371,-0.9953,-0.9607,-0.9411,0.0,0.0,0.0,0.0,0.0,0.0,0.0,0.0,0.0,0.0,0.0,0.0,0.0,0.0,0.0,0.0,0.0,0.0,0.0,0.0,0.0,0.0,0.0,0.0,0.0,0.0,0.0,0.0,0.0,0.0,0.0,0.0,0.0,0.0,0.0,0.0,0.0,0.0,0.0,0.0,0.0,0.0,0.0,0.0,0.0,0.0,0.0,0.0,0.0,0.0,0.0,0.0,0.0,0.0,0.0,0.0,0.0,0.0,0.0,0.0,0.0,0.0,0.0,-1.1132,-1.1303,-1.1643,-1.1471,-1.1389,-1.1341,-1.0472,-1.0048,-1.0054,-0.9796,0.0,0.0,0.0,0.0,0.0,0.0,0.0,0.0,0.0,0.0,0.0,0.0,0.0,0.0,0.0,0.0,0.0,0.0,0.0,-0.7984,-0.8549,-0.867,-0.8549,-0.8141,-0.8037,-0.7922,-0.7772,-0.8188,0.0,0.0,0.0,-0.9168,-0.8727,-0.943,-0.982,-0.9877,-1.0484,-1.1053,-1.1491,-1.1361,-1.1269,-1.1186,-1.0502,-1.015,-1.0045,0.0,0.0,0.0,0.0,0.0,0.0,0.0,0.0,0.0,0.0,0.0,0.0,0.0,0.0,0.0,0.0,0.0,0.0,0.0,0.0,0.0,0.0,0.0,0.0,0.0,0.0,0.0,0.0,0.0,0.0,0.0,0.0,0.0,0.0,0.0,0.0,0.0,0.0,0.0,0.0,0.0,-0.9821,-1.057,0.0,0.0,0.0,0.0,0.0,0.0,0.0,0.0,0.0,0.0,0.0,0.0,0.0,-1.0706,-1.09,-1.1178,-1.1467,-1.1769,-1.1999,-1.2246,-1.2499,-1.2493,-1.2493,-1.2487,-1.2349,0.0,-1.0936,-1.0677,0.0,0.0,0.0,0.0,0.0,0.0,0.0,0.0,0.0,0.0,0.0,0.0,0.0,0.0,0.0,0.0,0.0,0.0,0.0,0.0,0.0,-1.0515,-1.078,-1.1443,-1.0995,-1.079,-1.1004,-1.1236,0.0,0.0,-1.037,-1.0376,-0.9637,-0.9923,-1.0278,-1.0597,-1.1118,-1.1454,-1.1527,-1.1536,-1.1608,-1.1801,-1.1481,-1.1205,-1.093,-1.056,0.0,0.0,0.0,0.0,0.0,0.0,0.0,0.0,0.0,0.0,0.0,0.0,0.0,0.0,0.0,0.0,0.0,0.0,0.0,0.0,0.0,0.0,0.0,0.0,0.0,0.0,0.0,0.0,0.0,0.0,0.0,0.0,0.0,0.0,0.0,0.0,0.0,0.0,0.0,-1.0045,-0.9863,-1.0222,-0.99,-1.0058,0.0,0.0,0.0,0.0,0.0,0.0,0.0,0.0,0.0,-1.1465,-1.154,-1.1817,-1.224,-1.221,-1.2403,-1.2813,-1.2783,-1.291,-1.3163,-1.3163,-1.3242,-1.3369,-1.3224,-1.2982,-1.2638,-1.2071,-1.1587,-1.1126,0.0,0.0,0.0,0.0,-0.9703,-0.9479,0.0,0.0,0.0,0.0,0.0,0.0,0.0,0.0,0.0,0.0,0.0,0.0,-1.201,-1.2085,-1.254,-1.359,-1.2965,-1.2643,-1.3011,-1.32,-1.276,-1.1535,-1.1894,-1.163,-1.0651,-1.0682,-1.0861,-1.113,-1.1686,-1.1888,-1.1792,-1.1902,-1.2104,-1.2388,-1.2388,-1.2058,-1.1471,-1.1306,-1.1343,-1.137,0.0,0.0,0.0,0.0,0.0,0.0,0.0,0.0,0.0,0.0,0.0,0.0,0.0,0.0,0.0,0.0,0.0,0.0,0.0,0.0,0.0,0.0,0.0,0.0,0.0,0.0,0.0,0.0,0.0,0.0,0.0,0.0,0.0,0.0,0.0,0.0,0.0,-1.0073,-1.0038,-1.0112,-1.0021,-1.0309,0.0,0.0,0.0,0.0,0.0,0.0,-1.1684,-1.1835,-1.2059,-1.2324,-1.2584,-1.2916,-1.332,-1.3254,-1.3423,-1.3821,-1.3694,-1.3731,-1.3924,-1.3924,-1.4026,-1.4201,-1.4008,-1.4032,-1.4147,-1.3088,-1.2359,-1.1753,-1.1497,-1.1133,-1.0648,-1.048,-1.0317,-1.0075,0.0,0.0,0.0,0.0,0.0,0.0,0.0,0.0,0.0,0.0,0.0,-1.1459,-1.2553,-1.2673,-1.2492,-1.207,-1.1628,-1.1331,-1.1239,-1.1846,-1.1957,-1.1429,-1.2754,-1.3057,-1.21,-1.2282,-1.2081,-1.1453,-1.2282,-1.266,-1.2669,-1.3011,-1.3213,-1.3231,-1.3231,-1.258,-1.1508,-1.1914,-1.181,-1.1443,-1.1012,0.0,0.0,0.0,0.0,0.0,0.0,0.0,0.0,0.0,0.0,0.0,0.0,0.0,0.0,0.0,0.0,0.0,0.0,0.0,0.0,0.0,0.0,0.0,0.0,0.0,0.0,0.0,0.0,0.0,0.0,0.0,0.0,0.0,0.0,0.0,0.0,0.0,0.0,-1.0753,-1.0816,0.0,0.0,0.0,0.0,-1.1756,-1.1793,-1.2083,-1.2578,-1.2886,-1.3163,-1.3429,-1.3688,-1.3839,-1.387,-1.4364,-1.463,-1.466,-1.4896,-1.5016,-1.5028,-1.5028,-1.5034,-1.5046,-1.5034,-1.5034,-1.4962,-1.3339,-1.2638,-1.2535,-1.1619,-1.1247,-1.1242,-1.0784,-1.0605,-1.06,0.0,0.0,0.0,-0.6295,-0.6583,-0.707,-0.778,-0.8778,-0.9968,-1.1411,-1.2227,-1.3023,-1.4081,-1.3588,-1.3421,-1.3838,-1.3486,-1.335,-1.3604,-1.4163,-1.4127,-1.3382,-1.3542,-1.3118,-1.1985,-1.2469,-1.2591,-1.225,-1.28,-1.3066,-1.3075,-1.3222,-1.3296,-1.3296,-1.3296,-1.3057,-1.2645,-1.2567,-1.2534,-1.2571,-1.1636,-1.1508,0.0,0.0,0.0,0.0,0.0,0.0,0.0,0.0,0.0,0.0,0.0,0.0,0.0,0.0,0.0,0.0,0.0,0.0,0.0,0.0,0.0,0.0,0.0,0.0,0.0,0.0,0.0,0.0,0.0,0.0,0.0,0.0,0.0,0.0,0.0,0.0,0.0,-1.1605,-1.1702,0.0,-1.2662,-1.2725,-1.2702,-1.2872,-1.2881,-1.3025,-1.3218,-1.364,-1.4008,-1.428,-1.4539,-1.46,-1.4431,-1.4618,-1.4714,-1.4714,-1.4811,-1.4944,-1.5107,-1.5107,-1.5197,-1.5348,-1.5179,-1.4999,-1.47,-1.3668,-1.3166,-1.3161,-1.2464,-1.1969,-1.1572,-1.1473,-1.1373,-1.1373,0.0,0.0,0.0,-0.6307,-0.6739,-0.7347,-0.8091,-0.9391,-1.069,-1.1769,-1.2842,-1.3732,-1.4442,-1.4045,-1.4048,-1.4718,-1.4361,-1.4303,-1.4712,-1.5109,-1.4952,-1.4161,-1.3761,-1.3148,-1.2214,-1.2791,-1.3041,-1.2874,-1.3296,-1.3635,-1.391,-1.4038,-1.4249,-1.4506,-1.4506,-1.4588,-1.4662,-1.3859,-1.3423,-1.3213,-1.2269,-1.199,-1.2086,0.0,0.0,0.0,0.0,0.0,0.0,0.0,0.0,0.0,0.0,0.0,0.0,0.0,0.0,0.0,0.0,0.0,0.0,0.0,0.0,0.0,0.0,0.0,0.0,0.0,0.0,0.0,0.0,0.0,0.0,0.0,0.0,0.0,0.0,-1.139,-1.1874,-1.2318,-1.2488,-1.2751,-1.3374,-1.3496,-1.3603,-1.3773,-1.3853,-1.396,-1.4051,-1.4298,-1.4564,-1.4841,-1.5016,-1.5065,-1.498,-1.5071,-1.5113,-1.5113,-1.5113,-1.5203,-1.5372,-1.5463,-1.5602,-1.5759,-1.568,-1.5423,-1.4922,-1.4226,-1.38,-1.3493,-1.263,-1.2127,-1.1817,-1.1817,-1.1817,-1.1714,0.0,0.0,0.0,-0.6307,-0.6763,-0.7524,-0.8633,-0.9683,-1.0768,-1.1883,-1.2902,-1.3529,-1.3541,-1.4012,-1.4313,-1.4289,-1.3969,-1.3905,-1.4284,-1.4416,-1.4216,-1.3678,-1.3422,-1.3198,-1.2941,-1.3318,-1.3432,-1.3351,-1.3745,-1.4359,-1.5166,-1.5551,-1.6147,-1.6908,-1.6908,-1.7119,-1.7323,-1.582,-1.4461,-1.3305,-1.2892,-1.2534,-1.2183,0.0,0.0,0.0,0.0,0.0,0.0,0.0,0.0,0.0,0.0,0.0,0.0,0.0,0.0,0.0,0.0,0.0,0.0,0.0,0.0,0.0,0.0,0.0,0.0,0.0,0.0,0.0,0.0,0.0,0.0,0.0,0.0,0.0,-1.1452,-1.193,-1.2394,-1.2923,-1.3069,-1.326,-1.3513,-1.3785,-1.4045,-1.428,-1.4564,-1.4835,-1.5083,-1.4871,-1.4859,-1.5125,-1.5131,-1.5252,-1.5511,-1.5771,-1.5903,-1.5903,-1.591,-1.5916,-1.5922,-1.6181,-1.6296,-1.6308,-1.6585,-1.6239,-1.5654,-1.5106,-1.4409,-1.3472,-1.2298,-1.1841,-1.1836,-1.1836,-1.1836,-1.1733,0.0,0.0,-0.6325,-0.6295,-0.7383,-0.8368,-0.867,-1.0314,-1.1919,-1.2962,-1.3726,-1.4256,-1.4574,-1.4701,-1.467,-1.4325,-1.4516,-1.4678,-1.4778,-1.5531,-1.5694,-1.4996,-1.4064,-1.3468,-1.3336,-1.3626,-1.4068,-1.4607,-1.5001,-1.5606,-1.6413,-1.6523,-1.6688,-1.6908,-1.6908,-1.6824,-1.6616,-1.6156,-1.5563,-1.4841,-1.3346,-1.2402,-1.1754,0.0,0.0,0.0,0.0,0.0,0.0,0.0,0.0,0.0,0.0,0.0,0.0,0.0,0.0,0.0,0.0,0.0,0.0,0.0,0.0,0.0,0.0,0.0,0.0,0.0,0.0,0.0,0.0,0.0,0.0,0.0,-1.2047,-1.2373,-1.2109,-1.2535,-1.3003,-1.3343,-1.3694,-1.4002,-1.4075,-1.4503,-1.4642,-1.4322,-1.4733,-1.495,-1.4829,-1.5119,-1.5403,-1.5662,-1.5674,-1.571,-1.5783,-1.6042,-1.6175,-1.6175,-1.638,-1.6477,-1.6483,-1.6549,-1.6585,-1.6585,-1.6204,-1.5665,-1.5106,-1.4432,-1.3828,-1.3173,-1.274,-1.2408,-1.2266,-1.2266,-1.2266,-1.2178,0.0,-0.629,-0.636,-0.6307,-0.7645,-0.8682,-0.8487,-1.0509,-1.2265,-1.2851,-1.3593,-1.415,-1.4345,-1.4586,-1.4586,-1.4313,-1.4742,-1.5193,-1.5636,-1.5951,-1.5724,-1.4839,-1.4146,-1.3765,-1.3645,-1.4326,-1.4873,-1.5349,-1.5918,-1.6615,-1.7413,-1.7413,-1.7524,-1.7631,-1.7631,-1.74,-1.7011,-1.6698,-1.6314,-1.5761,-1.4338,-1.3105,-1.2099,-1.1747,-1.0743,-0.9525,-0.9525,-0.8971,-0.8267,-0.8311,0.0,0.0,0.0,0.0,0.0,0.0,0.0,0.0,0.0,0.0,0.0,0.0,0.0,0.0,0.0,0.0,0.0,0.0,0.0,0.0,0.0,0.0,0.0,0.0,-1.2789,-1.3194,-1.3151,-1.3417,-1.367,-1.3827,-1.431,-1.4636,-1.4636,-1.5022,-1.5143,-1.4823,-1.5191,-1.5366,-1.5215,-1.5493,-1.5783,-1.6048,-1.6054,-1.6109,-1.6229,-1.638,-1.6453,-1.6459,-1.6622,-1.67,-1.6706,-1.6815,-1.675,-1.6415,-1.6166,-1.5517,-1.4714,-1.4366,-1.3852,-1.3183,0.0,0.0,0.0,0.0,-1.2701,-1.2608,-0.6349,-0.6437,-0.6443,-0.6325,-0.7687,-0.8643,-0.8174,-1.0439,-1.2189,-1.2099,-1.2972,-1.3568,-1.3493,-1.4024,-1.4361,-1.4289,-1.479,-1.5516,-1.6512,-1.5841,-1.4974,-1.4074,-1.4093,-1.4015,-1.3956,-1.5093,-1.5735,-1.5826,-1.6642,-1.7458,-1.8256,-1.8181,-1.8344,-1.87,-1.8612,-1.8371,-1.7853,-1.7204,-1.6715,-1.6292,-1.5586,-1.4324,-1.2825,-1.2066,-1.0883,-0.9531,-0.944,-0.9088,-0.8645,-0.8411,0.0,0.0,0.0,0.0,0.0,0.0,0.0,0.0,0.0,0.0,0.0,0.0,0.0,0.0,0.0,0.0,0.0,0.0,0.0,0.0,0.0,0.0,0.0,0.0,-1.3459,-1.4008,-1.4304,-1.4395,-1.4419,-1.4389,-1.4841,-1.5155,-1.5155,-1.539,-1.5547,-1.5547,-1.5789,-1.5934,-1.5934,-1.5964,0.0,0.0,0.0,-1.6459,-1.6742,-1.6748,-1.6761,-1.6791,-1.6791,-1.6791,-1.6797,-1.7032,-1.6801,-1.6147,-1.6362,-1.5758,-1.4705,-1.4585,-1.4123,-1.3466,-1.3178,-1.3065,-1.3065,-1.3065,-1.3065,-1.3069,-0.6152,-0.6296,-0.6402,-0.6384,-0.7724,-0.8656,-0.8186,-1.0467,-1.2222,-1.2045,-1.3007,-1.363,-1.3493,-1.4321,-1.4718,-1.4325,-1.5127,-1.5912,-1.6536,-1.543,-1.4982,-1.5552,-1.4501,-1.4096,-1.4378,-1.5249,-1.601,-1.667,-1.7486,-1.8293,-1.9072,-1.8707,-1.8638,-1.87,-1.8282,-1.7878,-1.7546,-1.7398,-1.7001,-1.6581,-1.615,-1.5106,-1.358,-1.2706,-1.1597,-1.0509,-0.9781,-0.9175,-0.8669,-0.8621,-0.8603,-0.8597,-0.8543,-0.8531,0.0,0.0,0.0,0.0,0.0,0.0,0.0,0.0,0.0,0.0,0.0,0.0,0.0,0.0,0.0,0.0,0.0,0.0,0.0,-1.3839,-1.3942,-1.4081,-1.457,-1.5004,-1.5185,-1.4974,-1.5234,-1.5421,-1.5421,-1.5662,-1.5813,-1.5813,-1.6072,-1.6217,-1.6205,-1.6416,-1.6567,-1.6616,-1.6622,-1.6748,-1.7014,-1.7014,-1.7123,-1.7334,-1.7334,0.0,-1.7334,-1.7382,-1.7162,-1.664,-1.6211,-1.5735,-1.517,-1.4557,-1.429,-1.4062,-1.3343,-1.3065,-1.3065,-1.3065,-1.3065,-1.3093,-0.6272,-0.6355,-0.6402,-0.6437,-0.78,-0.8739,-0.8218,-1.0314,-1.2008,-1.2095,-1.2645,-1.3152,-1.3545,-1.4244,-1.4619,-1.438,-1.5464,-1.6097,-1.5856,-1.586,-1.5663,-1.5233,-1.49,-1.4676,-1.4506,-1.5689,-1.6496,-1.6908,-1.8119,-1.877,-1.9002,-1.8772,-1.846,-1.8049,-1.7797,-1.7473,-1.7066,-1.7066,-1.6902,-1.6714,-1.654,-1.5754,-1.4679,-1.3422,-1.2168,-1.0905,-1.0293,-0.9874,-0.943,-0.9166,-0.8986,-0.8849,-0.8723,-0.8681,-0.8681,0.0,0.0,0.0,0.0,0.0,0.0,0.0,0.0,0.0,0.0,0.0,0.0,0.0,0.0,-1.2602,-1.2868,0.0,-1.3676,-1.4208,-1.4304,-1.4497,-1.5034,-1.5221,-1.5252,-1.5125,-1.5457,-1.5747,-1.5879,-1.6006,-1.6145,-1.6284,-1.6423,-1.6501,-1.6489,-1.6748,-1.6893,-1.6893,-1.7026,-1.7153,-1.7286,-1.7418,-1.7545,-1.7678,-1.7823,-1.7889,-1.7889,-1.7889,-1.7467,-1.6475,-1.6235,-1.5566,-1.4808,-1.4433,-1.4312,-1.427,-1.3854,-1.3688,-1.3688,-1.3688,-1.3688,-1.3703,-0.6458,-0.646,-0.642,-0.6478,-0.7798,-0.8698,-0.8271,-1.003,-1.1583,-1.1994,-1.22,-1.2626,-1.3447,-1.3998,-1.4323,-1.4542,-1.5712,-1.6099,-1.5267,-1.6306,-1.6269,-1.4809,-1.5371,-1.5449,-1.4852,-1.6114,-1.688,-1.7047,-1.8432,-1.9006,-1.8772,-1.8612,-1.821,-1.7473,-1.731,-1.7066,-1.673,-1.673,-1.673,-1.673,-1.673,-1.6319,-1.5561,-1.4209,-1.2766,-1.1383,-1.0972,-1.0707,-1.0417,-0.9928,-0.9634,-0.9476,-0.9264,-0.9136,-0.9136,-0.9136,-0.9172,0.0,0.0,0.0,0.0,0.0,0.0,0.0,0.0,-1.1805,-1.2216,-1.2427,-1.2898,-1.3338,-1.355,-1.3978,-1.4334,-1.4437,-1.4642,-1.4944,-1.536,-1.533,-1.5264,-1.5264,-1.568,-1.6048,-1.626,-1.6332,-1.6477,-1.6754,-1.6779,-1.6797,-1.6851,-1.705,-1.7189,-1.7243,-1.7449,-1.7581,-1.7636,-1.7853,-1.7956,-1.7956,-1.8185,-1.8294,-1.8294,-1.8294,-1.7572,-1.6366,-1.6159,-1.5428,-1.4435,-1.4435,-1.4435,-1.4435,-1.4435,-1.4435,-1.4421,-1.434,-1.4312,-1.4312,-0.6535,-0.649,-0.642,-0.6488,-0.7491,-0.8283,-0.8289,-0.9704,-1.0965,-1.1424,-1.1976,-1.2477,-1.292,-1.3472,-1.4144,-1.5028,-1.5591,-1.5852,-1.5748,-1.6132,-1.6272,-1.6115,-1.6189,-1.6187,-1.6083,-1.6348,-1.6834,-1.752,-1.8026,-1.8614,-1.9222,-1.8434,-1.804,-1.7878,-1.7139,-1.6738,-1.673,-1.673,-1.673,-1.673,-1.673,-1.6319,-1.5643,-1.4864,-1.3811,-1.2569,-1.1682,-1.1262,-1.1015,-1.0954,-1.0918,-1.0882,-1.0852,-1.0846,-1.0846,-1.0846,-1.1021,-1.1166,-1.0912,-1.0864,-1.1027,-1.16,-1.1763,-1.1914,0.0,-1.2765,-1.2994,-1.3025,-1.3453,-1.3827,-1.3857,-1.4099,-1.4455,-1.4938,-1.504,-1.5083,-1.5143,-1.5529,-1.5801,-1.5801,-1.606,-1.6247,-1.6278,-1.6507,-1.6761,-1.7026,-1.705,-1.7153,-1.7382,-1.7424,-1.7545,-1.7781,-1.7817,-1.795,-1.8197,-1.8233,-1.8245,-1.8251,-1.8275,-1.8294,-1.8294,-1.8294,-1.7671,-1.6498,-1.5555,-1.499,-1.4865,-1.4865,-1.4865,-1.4865,-1.4865,-1.4865,-1.4818,-1.4449,-1.4312,-1.4312,-0.6564,-0.6517,-0.6483,-0.6552,-0.7422,-0.8165,-0.8277,-0.9403,-1.0418,-1.094,-1.1515,-1.2077,-1.256,-1.3309,-1.4235,-1.5249,-1.5417,-1.5586,-1.5901,-1.629,-1.6425,-1.6305,-1.6574,-1.6632,-1.6301,-1.6789,-1.7129,-1.7311,-1.8463,-1.8862,-1.869,-1.8846,-1.8505,-1.7635,-1.731,-1.6984,-1.673,-1.673,-1.673,-1.673,-1.673,-1.6319,-1.565,-1.5401,-1.449,-1.3251,-1.232,-1.1811,0.0,-1.1407,-1.1244,-1.1111,-1.1111,-1.1111,-1.1111,-1.1111,-1.131,-1.157,-1.1757,-1.1926,-1.2131,-1.2524,-1.2741,-1.291,-1.3127,-1.3266,-1.3393,-1.355,-1.3876,-1.4183,-1.4346,-1.4594,-1.4896,-1.5276,-1.5209,-1.5215,-1.5517,-1.5753,-1.5946,-1.6097,-1.6495,-1.6754,-1.6754,-1.6857,-1.7038,-1.7298,-1.7322,-1.7436,-1.7696,-1.7708,-1.7835,-1.8106,-1.8118,-1.8173,-1.8294,-1.8444,-1.8523,-1.8523,-1.8674,-1.8752,-1.8746,-1.8362,-1.7401,-1.6224,-1.5284,-1.4931,-1.4931,-1.4931,-1.4931,-1.4931,-1.4931,-1.4931,-1.4912,-1.4737,-1.4671,-1.4671,-0.6552,-0.6522,-0.6522,-0.6599,-0.7454,-0.8165,-0.8277,-0.9215,-1.0094,-1.0618,-1.1086,-1.1625,-1.2328,-1.3303,-1.4199,-1.4913,-1.5122,-1.5356,-1.5745,-1.6291,-1.6539,-1.6408,-1.6814,-1.6938,-1.6718,-1.7,-1.7245,-1.7388,-1.8489,-1.8752,-1.8216,-1.8658,-1.838,-1.7403,-1.7096,-1.6836,-1.6613,-1.6444,-1.6444,-1.6444,-1.6444,-1.6113,-1.5708,-1.5457,-1.486,-1.4011,-1.3048,-1.2465,-1.2107,-1.192,-1.1721,-1.1552,-1.1552,-1.1606,-1.1667,-1.1667,-1.186,-1.2161,-1.2542,-1.2783,-1.2976,-1.3181,-1.3375,-1.3513,-1.3513,-1.3568,-1.3676,-1.387,-1.4177,-1.4473,-1.4678,-1.4992,-1.5252,-1.5372,-1.5354,-1.5433,-1.5741,-1.5903,-1.6097,-1.6362,-1.6809,-1.7123,-1.7195,-1.7201,-1.728,-1.7473,-1.7551,-1.7678,-1.7865,-1.795,-1.8118,-1.839,-1.8402,-1.8438,-1.8511,-1.8698,-1.8794,-1.8794,-1.8982,-1.9078,-1.9078,-1.8168,-1.713,-1.5974,-1.5192,-1.4931,-1.4931,-1.4931,-1.4931,-1.4931,-1.4931,-1.4931,-1.4931,-1.4931,-1.4931,-1.4931,-0.651,-0.65,-0.6512,-0.6582,-0.7493,-0.823,-0.8298,-0.9215,-1.0094,-1.0618,-1.0719,-1.1144,-1.2291,-1.3303,-1.389,-1.3927,-1.4722,-1.521,-1.5222,-1.6086,-1.6584,-1.6596,-1.6858,-1.7229,-1.7744,-1.6771,-1.6874,-1.819,-1.7502,-1.7541,-1.8309,-1.743,-1.7235,-1.7532,-1.6306,-1.593,-1.6275,-1.5875,-1.5705,-1.5705,-1.5705,-1.5713,-1.5628,-1.5002,-1.4892,-1.505,-1.4038,-1.3203,-1.2681,-1.2674,-1.2662,-1.2656,-1.2656,-1.2843,-1.3061,-1.3061,-1.3248,-1.3459,-1.3471,-1.3483,-1.3495,-1.3501,-1.3507,-1.3513,-1.3513,-1.3713,-1.3894,-1.3906,-1.4328,-1.4708,-1.4714,-1.5143,-1.5409,-1.5161,-1.5541,-1.5783,-1.5547,-1.5946,-1.6374,-1.6658,-1.6923,-1.7195,-1.7449,-1.7473,-1.7473,-1.7485,-1.7714,-1.7865,-1.7871,-1.8131,-1.8402,-1.8668,-1.8674,-1.8794,-1.9048,-1.906,-1.906,-1.906,-1.9072,-1.9078,-1.9072,-1.7653,-1.6613,-1.5974,-1.5192,-1.4931,-1.4931,-1.4931,-1.4931,-1.4931,-1.4931,-1.4931,-1.4931,-1.4931,-1.4931,-1.4931,-0.6493,-0.6505,-0.6535,-0.6582,-0.7526,-0.8277,-0.8298,-0.9215,-0.9968,-1.0157,-1.0468,0.0,0.0,0.0,0.0,0.0,-1.4212,-1.4455,-1.4783,-1.5344,-1.5772,-1.6044,-1.6513,-1.6895,-1.7267,-1.6712,-1.6766,-1.7323,-1.7562,-1.7758,-1.7994,-1.8314,-1.7979,-1.7153,-1.651,-1.5956,-1.5519,-1.5137,-1.499,-1.499,-1.499,-1.499,-1.4917,-1.4688,-1.4462,-1.4125,0.0,-1.3561,-1.3392,-1.3392,-1.3045,-1.2705,-1.2705,-1.2898,-1.3194,-1.3544,-1.3707,-1.3809,-1.3984,-1.3906,-1.3773,-1.3773,-1.3773,-1.3773,-1.3773,-1.3978,-1.422,-1.4407,-1.4588,-1.4823,-1.5173,-1.524,-1.5324,-1.5584,-1.5626,-1.5722,-1.5982,-1.6332,-1.6658,-1.693,-1.7195,-1.7382,-1.7473,-1.7485,-1.7551,-1.7732,-1.7823,-1.8034,-1.839,-1.8505,-1.8674,-1.8933,-1.8945,-1.8988,-1.9078,-1.9078,-1.9078,-1.9078,-1.9078,-1.8559,-1.7653,-1.7265,-1.6359,-1.5323,-1.5062,-1.4931,-1.4931,-1.4931,-1.4931,-1.4931,-1.4931,-1.4931,-1.4931,-1.4931,-1.4931,-1.4931,-0.6493,-0.6654,-0.6802,-0.6869,-0.7834,0.0,0.0,0.0,0.0,0.0,0.0,0.0,0.0,0.0,0.0,0.0,0.0,-1.3989,-1.4258,-1.4694,-1.5066,-1.5492,-1.584,-1.631,-1.6823,-1.6592,-1.66,-1.6962,-1.7245,-1.732,-1.7222,-1.7735,-1.7539,-1.6812,-1.6478,-1.5959,-1.53,-1.4877,-1.4684,-1.476,-1.4363,-1.4418,-1.4537,-1.4355,-1.4057,0.0,-1.3803,-1.3758,-1.3628,-1.3434,-1.3226,-1.3052,-1.279,-1.2898,-1.3242,-1.3863,-1.3978,-1.3942,-1.4111,-1.4099,-1.402,-1.393,-1.3906,-1.393,-1.402,-1.4177,-1.4401,-1.4781,-1.4932,-1.5071,-1.5312,-1.5372,-1.5439,-1.559,-1.5704,-1.5897,-1.6229,-1.6604,-1.6905,-1.7074,-1.7322,-1.7485,-1.7485,-1.7569,-1.769,-1.7859,-1.8052,-1.8318,-1.8668,-1.877,-1.8903,-1.9066,-1.9078,-1.9078,-1.9078,-1.9078,-1.9078,-1.9078,-1.8816,-1.8168,-1.7001,-1.6742,-1.5969,-1.4931,-1.4931,-1.4931,-1.4931,-1.4931,-1.4931,-1.4931,-1.4931,-1.4931,-1.4931,-1.4931,-1.4931,-1.4931,-0.6493,-0.6933,-0.7328,0.0,0.0,0.0,0.0,0.0,0.0,0.0,0.0,0.0,0.0,0.0,0.0,0.0,0.0,0.0,-1.3668,-1.4094,-1.451,-1.4905,-1.4977,-1.548,-1.6476,-1.6291,-1.642,-1.6985,-1.6439,-1.621,-1.6182,-1.5945,-1.6011,-1.6415,-1.5989,-1.5785,-1.5669,-1.4965,-1.4798,-1.4849,-1.3886,-1.3878,-1.4403,-1.3727,-1.368,-1.3982,-1.3997,-1.3816,-1.3506,-1.2953,-1.3147,-1.3548,-1.2906,-1.2928,-1.3296,-1.4069,-1.4111,-1.3912,-1.3924,-1.4087,-1.4201,-1.3966,-1.3906,-1.3972,-1.4238,-1.4322,-1.4491,-1.5022,-1.5324,-1.5427,-1.5191,-1.5529,-1.5692,-1.5228,-1.5765,-1.6254,-1.6296,-1.6748,-1.708,-1.7111,-1.7334,-1.7485,-1.7485,-1.7732,-1.7895,-1.7895,-1.8384,-1.8692,-1.8704,-1.8939,-1.9078,-1.9078,-1.9078,-1.9078,-1.9078,-1.9078,-1.9078,-1.9072,-1.8296,-1.7647,-1.7007,-1.6359,-1.5583,-1.4931,-1.4931,-1.4931,-1.4931,-1.4931,-1.4931,-1.4931,-1.4931,-1.4941,-1.495,-1.495,-1.4955,-1.4964,0.0,0.0,0.0,0.0,0.0,0.0,0.0,0.0,0.0,0.0,0.0,0.0,0.0,0.0,0.0,0.0,0.0,0.0,-1.3104,-1.357,-1.3861,-1.3891,-1.4581,-1.5133,-1.5396,-1.5614,-1.5927,-1.6396,-1.5916,-1.5863,-1.6182,-1.5946,-1.57,-1.5446,-1.5087,-1.4759,-1.4373,-1.3464,-1.3115,-1.311,-1.2327,-1.2131,-1.2274,-1.2091,-1.2083,-1.2194,-1.2456,-1.2822,-1.3194,-1.3184,-1.2928,-1.2769,-1.3121,-1.3357,-1.3532,-1.4123,-1.4111,-1.3948,-1.4141,-1.396,-1.3749,-1.3876,-1.3906,-1.3972,-1.4238,-1.4612,-1.4992,-1.533,-1.5451,-1.5535,-1.5668,-1.5481,-1.539,-1.565,-1.5692,-1.591,-1.6507,-1.6712,-1.6948,-1.7334,-1.7443,-1.7485,-1.7485,-1.7913,-1.8185,-1.8185,-1.8499,-1.877,-1.8963,-1.9042,-1.9078,-1.9078,-1.9078,-1.9078,-1.9078,-1.9078,-1.9078,-1.9072,-1.8296,-1.7647,-1.7007,-1.6359,-1.5583,-1.4931,-1.4931,-1.4931,-1.4931,-1.4931,-1.4931,-1.4931,-1.4931,-1.5026,-1.5153,-1.5153,-1.5262,-1.5399,0.0,0.0,0.0,0.0,0.0,0.0,0.0,0.0,0.0,0.0,0.0,0.0,0.0,0.0,0.0,0.0,0.0,0.0,0.0,-1.3447,-1.363,-1.3531,-1.4289,-1.4694,-1.4694,-1.5083,-1.5294,-1.5365,-1.5452,-1.552,-1.5542,-1.5706,-1.5598,-1.5297,-1.5286,-1.5008,-1.444,-1.3575,-1.323,0.0,0.0,-1.1857,-1.2099,-1.1663,-1.1487,-1.1511,-1.171,-1.1933,-1.2216,-1.2804,-1.2798,-1.2608,-1.3296,-1.3435,-1.3471,-1.4111,-1.4032,-1.3767,-1.3912,-1.3827,-1.3694,-1.3725,-1.3821,-1.3972,-1.4238,-1.4443,-1.4654,-1.492,-1.5071,-1.5161,-1.5185,-1.524,-1.5342,-1.5517,-1.5716,-1.6,-1.6453,-1.6718,-1.6984,-1.728,-1.7412,-1.7485,-1.7485,-1.7974,-1.8294,-1.8294,-1.8644,-1.8921,-1.9066,-1.9078,-1.9078,-1.9078,-1.9078,-1.9078,-1.9078,-1.9078,-1.9078,-1.9072,-1.8039,-1.7389,-1.7007,-1.5969,-1.5323,-1.4931,-1.4931,-1.4983,-1.5063,-1.5063,-1.512,-1.521,-1.521,-1.5276,-1.5375,-1.5375,-1.5456,-1.556,0.0,0.0,0.0,0.0,0.0,0.0,0.0,0.0,0.0,-1.0194,-1.0546,-1.0844,-1.0919,-1.1826,0.0,0.0,0.0,0.0,0.0,0.0,-1.357,-1.3496,-1.3942,-1.418,-1.418,-1.467,-1.4718,-1.4289,-1.5022,-1.5183,-1.4716,-1.5372,-1.5631,-1.5452,-1.5841,-1.5629,-1.5007,-1.428,-1.4048,-1.4066,-1.2453,-1.22,-1.2627,0.0,-1.1408,-1.1368,-1.1455,-1.1249,-1.1148,-1.2226,-1.2505,-1.2656,-1.3266,-1.3332,-1.3314,-1.4039,-1.39,-1.3519,-1.3556,-1.3682,-1.3755,-1.3562,-1.3682,-1.393,-1.4226,-1.4123,-1.4045,-1.434,-1.46,-1.4684,-1.4401,-1.4926,-1.5318,-1.5089,-1.5656,-1.6151,-1.6217,-1.6694,-1.705,-1.7086,-1.7322,-1.7485,-1.7485,-1.7974,-1.8294,-1.8294,-1.8776,-1.9078,-1.9078,-1.9078,-1.9078,-1.9078,-1.9078,-1.9078,-1.9078,-1.9078,-1.9072,-1.8944,-1.7653,-1.7001,-1.6872,-1.5448,-1.4945,-1.4974,-1.4974,-1.5087,-1.5276,-1.5276,-1.5389,-1.556,-1.556,-1.5578,-1.5602,-1.5602,-1.5616,-1.5645,0.0,0.0,0.0,0.0,0.0,0.0,0.0,0.0,0.0,0.0,-1.1374,-1.1613,0.0,0.0,0.0,0.0,0.0,0.0,0.0,0.0,0.0,-1.2949,-1.3459,-1.3713,-1.3638,-1.4156,-1.4385,-1.4289,-1.4654,-1.4787,-1.4704,-1.5048,-1.5188,-1.5154,-1.5013,-1.4907,-1.4671,-1.3537,-1.3026,-1.3001,-1.1866,-1.1343,-1.1234,-1.105,-1.0853,0.0,-1.1289,-1.1398,-1.1324,-1.204,-1.2019,-1.1908,-1.2886,-1.3308,-1.3513,-1.387,-1.3755,-1.3562,-1.3779,-1.3556,-1.3302,-1.3471,-1.355,-1.3707,-1.4183,-1.4262,-1.437,-1.4865,-1.501,-1.4956,-1.469,-1.4757,-1.4835,-1.4793,-1.5083,-1.5463,-1.5897,-1.6423,-1.6845,-1.7062,-1.7322,-1.7485,-1.7485,-1.7974,-1.8294,-1.8294,-1.8776,-1.9078,-1.9078,-1.9078,-1.9078,-1.9078,-1.9078,-1.9078,-1.9078,-1.9078,-1.8816,-1.8168,-1.7389,-1.6748,-1.6099,-1.5323,-1.5021,-1.5182,-1.5182,-1.5304,-1.5503,-1.5503,-1.5526,-1.556,-1.556,-1.5663,-1.5805,-1.5805,-1.5923,-1.6075,0.0,0.0,0.0,0.0,0.0,0.0,0.0,-1.1462,-1.2015,-1.2015,-1.2266,-1.2429,-1.2416,-1.2634,-1.291,0.0,0.0,0.0,0.0,0.0,0.0,-1.247,-1.2935,-1.3277,-1.3493,-1.3746,-1.3879,-1.3879,0.0,-1.4356,-1.4078,-1.4747,-1.4981,-1.4905,-1.4903,-1.4834,-1.4605,-1.3494,-1.3016,-1.2919,-1.1909,-1.1418,-1.1276,-1.1023,-1.0718,0.0,-1.1249,-1.1107,-1.0753,-1.1833,-1.178,-1.1498,-1.2572,-1.3188,-1.3568,-1.3827,-1.3815,-1.3749,-1.3876,-1.3725,-1.3562,-1.3688,-1.3719,-1.3785,-1.4039,-1.3882,-1.3761,-1.402,-1.4075,-1.4039,-1.3912,-1.4111,-1.434,-1.4479,-1.4841,-1.5246,-1.5632,-1.6272,-1.6748,-1.6875,-1.7243,-1.7485,-1.7485,-1.7974,-1.8294,-1.8294,-1.8776,-1.9078,-1.9078,-1.9078,-1.9078,-1.9078,-1.9078,-1.9078,-1.9078,-1.9078,-1.8688,-1.8033,-1.726,-1.6618,-1.5974,-1.5303,-1.5144,-1.5238,-1.5352,-1.5522,-1.5715,-1.5715,-1.5782,-1.5886,-1.5886,-1.5942,-1.6027,-1.6027,-1.6093,-1.6183,0.0,0.0,0.0,0.0,0.0,0.0,0.0,-1.1864,-1.258,-1.258,-1.3035,-1.3245,-1.2806,-1.301,-1.3198,0.0,0.0,0.0,0.0,0.0,0.0,0.0,-1.2436,-1.2901,-1.3481,0.0,0.0,-1.3505,-1.3915,0.0,0.0,0.0,0.0,0.0,-1.4734,-1.4653,-1.4384,-1.3356,-1.2936,0.0,0.0,-1.1603,-1.1513,0.0,0.0,0.0,0.0,-1.0861,-1.0324,-1.1528,-1.1605,-1.1426,-1.2174,-1.2904,-1.3495,-1.3809,-1.387,-1.3833,-1.3888,-1.3863,-1.3821,-1.3821,-1.3821,-1.3821,-1.3821,-1.3501,-1.3212,-1.3212,-1.3212,-1.3188,-1.3133,-1.3507,-1.3888,-1.4093,-1.4636,-1.5113,-1.5378,-1.6157,-1.67,-1.67,-1.7165,-1.7485,-1.7485,-1.7974,-1.8294,-1.8294,-1.8776,-1.9078,-1.9078,-1.9078,-1.9078,-1.9078,-1.9078,-1.9078,-1.9078,-1.8944,-1.8553,-1.7776,-1.7136,-1.6514,-1.5783,-1.5423,-1.5281,-1.5375,-1.555,-1.5739,-1.5928,-1.5928,-1.6027,-1.6183,-1.6183,-1.6183,-1.6183,-1.6183,-1.6183,-1.6183,0.0,0.0,0.0,0.0,0.0,0.0,0.0,-1.2422,-1.3123,-1.3123,-1.3634,-1.3984,-1.3934,-1.3496,-1.3198,0.0,0.0,0.0,0.0,0.0,0.0,0.0,0.0,0.0,0.0,0.0,0.0,-1.3505,-1.3541,0.0,0.0,0.0,0.0,0.0,0.0,-1.373,-1.3648,-1.2487,0.0,0.0,0.0,0.0,0.0,0.0,0.0,0.0,0.0,-1.0902,-1.0754,-1.0926,-1.1396,-1.1789,-1.1689,-1.2337,-1.326,-1.3761,-1.3737,-1.3604,-1.3839,-1.3731,-1.355,-1.355,-1.355,-1.355,-1.355,-1.3513,-1.3477,-1.3477,-1.3477,-1.3405,-1.3163,-1.3357,-1.3556,-1.3586,-1.4244,-1.4841,-1.5107,-1.6042,-1.67,-1.67,-1.7165,-1.7485,-1.7485,-1.7974,-1.8294,-1.8294,-1.8776,-1.9078,-1.9078,-1.9078,-1.9078,-1.9078,-1.9078,-1.9078,-1.9078,-1.8425,-1.7776,-1.713,-1.6359,-1.5813,-1.5205,-1.5224,-1.5441,-1.58,-1.5824,-1.5956,-1.6155,-1.6155,-1.6164,-1.6183,-1.6183,-1.6183,-1.6183,-1.6183,-1.6183,-1.6183,0.0,0.0,0.0,0.0,0.0,0.0,-1.1996,-1.271,-1.3198,-1.3198,-1.3709,-1.4085,-1.4085,-1.3896,-1.3722,-1.3627,0.0,0.0,0.0,0.0,0.0,0.0,0.0,0.0,0.0,0.0,-1.3131,-1.3975,-1.3336,0.0,0.0,0.0,0.0,0.0,0.0,-1.3715,-1.354,-1.2531,0.0,0.0,0.0,0.0,0.0,0.0,0.0,0.0,0.0,0.0,-1.0797,-1.089,-1.1477,-1.2158,-1.1809,-1.2412,-1.3168,-1.3367,-1.3586,-1.3743,-1.3682,-1.3592,-1.3513,-1.3513,-1.3513,-1.3513,-1.3513,-1.3393,-1.3278,-1.3278,-1.3145,-1.2994,-1.2892,-1.2958,-1.3133,-1.3465,-1.4051,-1.4612,-1.5046,-1.603,-1.67,-1.67,-1.7165,-1.7485,-1.7485,-1.7974,-1.8426,-1.874,-1.8957,-1.9078,-1.9078,-1.9078,-1.9078,-1.9078,-1.9078,-1.8944,-1.8425,-1.8168,-1.7518,-1.6364,-1.6242,-1.582,-1.5238,-1.5493,-1.5701,-1.5867,-1.5994,-1.6103,-1.6183,-1.6183,-1.6183,-1.6183,-1.6183,-1.6183,-1.6183,-1.6183,-1.6183,-1.6183,0.0,0.0,0.0,0.0,0.0,-1.1356,-1.211,-1.2768,-1.3226,-1.3283,-1.3912,-1.4387,-1.4563,-1.4576,-1.4438,-1.4138,-1.3481,0.0,0.0,0.0,0.0,0.0,0.0,0.0,0.0,0.0,-1.3312,-1.4048,-1.3155,-1.2782,0.0,0.0,-1.3577,-1.3746,0.0,0.0,0.0,0.0,0.0,0.0,0.0,0.0,0.0,0.0,0.0,0.0,0.0,0.0,0.0,0.0,0.0,-1.2018,-1.1639,-1.2092,-1.2826,-1.3124,-1.3447,-1.3652,-1.3544,-1.3513,-1.3513,-1.3513,-1.3513,-1.3471,-1.3308,-1.3133,-1.2958,-1.2801,-1.2674,-1.259,-1.259,-1.265,-1.2856,-1.3326,-1.3839,-1.437,-1.4914,-1.591,-1.661,-1.6688,-1.7165,-1.7485,-1.7485,-1.7974,-1.8511,-1.9036,-1.9078,-1.9078,-1.9078,-1.9078,-1.9078,-1.9078,-1.9078,-1.8816,-1.8296,-1.7905,-1.726,-1.6229,-1.6069,-1.5672,-1.5342,-1.5697,-1.5895,-1.5966,-1.6117,-1.6183,-1.6183,-1.6183,-1.6183,-1.6183,-1.6183,-1.6183,-1.6183,-1.6183,-1.6183,-1.6183,0.0,0.0,0.0,0.0,0.0,0.0,-1.1727,-1.2586,-1.3281,-1.3458,-1.4298,-1.5104,-1.5618,-1.568,-1.5386,-1.4666,-1.3667,0.0,0.0,0.0,0.0,0.0,0.0,0.0,0.0,0.0,-1.3505,-1.3505,-1.2975,-1.2975,-1.3493,-1.3505,-1.377,-1.4277,0.0,0.0,0.0,0.0,0.0,0.0,0.0,0.0,-1.2026,0.0,0.0,0.0,0.0,0.0,0.0,0.0,0.0,0.0,0.0,-1.128,-1.2131,-1.32,-1.3332,-1.3188,-1.3447,-1.3513,-1.3513,-1.3513,-1.3513,-1.3375,-1.2831,-1.2711,-1.256,-1.2041,-1.2137,-1.2318,-1.2318,-1.253,-1.2795,-1.3085,-1.3568,-1.4099,-1.4648,-1.5626,-1.6386,-1.667,-1.7165,-1.7485,-1.7485,-1.7974,-1.8511,-1.9036,-1.9078,-1.9078,-1.9078,-1.9078,-1.9078,-1.9078,-1.9078,-1.9078,-1.9072,-1.7653,-1.7001,-1.7007,-1.5791,-1.5347,-1.5564,-1.5767,-1.5975,-1.6178,-1.6183,-1.6183,-1.6183,-1.6183,-1.6183,-1.6183,-1.6183,-1.6183,-1.6183,-1.6183,-1.6183,-1.6183,0.0,0.0,0.0,0.0,0.0,0.0,0.0,-1.2034,-1.234,-1.271,-1.3698,-1.4538,-1.4972,-1.5024,-1.4896,-1.4629,-1.3964,0.0,0.0,0.0,0.0,0.0,0.0,0.0,0.0,0.0,-1.3674,-1.4036,-1.3867,-1.3879,-1.4036,-1.4036,-1.4132,-1.4289,-1.4221,-1.3754,0.0,0.0,0.0,0.0,0.0,-1.1003,-1.1169,0.0,0.0,0.0,0.0,0.0,0.0,0.0,0.0,0.0,0.0,0.0,0.0,-1.2085,-1.2481,-1.2856,-1.294,-1.2958,-1.2958,-1.2958,-1.2825,-1.265,-1.2475,-1.2294,-1.2125,-1.1956,-1.2131,-1.2312,-1.2312,-1.253,-1.2795,-1.3079,-1.3713,-1.4298,-1.4666,-1.5783,-1.6598,-1.6688,-1.7165,-1.763,-1.8004,-1.8191,-1.8511,-1.9036,-1.9078,-1.9078,-1.9078,-1.9078,-1.9078,-1.9078,-1.9078,-1.8688,-1.7653,-1.7265,-1.6561,-1.5795,-1.562,-1.5564,-1.5772,-1.5985,-1.6117,-1.6183,-1.6183,-1.6183,-1.6183,-1.6183,-1.6183,-1.6183,-1.6183,-1.6183,-1.6183,-1.6183,-1.6183,-1.6183,0.0,0.0,0.0,0.0,0.0,0.0,0.0,-1.1578,-1.1952,-1.2415,-1.3238,-1.4024,-1.4594,-1.4684,-1.4571,-1.4244,-1.3925,0.0,0.0,0.0,0.0,0.0,0.0,0.0,0.0,-1.3963,-1.3963,-1.4289,-1.4289,-1.4397,-1.455,-1.455,-1.4658,-1.485,-1.463,-1.4082,0.0,0.0,0.0,0.0,-1.1076,-1.1066,-1.1002,0.0,0.0,0.0,0.0,0.0,0.0,0.0,0.0,0.0,0.0,0.0,0.0,0.0,-1.1408,-1.1986,-1.2272,-1.2481,-1.253,-1.2433,-1.2361,-1.2264,-1.2065,-1.189,-1.1775,-1.1775,-1.1986,-1.2198,-1.2294,-1.253,-1.2795,-1.3079,-1.3701,-1.4286,-1.466,-1.5771,-1.6658,-1.696,-1.7286,-1.7696,-1.8239,-1.8294,-1.8511,-1.9036,-1.9078,-1.9078,-1.9078,-1.9078,-1.9078,-1.9078,-1.9078,-1.8559,-1.7389,-1.713,-1.6473,-1.5643,-1.5591,-1.5663,-1.5867,-1.6084,-1.6183,-1.6183,-1.6183,-1.6183,0.0,-1.6183,-1.6183,-1.6183,-1.6183,-1.6183,-1.6183,-1.6183,-1.6183,-1.6183,0.0,0.0,0.0,0.0,0.0,0.0,0.0,-1.1129,-1.186,-1.2429,-1.2954,-1.3548,-1.4428,-1.4569,-1.4347,-1.3642,0.0,0.0,0.0,0.0,0.0,0.0,0.0,0.0,-1.4277,-1.4325,-1.4349,-1.4349,-1.4385,-1.461,-1.5018,-1.5018,-1.5238,-1.5659,-1.5096,-1.4418,0.0,0.0,0.0,0.0,-1.126,-1.1416,0.0,0.0,0.0,0.0,0.0,0.0,0.0,0.0,0.0,0.0,0.0,0.0,0.0,0.0,0.0,0.0,0.0,-1.1972,-1.2146,-1.19,-1.2008,-1.205,-1.1564,-1.145,0.0,-1.145,-1.1757,-1.2023,-1.227,-1.253,-1.2795,-1.3079,-1.3562,-1.4099,-1.4636,-1.5638,-1.6604,-1.7388,-1.7485,-1.7696,-1.8239,-1.8294,-1.8511,-1.9036,-1.9078,-1.9078,-1.9078,-1.9078,-1.9078,-1.9072,-1.9072,-1.8688,-1.7905,-1.726,-1.6744,-1.621,-1.5875,-1.5673,-1.589,-1.6089,-1.6183,-1.6183,-1.6183,-1.6183,-1.6183,-1.6183,-1.6183,-1.6183,-1.6183,-1.6183,-1.6183,-1.6183,-1.6183,-1.6183,0.0,0.0,0.0,0.0,0.0,0.0,0.0,0.0,0.0,0.0,-1.2267,-1.2935,-1.3738,-1.3863,-1.3814,0.0,0.0,0.0,0.0,0.0,0.0,0.0,0.0,0.0,-1.4289,-1.4646,-1.4821,-1.4821,-1.5271,-1.5306,-1.507,-1.507,-1.4937,-1.4628,-1.4444,-1.3914,0.0,0.0,0.0,0.0,-1.068,-1.0516,0.0,0.0,0.0,0.0,-1.0138,-0.9718,0.0,0.0,0.0,0.0,0.0,0.0,0.0,0.0,-0.9393,-0.9653,-1.0024,0.0,-1.1098,-1.1036,-1.0845,-1.0802,0.0,-1.1045,-1.1128,-1.145,-1.1902,-1.224,-1.23,-1.253,-1.2795,-1.3079,-1.3562,-1.4099,-1.4636,-1.5801,-1.6821,-1.7412,-1.7485,-1.7696,-1.8239,-1.8294,-1.8511,-1.9036,-1.9078,-1.9078,-1.9078,-1.9078,-1.8816,-1.8296,-1.8296,-1.791,-1.726,-1.6618,-1.6039,-1.576,-1.5672,-1.5753,-1.6108,-1.616,-1.6183,-1.6183,-1.6183,-1.6183,-1.6183,-1.6183,-1.6183,-1.6183,-1.6183,-1.6183,-1.6183,-1.6183,-1.6183,-1.6183,0.0,0.0,0.0,0.0,0.0,0.0,0.0,0.0,0.0,0.0,0.0,-1.2141,-1.3059,-1.3204,0.0,0.0,0.0,0.0,0.0,0.0,0.0,0.0,0.0,-1.441,-1.461,-1.4857,-1.5121,-1.5372,-1.5428,-1.5468,-1.5424,-1.5198,-1.4971,-1.4628,-1.4025,-1.3362,0.0,0.0,0.0,-1.0883,-1.0671,0.0,0.0,0.0,0.0,0.0,-0.9974,-0.9562,0.0,-0.8732,-0.8362,-0.8129,0.0,0.0,0.0,0.0,-0.8537,-0.8732,-0.8754,-0.9532,-1.0455,-1.0606,-1.0433,-1.0423,-1.074,-1.0734,-1.0718,-1.1112,-1.1624,-1.2011,-1.2128,-1.2463,-1.2762,-1.3189,-1.3667,-1.4424,-1.5517,-1.6247,-1.6893,-1.7418,-1.7485,-1.7696,-1.8239,-1.8294,-1.8511,-1.9036,-1.9078,-1.9078,-1.9078,-1.9078,-1.8816,-1.8033,-1.7647,-1.726,-1.6488,-1.6206,-1.5904,-1.556,-1.5654,-1.5871,-1.6183,-1.6183,-1.6183,-1.6183,-1.6183,-1.6183,-1.6183,-1.6183,-1.6183,-1.6183,-1.6183,-1.6183,-1.6183,-1.6183,-1.6183,-1.6183,0.0,0.0,0.0,0.0,0.0,0.0,0.0,0.0,0.0,0.0,0.0,0.0,0.0,0.0,0.0,0.0,0.0,0.0,0.0,0.0,0.0,0.0,-1.441,-1.4586,-1.5001,-1.5169,-1.5468,-1.5912,-1.5623,-1.5612,-1.5942,-1.5521,-1.52,-1.4878,-1.3621,-1.2793,0.0,-1.1638,-1.1232,-1.0892,-1.0772,0.0,0.0,0.0,0.0,0.0,0.0,0.0,0.0,-0.8633,-0.8215,-0.783,-0.7822,0.0,0.0,0.0,0.0,0.0,-0.7817,-0.8786,-0.975,-1.0077,-1.0111,-1.0146,-1.05,-1.0372,-1.0359,-1.0885,-1.1338,-1.1786,-1.2077,-1.2449,-1.2854,-1.3481,-1.4056,-1.5019,-1.639,-1.6706,-1.6936,-1.7424,-1.7521,-1.7738,-1.8245,-1.833,-1.8535,-1.8854,-1.9054,-1.906,-1.889,-1.9054,-1.8688,-1.7905,-1.726,-1.6618,-1.5839,-1.6064,-1.5893,-1.5564,-1.5763,-1.5975,-1.6183,-1.6183,-1.6183,-1.6183,-1.6183,-1.6183,-1.6183,-1.6183,-1.6183,-1.6183,-1.6183,-1.6183,-1.6183,-1.6183,-1.6183,-1.6183,0.0,0.0,0.0,0.0,0.0,0.0,0.0,0.0,0.0,0.0,0.0,0.0,0.0,0.0,0.0,0.0,0.0,0.0,0.0,0.0,0.0,-1.4845,-1.4881,-1.4917,-1.5013,-1.5876,-1.638,-1.6464,-1.686,-1.687,-1.6578,-1.648,-1.5641,-1.4099,-1.3057,-1.2421,-1.208,-1.1325,-1.0965,-1.0846,-1.0174,0.0,0.0,0.0,0.0,0.0,0.0,0.0,0.0,-0.8162,-0.7788,-0.758,-0.7566,0.0,0.0,0.0,0.0,0.0,-0.795,-0.8245,-0.8437,-0.8695,-0.8825,-0.9101,-0.9678,-0.9946,-1.0314,-1.125,-1.1725,-1.21,-1.2473,-1.282,-1.32,-1.3688,-1.4806,-1.5797,-1.629,-1.6742,-1.7141,-1.7449,-1.7678,-1.7943,-1.8263,-1.8499,-1.8405,-1.7978,-1.8691,-1.8721,-1.7995,-1.8697,-1.8553,-1.713,-1.7001,-1.6359,-1.5062,-1.5267,-1.5481,-1.5564,-1.5763,-1.5975,-1.6183,-1.6183,-1.6183,-1.6183,-1.6183,-1.6183,-1.6183,-1.6183,-1.6183,-1.6183,-1.6183,-1.6183,-1.6183,-1.6183,-1.6183,-1.6183,0.0,0.0,0.0,0.0,0.0,0.0,0.0,0.0,0.0,0.0,0.0,0.0,0.0,0.0,0.0,0.0,0.0,0.0,0.0,0.0,-1.3435,-1.5013,-1.4575,-1.4535,-1.5001,-1.5806,-1.6338,-1.6584,-1.6858,-1.7069,-1.7057,-1.6227,-1.5367,-1.444,-1.3086,-1.2372,-1.2169,-1.1251,-1.0901,-1.0837,0.0,0.0,0.0,0.0,0.0,0.0,0.0,0.0,0.0,0.0,-0.7628,-0.7461,-0.7139,0.0,0.0,0.0,0.0,0.0,-0.7749,-0.7999,-0.8155,-0.8481,-0.8722,-0.9037,-0.9761,-0.9838,-0.9971,-1.0614,-1.1359,-1.1861,-1.1722,-1.2466,-1.3221,-1.3957,-1.5118,-1.6036,-1.6447,-1.6845,-1.7189,-1.7449,-1.7714,-1.7986,-1.8269,-1.8529,-1.8429,-1.78,-1.8157,-1.8058,-1.718,-1.7652,-1.7523,-1.6488,-1.6488,-1.5969,-1.4931,-1.5252,-1.546,-1.5564,-1.5881,-1.6084,-1.6183,-1.6183,-1.6183,-1.6183,-1.6183,-1.6183,-1.6183,-1.6183,-1.6183,-1.6183,-1.6183,-1.6183,-1.6183,-1.6183,-1.6183,-1.6183,0.0,0.0,0.0,0.0,0.0,0.0,0.0,0.0,0.0,0.0,0.0,0.0,0.0,0.0,0.0,0.0,0.0,0.0,0.0,-1.2819,-1.3026,-1.5188,-1.4147,-1.3993,-1.4998,-1.5846,-1.6421,-1.681,-1.7116,-1.7373,-1.7511,-1.5847,-1.4967,-1.4736,-1.3175,-1.2382,-1.2178,-1.1408,-1.0993,-1.0846,0.0,0.0,0.0,0.0,0.0,0.0,0.0,0.0,0.0,0.0,0.0,0.0,0.0,0.0,0.0,-0.6802,-0.6862,-0.7121,-0.7697,-0.8033,-0.834,-0.8807,-0.8973,-0.9213,-0.9878,-0.9812,-0.9719,-1.0149,-1.0952,-1.15,-1.1532,-1.257,-1.3751,-1.4511,-1.5456,-1.6247,-1.6724,-1.7014,-1.728,-1.7545,-1.7691,-1.7833,-1.8107,-1.8244,-1.796,-1.7211,-1.7479,-1.739,-1.6466,-1.6722,-1.6748,-1.5969,-1.5974,-1.5714,-1.4931,-1.5352,-1.556,-1.5564,-1.5985,-1.6183,-1.6183,-1.6183,-1.6183,-1.6183,-1.6183,-1.6183,-1.6183,-1.6183,-1.6183,-1.6183,-1.6183,-1.6183,-1.6183,-1.6183,-1.6183,-1.6183,0.0,0.0,0.0,0.0,0.0,0.0,0.0,0.0,0.0,0.0,0.0,0.0,0.0,0.0,0.0,0.0,0.0,0.0,0.0,-1.2447,-1.3206,-1.5716,-1.4003,-1.3636,-1.5073,-1.6527,-1.7303,-1.7352,-1.8322,-1.8549,-1.802,-1.5828,-1.4727,-1.453,-1.3013,-1.2224,-1.2098,-1.1627,-1.126,-1.082,-1.0184,0.0,0.0,0.0,0.0,0.0,0.0,0.0,0.0,0.0,0.0,0.0,0.0,0.0,-0.6554,-0.6726,-0.7121,-0.7508,-0.7938,-0.8349,-0.8807,-0.9426,-0.9299,-0.9133,-0.9549,-0.9644,-0.9843,-1.0785,-1.0975,-1.142,-1.2742,-1.4018,-1.5079,-1.5666,-1.6314,-1.6742,-1.7026,-1.7292,-1.7551,-1.7817,-1.7474,-1.7365,-1.7616,-1.7352,-1.6669,-1.5607,-1.6488,-1.6546,-1.5472,-1.6371,-1.6748,-1.5969,-1.5974,-1.5714,-1.4931,-1.5352,-1.556,-1.5564,-1.5985,-1.6183,-1.6183,-1.6183,-1.6183,-1.6183,-1.6183,-1.6183,-1.6183,-1.6183,-1.6183,-1.6183,-1.6183,-1.6183,-1.6183,-1.6183,-1.6183,-1.6183,0.0,0.0,0.0,0.0,0.0,0.0,0.0,0.0,0.0,0.0,0.0,0.0,0.0,0.0,0.0,0.0,0.0,0.0,0.0,-1.2713,-1.3444,-1.5333,-1.4373,-1.4248,-1.5063,-1.6293,-1.691,-1.6849,-1.7546,-1.771,-1.7368,-1.5637,-1.4673,-1.4423,-1.2931,-1.2224,-1.2049,-1.1654,-1.1149,-1.0597,-1.0082,-0.9475,0.0,0.0,0.0,0.0,0.0,0.0,0.0,0.0,-0.6817,-0.6576,-0.645,-0.642,-0.6515,-0.673,-0.7149,-0.7593,-0.8132,-0.8486,-0.8855,-0.9488,-0.9724,-0.9842,-0.9998,-1.0036,-1.026,-1.0865,-1.1318,-1.2068,-1.349,-1.4512,-1.5235,-1.5777,-1.647,-1.6978,-1.708,-1.7316,-1.7581,-1.7841,-1.7875,-1.7772,-1.7639,-1.75,-1.6904,-1.5447,-1.5843,-1.5757,-1.4697,-1.5342,-1.5583,-1.5323,-1.5323,-1.5192,-1.4931,-1.5352,-1.556,-1.5564,-1.5985,-1.6183,-1.6183,-1.6183,-1.6183,-1.6183,-1.6183,-1.6183,-1.6183,-1.6183,-1.6183,-1.6183,-1.6183,-1.6183,-1.6183,-1.6183,-1.6183,-1.6183,0.0,0.0,0.0,0.0,0.0,0.0,0.0,0.0,0.0,0.0,0.0,0.0,0.0,0.0,0.0,0.0,0.0,0.0,-1.2893,-1.2926,-1.3649,-1.5225,-1.4597,-1.4519,-1.5318,-1.5912,-1.6241,-1.6289,-1.6689,-1.6832,-1.6652,-1.5121,-1.4271,-1.4072,-1.278,-1.2175,-1.2058,-1.1792,-1.1221,-1.0472,-1.0127,-0.9452,0.0,0.0,0.0,0.0,0.0,0.0,0.0,0.0,-0.6416,-0.6297,-0.6134,-0.6304,-0.6604,-0.6749,-0.7243,-0.7777,-0.8269,-0.8642,-0.9034,-0.9601,-1.0012,-1.0291,-1.0353,-1.0419,-1.0581,-1.1012,-1.192,-1.2903,-1.4035,-1.4939,-1.5736,-1.6174,-1.6509,-1.6887,-1.7201,-1.7325,-1.7464,-1.7974,-1.8,-1.8013,-1.7759,-1.7334,-1.656,-1.5441,-1.5322,-1.4969,-1.4317,-1.4648,-1.487,-1.4931,-1.4931,-1.4931,-1.4931,-1.5352,-1.556,-1.5564,-1.5985,-1.6183,-1.6183,-1.6183,-1.6183,-1.6183,-1.6183,-1.6183,-1.6183,-1.6183,-1.6183,-1.6183,-1.6183,-1.6183,-1.6183,-1.6183,-1.6183,-1.6183,0.0,0.0,0.0,0.0,0.0,0.0,0.0,0.0,0.0,0.0,0.0,0.0,0.0,0.0,0.0,0.0,0.0,0.0,-1.2917,-1.3003,-1.3831,-1.5727,-1.4463,-1.4365,-1.5749,-1.5312,-1.5301,-1.5793,-1.5998,-1.6114,-1.6026,-1.433,-1.3513,-1.3476,-1.2545,-1.2076,-1.2076,-1.2076,-1.1465,-1.0499,-1.029,-0.9605,-0.8683,0.0,0.0,0.0,0.0,0.0,0.0,0.0,-0.6127,-0.6267,-0.5963,-0.629,-0.6791,-0.6791,-0.7437,-0.8127,-0.8344,-0.8855,-0.9426,-0.9847,-1.0121,-1.0338,-1.0532,-1.0745,-1.0957,-1.1161,-1.2608,-1.399,-1.4245,-1.5568,-1.6791,-1.705,-1.6518,-1.6489,-1.7331,-1.7113,-1.7248,-1.8141,-1.7894,-1.7759,-1.8011,-1.6669,-1.5549,-1.5317,-1.4678,-1.4307,-1.4307,-1.4515,-1.4728,-1.4922,-1.4931,-1.4931,-1.4931,-1.5347,-1.556,-1.5564,-1.598,-1.6178,-1.6183,-1.6183,-1.6183,-1.6183,-1.6183,-1.6183,-1.6183,-1.6183,-1.6183,-1.6183,-1.6183,-1.6178,-1.6178,-1.6178,-1.6178,-1.6178,0.0,0.0,0.0,0.0,0.0,0.0,0.0,0.0,0.0,0.0,0.0,0.0,0.0,0.0,0.0,0.0,0.0,0.0,-1.2381,-1.2766,-1.3554,-1.4739,-1.4359,-1.4352,-1.4821,-1.4255,-1.4502,-1.5519,-1.5479,-1.5216,-1.4677,-1.3866,-1.3301,-1.2933,-1.2356,-1.2076,-1.2076,-1.1877,-1.1226,-1.0282,-1.0018,-0.9352,-0.8455,0.0,0.0,0.0,0.0,0.0,0.0,0.0,0.0,0.0,-0.5864,-0.629,-0.6791,-0.6791,-0.7437,-0.8155,-0.8514,-0.9072,-0.9615,-0.9885,-1.0556,-1.109,-1.0853,-1.125,-1.184,-1.2362,-1.3588,-1.473,-1.4828,-1.5948,-1.6942,-1.6739,-1.6897,-1.7103,-1.7118,-1.7343,-1.7804,-1.8511,-1.8512,-1.8151,-1.7367,-1.664,-1.5753,-1.4687,-1.4304,-1.4099,-1.4099,-1.444,-1.4662,-1.4723,-1.486,-1.4931,-1.4931,-1.5196,-1.5408,-1.5564,-1.5829,-1.6037,-1.6183,-1.6183,-1.6183,-1.6183,-1.6183,-1.6183,-1.6183,-1.6183,-1.6183,-1.6183,-1.6183,-1.6089,-1.5956,-1.5956,-1.5867,-1.5744,0.0,0.0,0.0,0.0,0.0,0.0,0.0,0.0,-0.999,-1.0244,-1.0283,-1.0283,0.0,0.0,0.0,-1.0869,-1.1351,-1.1881,-1.2473,-1.2986,-1.3502,-1.4052,-1.4031,-1.401,-1.3983,-1.3598,-1.3828,-1.4656,-1.4617,-1.4345,-1.3867,-1.3403,-1.3016,-1.2696,-1.23,-1.2026,-1.1927,-1.1778,-1.1081,-1.0018,-0.9889,-0.9229,-0.8373,0.0,0.0,0.0,0.0,0.0,0.0,0.0,0.0,0.0,-0.575,-0.6225,-0.6791,-0.6791,-0.7437,-0.817,-0.8585,-0.9162,-0.9696,-0.9899,-1.0679,-1.1487,-1.1681,-1.1815,-1.2183,-1.287,-1.3971,-1.4981,-1.5266,-1.6189,-1.6832,-1.6868,-1.686,-1.6976,-1.7247,-1.7572,-1.8072,-1.8644,-1.8776,-1.8475,-1.7374,-1.6773,-1.5887,-1.469,-1.4123,-1.392,-1.4005,-1.4251,-1.4421,-1.4501,-1.4624,-1.4685,-1.4685,-1.4889,-1.5059,-1.5196,-1.5474,-1.5678,-1.581,-1.598,-1.6056,-1.6051,-1.5971,-1.5938,-1.5938,-1.5938,-1.5938,-1.5938,-1.5938,-1.5857,-1.5739,-1.5739,-1.6069,-1.6355,0.0,0.0,0.0,0.0,0.0,0.0,0.0,-1.0283,-1.0283,-1.0283,-1.0283,-1.0283,0.0,0.0,0.0,-1.0869,-1.1351,-1.1969,-1.2872,-1.3284,-1.3484,-1.3515,-1.3484,-1.3399,-1.3282,-1.3263,-1.328,-1.3401,-1.3565,-1.3584,-1.3394,-1.2952,-1.2696,-1.265,-1.2232,-1.1927,-1.1728,-1.1628,-1.0962,-0.9839,-0.9806,-0.9245,-0.8421,-0.8299,0.0,0.0,0.0,0.0,0.0,0.0,0.0,0.0,-0.5609,-0.6117,-0.6768,-0.6787,-0.7423,-0.8146,-0.8581,-0.9176,-0.9719,-0.9904,-1.0551,-1.1415,-1.2626,-1.2397,-1.2096,-1.2976,-1.3914,-1.4849,-1.5654,-1.6096,-1.6667,-1.7162,-1.6646,-1.6442,-1.7576,-1.7754,-1.8063,-1.8716,-1.8927,-1.8715,-1.7696,-1.6941,-1.5952,-1.4998,-1.4169,-1.3773,-1.3972,-1.4,-1.4095,-1.4279,-1.4303,-1.4312,-1.4312,-1.4506,-1.4615,-1.4638,-1.5002,-1.5186,-1.5219,-1.564,-1.5834,-1.5824,-1.564,-1.556,-1.556,-1.556,-1.556,-1.556,-1.556,-1.555,-1.5531,-1.5667,-1.6451,-1.762,0.0,0.0,0.0,0.0,0.0,0.0,-1.0273,-1.0283,-1.0283,-1.0283,-1.0283,-1.0283,-1.0283,-1.0283,0.0,-1.0869,-1.1351,-1.1837,-1.2335,-1.2454,-1.2661,-1.3055,-1.2624,-1.2657,-1.3128,-1.2824,-1.265,-1.2544,-1.324,-1.3283,-1.2853,-1.2761,-1.2549,-1.2195,-1.1913,-1.1769,-1.1669,-1.1267,-1.0706,-1.0169,-0.9695,-0.9196,-0.8668,-0.7666,-0.7231,0.0,0.0,0.0,0.0,0.0,0.0,0.0,-0.5609,-0.6067,-0.6576,-0.6744,-0.7324,-0.7971,-0.8543,-0.928,-0.9894,-1.0028,-1.0334,-1.1096,-1.2221,-1.2188,-1.2282,-1.3914,-1.415,-1.4416,-1.5221,-1.5631,-1.5774,-1.5602,-1.615,-1.6808,-1.6952,-1.7856,-1.8632,-1.8963,-1.9042,-1.8459,-1.7064,-1.6566,-1.5834,-1.4269,-1.3932,-1.3707,-1.3755,-1.392,-1.4033,-1.4076,-1.4227,-1.4312,-1.4312,-1.4359,-1.4463,-1.4633,-1.4723,-1.4846,-1.5011,-1.5432,-1.5626,-1.5621,-1.5578,-1.556,-1.556,-1.556,-1.556,-1.556,-1.556,-1.5456,-1.5433,-1.6496,-1.7034,-1.7261,0.0,0.0,0.0,0.0,0.0,0.0,0.0,0.0,-1.0283,-1.0283,-1.0283,-1.0283,-1.0283,-1.0283,0.0,0.0,-1.1234,-1.1704,-1.1895,-1.2258,-1.2541,-1.2715,-1.2215,-1.2187,-1.2723,-1.2535,-1.2417,-1.2512,-1.2887,-1.2896,-1.2429,-1.2429,-1.2328,-1.2076,-1.1828,-1.1628,-1.1477,-1.1074,-1.0598,-1.01,-0.9771,-0.9445,-0.9022,-0.8039,-0.7479,-0.7122,-0.6185,0.0,0.0,0.0,0.0,0.0,0.0,0.0,-0.6515,-0.673,-0.7295,-0.7914,-0.8533,-0.9242,-0.9951,-1.0551,-1.0636,-1.0901,-1.2153,-1.2115,-1.2231,-1.3966,-1.4107,-1.4261,-1.5071,-1.5189,-1.5189,-1.5424,-1.5793,-1.636,-1.6987,-1.7517,-1.8152,-1.9054,-1.8816,-1.8198,-1.7317,-1.6691,-1.5829,-1.4632,-1.4053,-1.3688,-1.3688,-1.3797,-1.3859,-1.3859,-1.3958,-1.4014,-1.4014,-1.4014,-1.4071,-1.4185,-1.4284,-1.444,-1.4648,-1.5068,-1.5257,-1.5257,-1.5257,-1.5257,-1.5257,-1.5257,-1.5257,-1.5257,-1.5257,-1.558,-1.6121,-1.6907,-1.786,-1.903,0.0,0.0,0.0,0.0,0.0,0.0,0.0,0.0,0.0,-1.0283,-1.0283,-1.0283,-1.0283,-1.0283,-1.0283,0.0,0.0,0.0,-1.1606,-1.2289,-1.2627,-1.248,-1.2025,-1.195,-1.2264,-1.2209,-1.2317,-1.2614,-1.2614,-1.2485,-1.2177,-1.2177,-1.2177,-1.2177,-1.1805,-1.1528,-1.1276,-1.0972,-1.0489,-1.0017,-0.9954,-0.97,-0.9291,-0.8522,-0.7889,-0.7313,-0.6557,-0.5869,-0.5339,-0.5339,0.0,0.0,0.0,0.0,-0.6473,-0.6721,-0.7243,-0.7815,-0.8472,-0.9167,-0.9975,-1.1123,-1.1042,-1.0972,-1.2077,-1.2091,-1.2202,-1.3565,-1.3853,-1.4043,-1.4887,-1.4739,-1.4715,-1.5471,-1.5551,-1.5893,-1.718,-1.7396,-1.7781,-1.8816,-1.8425,-1.807,-1.757,-1.6855,-1.6011,-1.4931,-1.4227,-1.3745,-1.3745,-1.3707,-1.3688,-1.3688,-1.3688,-1.3688,-1.3688,-1.3688,-1.3688,-1.3693,-1.3868,-1.418,-1.4634,-1.4865,-1.4914,-1.4827,-1.4865,-1.4879,-1.4884,-1.4917,-1.5062,-1.5318,-1.5318,-1.6084,-1.7361,-1.7619,-1.9158,-2.1076,0.0,0.0,0.0,0.0,0.0,0.0,0.0,0.0,0.0,0.0,-1.0283,-1.0283,-1.0283,-1.0283,-1.0283,-1.0283,-1.1106,-1.1606,-1.1606,0.0,0.0,-1.2323,-1.1939,-1.1864,-1.2116,-1.1794,-1.1813,-1.2159,-1.2159,-1.2356,-1.2632,-1.2632,-1.2632,-1.2571,-1.1718,-1.1318,-1.1276,-1.0769,-1.049,-1.0367,-1.0049,-0.9655,-0.9197,-0.8037,-0.7361,-0.6888,-0.6039,-0.5639,-0.5566,-0.5566,-0.5703,0.0,0.0,0.0,-0.6295,-0.6679,-0.7036,-0.7483,-0.8222,-0.9162,-1.0083,-1.0801,-1.1047,-1.125,-1.1779,-1.2002,-1.228,-1.3046,-1.3179,-1.3529,-1.4508,-1.4257,-1.3932,-1.4452,-1.553,-1.6202,-1.6255,-1.7765,-1.8682,-1.8168,-1.8682,-1.8332,-1.6937,-1.6762,-1.6008,-1.4534,-1.4081,-1.3967,-1.3967,-1.3792,-1.3688,-1.3688,-1.3688,-1.3688,-1.3688,-1.3688,-1.3688,-1.3688,-1.3717,-1.4434,-1.5724,-1.5788,-1.5319,-1.4407,-1.4591,-1.4671,-1.4685,-1.486,-1.5574,-1.6721,-1.6721,-1.749,-1.8908,-2.0055,-2.0816,-2.1328,0.0,0.0,0.0,0.0,0.0,0.0,0.0,0.0,0.0,0.0,0.0,-1.0635,-1.0635,-1.0777,-1.0932,-1.0932,-1.145,-1.194,-1.2192,-1.2464,-1.248,-1.2332,-1.2057,-1.1888,-1.1746,-1.1792,-1.1792,-1.1746,-1.1966,-1.2328,-1.2715,-1.2494,-1.258,-1.3002,-1.2061,-1.1636,-1.1567,-1.0799,-1.0522,-1.0454,-1.0295,-0.9872,-0.9242,-0.8322,-0.7653,-0.7197,-0.6253,-0.5958,-0.5939,-0.5817,-0.5835,-0.5906,-0.5906,0.0,0.0,0.0,-0.6998,-0.7455,-0.8458,-0.9337,-1.0162,-1.0589,-1.0957,-1.1274,-1.1581,-1.1902,-1.2252,-1.2635,-1.2904,-1.3308,-1.3965,-1.3923,-1.3788,-1.4095,-1.5102,-1.5794,-1.5875,-1.6668,-1.7394,-1.7389,-1.7394,-1.7221,-1.6861,-1.6488,-1.5859,-1.513,-1.4543,-1.418,-1.418,-1.3981,-1.3868,-1.3868,-1.375,-1.3688,-1.3688,-1.3688,-1.3688,-1.3688,-1.3688,-1.4446,-1.5725,-1.5725,-1.6046,-1.6409,-1.6518,-1.6566,-1.6583,-1.6816,-1.7291,-1.7811,-1.8081,-1.8902,-2.0309,-2.0823,-2.1587,-2.2348,0.0,0.0,0.0,0.0,0.0,0.0,0.0,0.0,0.0,0.0,0.0,-1.1,-1.1,0.0,0.0,0.0,-1.1755,-1.2177,-1.2598,-1.2578,-1.2384,-1.2134,-1.2027,-1.1792,-1.1498,-1.1673,-1.1776,-1.1636,-1.1776,-1.207,-1.2558,-1.2162,-1.2305,-1.2868,-1.2079,-1.1782,-1.1851,-1.0924,-1.0569,-1.0657,-1.0657,-1.0166,-0.9375,-0.8769,-0.8128,-0.7431,-0.6604,-0.6332,0.0,0.0,-0.6067,-0.6057,-0.6006,-0.61,0.0,0.0,0.0,-0.7546,-0.8585,-0.9322,-0.9894,-1.031,-1.0768,-1.1189,-1.1453,-1.1761,-1.2087,-1.2446,-1.2729,-1.3051,-1.3528,-1.3655,-1.388,-1.4216,-1.4745,-1.5322,-1.561,-1.6172,-1.6555,-1.6737,-1.6618,-1.6618,-1.6748,-1.6214,-1.5736,-1.548,-1.4764,-1.4392,-1.4392,-1.4199,-1.4085,-1.4085,-1.3882,-1.3769,-1.3769,-1.3717,-1.3688,-1.3688,-1.4043,-1.4867,-1.6042,-1.6391,-1.7428,-1.8898,-1.8234,-1.8021,-1.8039,-1.8303,-1.8659,-1.8933,-1.9336,-2.02,-2.1478,-2.156,-2.2223,-2.3106,0.0,0.0,0.0,0.0,0.0,0.0,0.0,0.0,0.0,0.0,0.0,-1.1343,-1.1202,-1.1186,-1.124,-1.1382,-1.1755,-1.213,-1.2501,-1.248,-1.2203,-1.1582,-1.1517,0.0,-1.1489,-1.1159,-1.1343,-1.2098,-1.1343,-1.138,-1.2094,-1.17,-1.1649,-1.1849,-1.1462,-1.155,-1.1851,-1.0924,-1.0661,-1.0971,-1.0971,-1.0424,-0.9542,-0.926,-0.8399,-0.7294,-0.6878,0.0,0.0,0.0,-0.644,-0.6407,-0.622,-0.6168,-0.6257,0.0,0.0,0.0,-0.8311,-0.8883,-0.9455,-0.988,-1.0452,-1.1019,-1.1425,-1.1534,-1.1779,-1.2583,-1.2602,-1.2663,-1.3291,-1.3561,-1.3995,-1.4821,-1.4988,-1.5145,-1.5585,-1.68,-1.7268,-1.6208,-1.713,-1.7389,-1.6229,-1.5964,-1.5694,-1.5047,-1.4728,-1.4615,-1.4615,-1.4411,-1.4293,-1.4293,-1.4099,-1.3996,-1.3996,-1.3792,-1.3688,-1.3688,-1.4867,-1.6161,-1.7325,-1.8506,-1.9809,-2.0924,-1.8707,-1.7859,-1.7877,-1.8027,-1.8875,-1.9998,-2.0411,-2.1403,-2.2559,-2.2872,-2.2981,-2.3106,0.0,0.0,0.0,0.0,0.0,0.0,0.0,0.0,0.0,0.0,0.0,0.0,0.0,-1.1967,-1.2035,-1.2082,-1.2168,-1.2271,-1.2471,-1.2186,-1.1874,-1.164,-1.1325,-1.1131,-1.1131,-1.1251,-1.1325,-1.1343,-1.1325,-1.1407,-1.1691,-1.1278,-1.1349,-1.1796,-1.1427,-1.1294,-1.1224,-1.0975,-1.0883,-1.1018,-1.0894,-1.0251,-0.9305,-0.8832,-0.8149,0.0,0.0,0.0,0.0,0.0,0.0,0.0,0.0,-0.6571,-0.6627,-0.6965,-0.7395,-0.7872,-0.8288,-0.8855,-0.9393,-0.9682,-1.0329,-1.0896,-1.091,-1.1326,-1.1756,-1.1931,-1.2328,-1.2677,-1.2762,-1.3514,-1.4262,-1.4715,-1.5597,-1.6,-1.5319,-1.608,-1.6386,-1.5228,-1.551,-1.5688,-1.5308,-1.5323,-1.5192,-1.4931,-1.4865,-1.4827,-1.4827,-1.4629,-1.4515,-1.4515,-1.4312,-1.4142,-1.4014,-1.3797,-1.3688,-1.3688,-1.4986,-1.6273,-1.7443,-1.8732,-2.0033,-2.1096,-2.0382,-1.9952,-1.998,-2.0287,-2.0655,-2.1166,-2.1477,-2.2083,-2.2637,-2.2754,-2.293,-2.3106,0.0,0.0,0.0,0.0,0.0,0.0,0.0,0.0,0.0,-1.107,0.0,0.0,0.0,0.0,-1.2382,-1.2431,-1.2372,-1.2382,-1.2431,-1.1949,-1.1612,-1.1426,-1.0973,-1.0708,-1.0708,-1.0846,-1.0939,-1.1113,-1.1122,-1.1223,-1.148,-1.0965,-1.0813,-1.1054,-1.0936,-1.0956,-1.1112,-1.1051,-1.113,-1.1312,-1.101,-1.0366,-0.9492,-0.8962,-0.8371,-0.7749,0.0,0.0,0.0,0.0,0.0,0.0,0.0,-0.6955,-0.6984,-0.7116,-0.7469,-0.7749,-0.8099,-0.8595,-0.91,-0.945,-1.0012,-1.0513,-1.065,-1.1052,-1.1439,-1.1586,-1.2006,-1.2389,-1.2526,-1.3501,-1.4437,-1.481,-1.5472,-1.5877,-1.5318,-1.5591,-1.5525,-1.4623,-1.4647,-1.4856,-1.4813,-1.4832,-1.486,-1.4926,-1.4931,-1.4931,-1.4931,-1.4804,-1.4704,-1.4638,-1.4496,-1.4322,-1.4114,-1.3901,-1.3797,-1.3797,-1.5375,-1.6626,-1.7443,-1.9203,-2.0385,-2.1211,-2.1211,-2.1211,-2.1225,-2.1445,-2.1533,-2.1569,-2.1891,-2.214,-2.2337,-2.255,-2.2762,-2.2959,0.0,0.0,0.0,0.0,0.0,0.0,0.0,0.0,-1.1966,-1.1724,0.0,0.0,0.0,0.0,0.0,-1.2283,-1.2412,-1.2412,-1.2274,-1.1892,-1.1435,-1.0938,-1.0533,-1.0312,-1.0312,-0.9934,-1.0279,-1.1471,-1.0691,-1.0763,-1.1489,-1.0673,-1.0076,-0.9658,-0.993,-1.0618,-1.1452,-1.1164,-1.1408,-1.1949,-1.1352,-1.0766,-1.0261,-0.9593,-0.9005,-0.8387,-0.8179,-0.8245,0.0,-0.7952,0.0,0.0,0.0,0.0,-0.724,-0.7231,-0.7369,-0.7569,0.0,0.0,0.0,-0.9152,-0.9478,-0.9861,-1.0683,-1.0721,-1.0811,-1.1614,-1.1652,-1.1779,-1.2583,-1.3551,-1.4505,-1.5095,-1.4634,-1.456,-1.5734,-1.5318,-1.4799,-1.4399,-1.4918,-1.5132,-1.46,-1.4624,-1.4709,-1.4907,-1.4922,-1.4926,-1.4931,-1.4931,-1.4841,-1.4648,-1.4638,-1.4534,-1.4322,-1.4123,-1.4014,-1.401,-1.6283,-1.7449,-1.7443,-2.0033,-2.1211,-2.1211,-2.1211,-2.1211,-2.1211,-2.1211,-2.1211,-2.124,-2.1562,-2.1686,-2.1767,-2.2374,-2.2608,-2.2674,0.0,0.0,0.0,0.0,0.0,-0.9392,-0.982,-1.0648,-1.1359,0.0,0.0,0.0,0.0,0.0,0.0,-1.2274,-1.1965,-1.187,-1.2157,-1.1519,-1.1159,-1.1352,-1.0689,-1.0312,-1.0312,-1.0201,-1.0459,-1.1076,-1.1113,-1.1416,-1.1893,-1.0894,-1.0445,-1.0368,-0.9977,-1.0287,-1.1172,-1.1304,-1.1765,-1.2318,-1.1305,-1.0817,-1.0548,-0.9428,-0.8871,-0.8633,0.0,-0.8897,-0.903,0.0,-0.8576,-0.8349,0.0,0.0,-0.7574,-0.7483,-0.7478,-0.7569,-0.7721,0.0,0.0,0.0,0.0,0.0,-1.0126,-1.0799,-1.1303,-1.0996,-1.1768,-1.2353,-1.1978,-1.2685,-1.3552,-1.4075,-1.4864,-1.5194,-1.48,-1.4611,-1.4401,-1.4175,-1.4213,-1.4418,-1.4378,-1.4402,-1.4487,-1.47,-1.4714,-1.478,-1.4926,-1.4931,-1.4907,-1.4851,-1.4709,-1.4605,-1.4544,-1.4331,-1.4156,-1.401,-1.6457,-1.7624,-1.7443,-2.0033,-2.1211,-2.1211,-2.1211,-2.1211,-2.1211,-2.1211,-2.1211,-2.1218,-2.1313,-2.1489,-2.1715,-2.1891,-2.2235,-2.2674,0.0,0.0,-0.7189,-0.7739,-0.8268,-0.8838,-0.9478,-1.033,-1.1049,0.0,0.0,0.0,-1.2557,0.0,-1.2364,-1.2716,-1.242,-1.2195,-1.2135,-1.1527,-1.1196,-1.1269,-1.0496,-1.0146,-1.0312,-0.998,-1.0164,-1.0901,-1.0984,-1.1314,-1.1909,-1.0964,-1.051,-1.0525,-0.993,-1.0197,-1.1026,-1.1511,-1.2123,-1.2712,-1.1573,-1.1121,-1.0951,-0.9562,-0.9062,-0.91,0.0,0.0,-0.9426,-0.9219,-0.9011,0.0,0.0,0.0,-0.7862,-0.7655,-0.7593,-0.755,-0.7612,-0.7947,-0.8316,-0.8524,0.0,0.0,-0.9757,-1.0513,-1.1023,-1.0791,-1.1482,-1.205,-1.1756,-1.2343,-1.287,-1.3083,-1.3967,-1.4473,-1.4218,-1.3938,-1.3839,-1.3712,-1.3755,-1.3868,-1.4161,-1.4185,-1.4274,-1.4482,-1.4501,-1.4591,-1.4794,-1.4889,-1.4931,-1.4931,-1.4822,-1.4756,-1.4756,-1.4548,-1.4635,-1.5122,-1.6983,-1.7995,-1.8437,-2.0326,-2.1211,-2.1211,-2.1211,-2.1211,-2.1211,-2.1211,-2.1211,-2.1211,-2.1211,-2.1328,-2.1511,-2.165,-2.2008,-2.2506,0.0,0.0,-0.7154,-0.7643,-0.8012,-0.8556,-0.9466,-1.0375,-1.108,0.0,-1.199,-1.2466,-1.2807,-1.2452,-1.2507,-1.3231,-1.3213,-1.2892,-1.225,-1.1801,-1.1435,-1.1058,-1.0321,-1.0045,-1.0303,-0.9557,-0.9732,-1.0901,-1.0551,-1.0795,-1.166,-1.0871,-1.0423,-1.0409,-0.9919,-1.0221,-1.1161,-1.1845,-1.2552,-1.3087,-1.1951,-1.1571,-1.1464,-0.9948,-0.9497,-0.9541,-0.9478,-0.954,-0.9649,-0.946,-0.9261,0.0,0.0,0.0,0.0,0.0,-0.7697,-0.7588,-0.7564,-0.7782,-0.8127,-0.8316,-0.8699,0.0,-0.9493,-0.9923,-1.0429,-1.0683,-1.0924,-1.122,-1.1865,-1.2098,-1.2243,-1.2238,-1.2607,-1.3036,-1.3718,-1.3349,-1.3088,-1.3325,-1.3353,-1.3499,-1.3868,-1.3929,-1.4029,-1.4227,-1.4284,-1.4407,-1.4619,-1.4804,-1.4912,-1.4931,-1.4931,-1.4931,-1.4931,-1.4881,-1.5533,-1.6756,-1.7666,-1.8753,-1.9925,-2.0815,-2.1262,-2.1262,-2.1225,-2.1211,-2.1211,-2.1211,-2.1211,-2.1211,-2.1211,-2.1211,-2.1247,-2.1576,-2.1906,-2.2271,-0.6979,-0.6979,-0.7228,-0.791,-0.8752,-0.9428,-0.9707,-1.0945,-1.1702,-1.1364,-1.2103,-1.2881,-1.3561,-1.3296,-1.3121,-1.3277,-1.27,-1.2525,-1.302,-1.2369,-1.1929,-1.1895,-1.1388,-1.0866,-1.0321,-0.9842,-1.0026,-1.0901,-1.0827,-1.1113,-1.166,-1.0693,-1.0581,-1.1176,-1.0261,-1.0566,-1.1868,-1.2575,-1.3282,-1.3744,-1.2184,-1.1797,-1.2164,-1.0496,-0.9752,-0.9682,-0.9984,-1.0003,-0.9885,-0.9842,-0.9696,-0.9488,-0.9271,0.0,0.0,-0.8392,0.0,-0.7924,-0.7758,0.0,0.0,0.0,0.0,0.0,-0.9124,-0.9927,-1.0512,-0.9995,-1.0793,-1.1426,-1.1206,-1.1168,-1.1263,-1.1624,-1.1763,-1.212,-1.2933,-1.2783,-1.2701,-1.3084,-1.3131,-1.3159,-1.3244,-1.341,-1.3594,-1.3797,-1.4123,-1.4407,-1.4619,-1.4671,-1.4766,-1.4926,-1.4931,-1.4931,-1.4931,-1.6043,-1.6567,-1.6762,-1.9026,-2.0097,-2.0234,-2.1149,-2.1606,-2.1591,-2.132,-2.1211,-2.1211,-2.1211,-2.1211,-2.1211,-2.1211,-2.1211,-2.1247,-2.1576,-2.1906,-2.2271,-0.6979,-0.6979,-0.7157,-0.7725,-0.8306,-0.9001,-0.9802,-1.0814,-1.1714,-1.2236,-1.305,-1.3818,-1.4423,-1.4313,-1.4277,-1.4469,-1.3928,-1.358,-1.3589,-1.2871,-1.242,-1.242,-1.1463,-1.0875,-1.0875,-1.033,-1.0312,-1.0901,-1.1113,-1.1291,-1.151,-1.0781,-1.0738,-1.1185,-1.049,-1.0979,-1.2337,-1.3036,-1.3846,-1.4457,-1.2667,-1.2186,-1.2438,-1.0675,-0.9889,-0.9842,-1.0159,-1.0267,-1.0249,-1.0145,-1.0045,-0.9923,-0.9705,-0.9426,-0.9133,0.0,-0.8566,-0.8217,0.0,0.0,0.0,-0.824,0.0,0.0,0.0,-0.9505,-0.9892,-0.9644,-1.0236,-1.0856,-1.0791,-1.0735,-1.0905,-1.1435,-1.143,-1.1576,-1.2205,-1.238,-1.2517,-1.2729,-1.2852,-1.2918,-1.2918,-1.3107,-1.3315,-1.3523,-1.3925,-1.4208,-1.4317,-1.452,-1.4681,-1.478,-1.4879,-1.5187,-1.5954,-1.6597,-1.7686,-1.8963,-2.008,-2.0931,-2.1519,-2.1835,-2.1942,-2.1935,-2.1767,-2.1693,-2.1693,-2.1693,-2.1598,-2.1437,-2.1276,-2.1313,-2.1474,-2.1635,-2.1993,-2.2469,-0.7034,-0.7068,-0.7201,-0.7502,-0.7903,-0.8553,-0.9654,-1.0653,-1.1869,-1.3559,-1.4268,-1.4808,-1.5285,-1.5258,-1.534,-1.5661,-1.5331,-1.4854,-1.4268,-1.347,-1.3037,-1.2954,-1.1628,-1.1049,-1.148,-1.0838,-1.0698,-1.103,-1.1195,-1.1322,-1.1318,-1.0748,-1.0689,-1.0987,-1.0764,-1.1376,-1.2677,-1.3441,-1.4261,-1.4839,-1.3171,-1.2744,-1.2788,-1.0917,-1.013,-1.0149,-1.0282,-1.0438,-1.0556,-1.0433,-1.0395,-1.0357,-1.014,-0.9838,0.0,0.0,0.0,0.0,0.0,0.0,0.0,0.0,0.0,-0.8746,0.0,0.0,0.0,-0.9488,-0.9691,-0.9956,-1.0376,-1.0419,-1.056,-1.1075,-1.1113,-1.1165,-1.142,-1.1888,-1.2214,-1.2257,-1.2488,-1.2616,-1.2535,-1.2781,-1.3051,-1.3306,-1.3679,-1.391,-1.3948,-1.4307,-1.4529,-1.4567,-1.477,-1.5509,-1.691,-1.7216,-1.8646,-2.1076,-2.1085,-2.1596,-2.271,-2.2403,-2.2264,-2.2264,-2.2206,-2.2184,-2.2184,-2.2184,-2.203,-2.1767,-2.1503,-2.1518,-2.1715,-2.1832,-2.2191,-2.2674,-0.7074,-0.7235,-0.7515,-0.7822,-0.8497,-0.9091,-0.9268,-1.0997,-1.3094,-1.5159,-1.5194,-1.5331,-1.6092,-1.5845,0.0,0.0,0.0,0.0,-1.5469,-1.4744,-1.413,-1.3763,-1.3231,-1.2489,-1.1508,-1.1397,-1.137,-1.1416,-1.0858,-1.0848,-1.1259,-1.0359,-1.027,-1.101,-1.1265,-1.1813,-1.2709,-1.3966,-1.4405,-1.4253,-1.3653,-1.3529,-1.3638,-1.1533,-1.0787,-1.0768,-1.0598,-1.0551,-1.0598,-1.0768,-1.0825,-1.0787,-1.057,-1.0471,-1.0324,-0.9771,0.0,0.0,0.0,0.0,0.0,0.0,-0.8685,0.0,-0.8732,0.0,-0.9063,-0.9091,0.0,-0.9526,-0.9941,0.0,0.0,-0.9847,-1.0301,-1.0532,-1.0206,-1.0839,-1.1406,-1.16,-1.1968,-1.2068,-1.1694,-1.2176,-1.2673,-1.3074,-1.3325,-1.3537,-1.3717,-1.3953,-1.4166,-1.4345,-1.4558,-1.5297,-1.6673,-1.803,-1.9546,-2.1076,-2.2313,-2.293,-2.3047,-2.2718,-2.2571,-2.2557,-2.2293,-2.2184,-2.2184,-2.2184,-2.2162,-2.2125,-2.2089,-2.192,-2.1767,-2.2315,-2.2564,-2.2674,-0.7341,-0.7426,-0.7661,-0.8103,-0.8625,-0.918,-0.9841,-1.231,-1.4652,-1.6209,-1.6862,-1.7238,-1.7358,0.0,0.0,0.0,0.0,-1.656,0.0,0.0,-1.5221,-1.5294,-1.4011,-1.3004,-1.2337,-1.2246,-1.18,-1.1054,-1.1376,-1.1486,-1.1341,-1.093,-1.1044,-1.1606,-1.1956,-1.2615,-1.3529,-1.453,-1.5119,-1.5265,-1.4667,-1.4289,-1.3952,-1.1773,-1.0963,-1.0882,-1.0792,-1.0834,-1.0929,-1.0905,-1.0896,-1.0882,-1.0787,-1.0674,-1.0523,-1.0258,-0.9951,-0.9672,-0.9587,-0.9408,-0.9247,0.0,0.0,0.0,-0.9091,0.0,-0.9162,0.0,0.0,0.0,0.0,0.0,0.0,0.0,-0.9866,-1.006,-1.013,-1.0442,-1.0825,-1.1279,-1.1595,-1.1808,-1.1869,-1.2332,-1.2706,-1.288,-1.3088,-1.3291,-1.3504,-1.3712,-1.392,-1.4133,-1.4336,-1.5499,-1.7879,-1.8488,-2.0016,-2.2223,-2.2856,-2.3106,-2.3106,-2.2967,-2.2908,-2.2901,-2.2776,-2.2718,-2.2718,-2.2718,-2.2608,-2.2454,-2.2645,-2.252,-2.2264,-2.2528,-2.274,-2.2923,-0.7809,-0.7762,-0.7903,-0.8346,-0.8684,-0.9474,-1.1196,-1.3485,-1.567,-1.7324,-1.8238,-1.8687,-1.8623,-1.877,0.0,0.0,-1.8009,-1.7779,0.0,0.0,-1.6321,-1.6633,-1.5029,0.0,-1.3393,-1.3158,-1.2405,-1.114,-1.1774,-1.1884,-1.151,-1.1358,-1.147,-1.19,-1.2456,-1.3179,-1.4021,-1.4935,-1.5581,-1.5927,-1.5612,-1.4974,-1.4039,-1.1994,-1.1167,-1.1146,-1.1146,-1.1241,-1.1345,-1.1198,-1.1189,-1.1208,-1.1033,-1.091,-1.0797,-1.0622,-1.04,-1.0182,-1.0069,-0.9932,-0.9804,-0.9743,-0.9644,-0.953,-0.9436,0.0,0.0,0.0,-0.9138,0.0,0.0,0.0,-0.9256,-0.9299,0.0,-0.9521,-0.9653,-0.9823,-1.0182,-1.0863,-1.1132,-1.1468,-1.2002,-1.2328,-1.2507,-1.2507,-1.2805,-1.3027,-1.3126,-1.3433,-1.3679,-1.3835,-1.4095,-1.5649,-1.8408,-1.8678,-2.0106,-2.2974,-2.3062,-2.3106,-2.3106,-2.3106,-2.3106,-2.3106,-2.3106,-2.3106,-2.3106,-2.3106,-2.2974,-2.2776,-2.3018,-2.2959,-2.2754,-2.2754,-2.2908,-2.3106,-0.835,-0.8393,-0.835,-0.842,-0.8844,-1.0221,-1.33,-1.4385,-1.5886,-1.8861,-1.8926,-1.9008,0.0,0.0,0.0,0.0,0.0,-1.8513,-1.8128,0.0,-1.744,-1.7458,0.0,-1.5714,0.0,-1.4152,-1.3401,-1.2244,-1.1689,-1.1605,-1.1888,-1.1263,-1.1177,-1.1551,-1.2607,-1.3267,-1.3688,-1.5078,-1.5475,-1.5322,-1.6372,-1.5773,-1.4161,-1.2394,-1.1775,-1.1789,-1.1789,-1.1794,-1.1798,-1.1789,-1.1926,-1.1992,-1.1378,-1.1326,-1.1368,-1.0754,-1.0712,-1.0778,-1.0371,-1.0258,-1.0206,-1.0081,-0.9634,-0.9389,-0.9503,-0.9474,-0.9266,0.0,0.0,0.0,0.0,0.0,0.0,0.0,0.0,0.0,0.0,-0.868,-0.937,-1.0206,-1.048,-1.0924,-1.1746,-1.1841,-1.1846,-1.1846,-1.2427,-1.2687,-1.2484,-1.306,-1.34,-1.341,-1.3807,-1.5222,-1.7871,-1.8495,-2.0002,-2.2645,-2.2959,-2.3106,-2.3106,-2.3106,-2.3106,-2.3106,-2.3106,-2.3106,-2.3106,-2.3106,-2.3098,-2.3091,-2.3106,-2.3098,-2.3091,-2.3091,-2.3098,-2.3106,-0.8657,-0.8657,-0.8717,-0.8918,-0.9432,-1.0854,-1.3982,-1.5707,-1.7294,-1.9034,-1.9888,-2.0301,0.0,-2.042,-2.0338,0.0,0.0,-1.9742,-1.9347,-1.9191,0.0,0.0,0.0,-1.6571,0.0,-1.4719,-1.3899,-1.2076,-1.2134,-1.2077,-1.1961,-1.1783,-1.186,-1.2234,-1.3052,-1.3743,-1.4363,-1.5531,-1.6292,-1.6583,-1.6594,-1.6227,-1.5492,-1.2786,-1.1817,-1.1817,-1.1817,-1.1817,-1.1817,-1.1817,-1.1869,-1.1888,-1.1676,-1.1657,-1.1619,-1.1127,-1.1038,-1.1033,-1.0759,-1.0783,-1.0801,-1.0452,-1.0362,-1.031,-1.0107,-0.9894,-0.9719,-0.9649,0.0,0.0,0.0,0.0,0.0,0.0,0.0,0.0,0.0,-0.8675,-0.9015,-0.9578,-1.0192,-1.0792,-1.135,-1.1657,-1.1817,-1.1817,-1.2276,-1.2517,-1.2446,-1.2781,-1.3102,-1.3381,-1.434,-1.585,-1.7841,-1.9178,-2.0686,-2.2623,-2.2952,-2.3106,-2.3106,-2.3106,-2.3106,-2.3106,-2.3106,-2.3106,-2.3106,-2.3106,-2.3106,-2.3106,-2.3106,-2.3106,-2.3106,-2.3106,-2.3106,-2.3106,-0.8965,-0.8965,-0.9018,-0.915,-0.9987,-1.1586,-1.4561,-1.6073,-1.7506,-1.9498,-2.0277,-2.077,-2.1067,-2.1383,-2.1438,0.0,-2.1034,-2.0842,-2.0594,-2.0301,0.0,-1.8816,-1.8455,0.0,0.0,-1.524,-1.4362,-1.2766,-1.2704,-1.2583,-1.2401,-1.2274,-1.2409,-1.2782,-1.3465,-1.4164,-1.4895,-1.5817,-1.669,-1.7454,-1.6899,-1.6546,-1.5999,-1.3545,-1.2665,-1.257,-1.2235,-1.22,-1.2261,-1.2261,-1.2261,-1.2233,-1.2087,-1.2039,-1.1954,-1.1539,-1.1472,-1.1472,-1.1194,-1.1212,-1.1227,-1.0882,-1.0849,-1.0844,-1.0645,-1.0381,-1.0154,-1.0078,-0.9842,0.0,0.0,0.0,0.0,0.0,0.0,0.0,0.0,-0.8481,-0.8633,-0.9053,-0.9776,-1.0438,-1.0924,-1.135,-1.1628,-1.1704,-1.2025,-1.2252,-1.2328,-1.2535,-1.2843,-1.3258,-1.4154,-1.5647,-1.7696,-1.8816,-2.0442,-2.2469,-2.2784,-2.2996,-2.3106,-2.3106,-2.3106,-2.3106,-2.3106,-2.3106,-2.3106,-2.3106,-2.3106,-2.3106,-2.3106,-2.3106,-2.3106,-2.3106,-2.3106,-2.3106,-0.925,-0.9269,-0.9296,-0.9309,-1.0598,-1.2466,-1.498,-1.5525,-1.6818,-2.0036,-2.0139,-2.0491,-2.2172,-2.2355,-2.2355,-2.2355,-2.2016,-2.1786,-2.1768,-2.1034,0.0,0.0,-1.9153,-1.7978,-1.6352,-1.5625,0.0,-1.414,-1.3465,-1.3132,-1.3108,-1.2774,-1.279,-1.3147,-1.3831,-1.4538,-1.5253,-1.596,-1.6873,-1.7842,-1.724,-1.6593,-1.5805,-1.4613,-1.4202,-1.4142,-1.3155,-1.2904,-1.3065,-1.3065,-1.3065,-1.2999,-1.2597,-1.2469,-1.2389,-1.1983,-1.2002,-1.2063,-1.1661,-1.1548,-1.1491,-1.1269,-1.1066,-1.0972,-1.1156,-1.0882,-1.0537,-1.0357,-0.9984,-0.9691,-0.9691,-0.9507,0.0,0.0,0.0,0.0,-0.8155,-0.8094,-0.8245,-0.8637,-0.9247,-0.9871,-1.0485,-1.092,-1.1255,-1.1487,-1.1699,-1.1912,-1.2129,-1.2328,-1.2635,-1.3055,-1.3379,-1.4748,-1.7325,-1.7827,-1.9422,-2.2162,-2.2476,-2.2784,-2.3084,-2.3098,-2.3106,-2.3106,-2.3106,-2.3106,-2.3106,-2.3106,-2.3106,-2.3106,-2.3106,-2.3106,-2.3106,-2.3106,-2.3106,-2.3106,-1.0221,-1.0568,-1.0935,-1.1156,-1.2706,-1.4267,-1.5238,-1.7327,-1.9146,-2.0192,-2.1122,-2.1934,-2.2647,-2.2795,-2.2795,-2.2795,-2.261,-2.2511,-2.2199,-2.1979,-2.1239,-1.9861,-1.9639,-1.8676,-1.6637,-1.6223,-1.5479,-1.4506,-1.4069,-1.3711,-1.3457,-1.3362,-1.337,-1.3489,-1.4188,-1.4895,-1.5618,-1.6587,-1.766,-1.8505,-1.7559,-1.7211,-1.7036,-1.519,-1.4643,-1.4707,-1.3477,-1.3022,-1.3065,-1.3065,-1.3065,-1.3046,-1.2937,-1.2904,-1.2857,-1.2602,-1.2446,-1.2309,-1.2049,-1.1983,-1.1893,-1.1524,-1.1397,-1.1331,-1.1222,-1.0995,-1.0839,-1.0938,-1.0627,-1.0334,-1.0334,-1.0036,-0.9738,0.0,0.0,0.0,0.0,0.0,-0.8359,-0.8467,-0.9025,-0.9592,-1.0064,-1.049,-1.0886,-1.125,-1.1614,-1.1912,-1.2129,-1.2328,-1.2635,-1.3055,-1.4923,-1.6407,-1.7443,-1.9619,-2.1135,-2.1825,-2.2367,-2.2667,-2.2754,-2.3003,-2.3106,-2.3106,-2.3106,-2.3106,-2.3106,-2.3355,-2.3479,-2.3479,-2.3479,-2.3355,-2.3106,-2.3106,-2.3106,-2.3106,-1.1196,-1.171,-1.2298,-1.2592,-1.4055,-1.5253,-1.5381,-1.739,-1.9188,-2.0172,-2.1292,-2.2272,-2.3067,-2.3112,-2.3281,-2.3464,-2.3318,-2.3189,-2.3125,-2.2795,-2.1859,-2.043,-2.0201,-1.9204,-1.7199,-1.6742,0.0,-1.5554,-1.4903,-1.4482,-1.4283,-1.4117,-1.4132,-1.4307,-1.4855,-1.5396,-1.5999,-1.7374,-1.8312,-1.8915,-1.8651,-1.7977,0.0,-1.584,-1.4896,-1.4301,-1.3577,-1.3339,-1.3339,-1.3339,-1.3339,-1.3325,-1.3235,-1.3206,-1.3164,-1.2961,-1.281,-1.2687,-1.2578,-1.2479,-1.2332,-1.2002,-1.1921,-1.1865,-1.1657,-1.1378,-1.1198,-1.1312,-1.1005,-1.074,-1.083,-1.0504,-1.0126,0.0,0.0,0.0,0.0,0.0,0.0,-0.8675,-0.9058,-0.9455,-0.9786,-1.0362,-1.0849,-1.117,-1.1411,-1.1718,-1.212,-1.2157,-1.2403,-1.2918,-1.503,-1.6619,-1.7487,-1.9884,-2.1416,-2.2052,-2.255,-2.2855,-2.2996,-2.3331,-2.3487,-2.3487,-2.3487,-2.3487,-2.3611,-2.3736,-2.386,-2.386,-2.386,-2.3736,-2.3487,-2.3487,-2.3479,-2.3355,-1.2158,-1.2819,-1.3474,-1.3768,-1.505,-1.5893,-1.5575,-1.6892,-1.8473,-2.0271,-2.1242,-2.2215,-2.356,-2.3703,-2.3868,-2.428,-2.3987,-2.3932,-2.429,-2.3556,-2.2479,-2.1285,-2.0701,-1.9659,-1.801,-1.727,-1.6873,-1.673,-1.5833,-1.534,-1.5245,-1.4927,-1.4943,-1.5268,-1.5594,-1.6015,-1.6587,-1.8208,-1.8934,-1.9182,-1.9704,-1.8541,-1.6442,-1.6618,-1.5396,-1.3683,-1.3861,-1.3808,-1.3688,-1.3688,-1.3688,-1.366,-1.3485,-1.3429,-1.3391,-1.3202,-1.3131,-1.3107,-1.3107,-1.2961,-1.2762,-1.2569,-1.2502,-1.2432,-1.2224,-1.1898,-1.1628,-1.1605,-1.1288,-1.1071,-1.1246,-1.0938,-1.0527,-1.014,0.0,0.0,0.0,0.0,0.0,0.0,0.0,0.0,-0.9757,-1.0371,-1.091,-1.1137,-1.1253,-1.153,-1.2063,-1.1917,-1.2202,-1.2928,-1.4719,-1.631,-1.7824,-1.961,-2.1191,-2.2559,-2.294,-2.3268,-2.3543,-2.3932,-2.4108,-2.4108,-2.4108,-2.4108,-2.4108,-2.4108,-2.4108,-2.4108,-2.4232,-2.4232,-2.4108,-2.4232,-2.3984,-2.3736,-1.3701,-1.4021,-1.4382,-1.4683,-1.6104,-1.695,-1.6231,-1.8257,-2.0306,-2.1621,-2.2558,-2.3526,-2.4482,-2.4565,-2.4721,-2.5124,-2.5087,-2.5078,-2.5152,-2.439,-2.3511,-2.2352,-2.138,-2.0163,-1.8653,-1.8232,-1.7604,-1.673,-1.6555,-1.6166,-1.5586,-1.5523,-1.5531,-1.5602,-1.596,-1.6786,-1.7993,-1.8891,-1.9549,-1.976,-1.9258,-1.8794,-1.831,-1.7635,-1.6443,-1.5166,-1.5203,-1.4634,-1.3688,-1.3688,-1.3688,-1.3684,-1.3646,-1.3636,-1.3627,-1.3594,-1.3462,-1.3334,-1.3334,-1.3178,-1.3003,-1.2965,-1.2833,-1.2654,-1.2436,-1.2328,-1.2228,-1.2063,-1.1831,-1.1666,-1.1704,-1.1368,-1.1009,-1.0768,-1.0731,0.0,0.0,0.0,0.0,0.0,0.0,-1.0226,-1.0514,-1.0459,-1.0542,-1.092,-1.1331,-1.1609,-1.1841,-1.2147,-1.286,-1.3893,-1.5957,-1.7665,-1.8978,-2.09,-2.1904,-2.2208,-2.281,-2.3131,-2.32,-2.3825,-2.4108,-2.4108,-2.4108,-2.4108,-2.4108,-2.4355,-2.4487,-2.4487,-2.4857,-2.461,-2.4108,-2.4734,-2.4734,-2.4355,-1.4543,-1.4897,-1.5244,-1.5391,-1.6367,-1.7343,-1.8247,-1.9508,-2.0553,-2.1172,-2.29,-2.4335,-2.4739,-2.4968,-2.5161,-2.5353,-2.5372,-2.5372,-2.5372,-2.5005,-2.4278,-2.2937,-2.2214,-2.1067,-1.9646,-1.8939,-1.8327,-1.7819,-1.7453,-1.7008,-1.6508,-1.6508,-1.6404,-1.6246,-1.6786,-1.7699,-1.8891,-1.9407,-2.0039,-2.0648,-2.0157,-1.975,-1.9445,-1.8804,-1.7778,-1.6756,-1.6776,-1.6351,-1.5638,-1.4333,-1.3925,-1.4014,-1.4014,-1.4014,-1.4014,-1.4014,-1.3944,-1.3844,-1.374,-1.3636,-1.3504,-1.3287,-1.3159,-1.3032,-1.2814,-1.2682,-1.255,-1.2337,-1.2214,-1.2072,-1.1855,-1.1746,-1.1581,-1.1269,-1.1217,0.0,0.0,0.0,0.0,0.0,0.0,0.0,0.0,-1.0845,-1.1066,-1.1404,-1.192,-1.2117,-1.195,-1.2294,-1.3153,-1.4358,-1.6472,-1.8151,-1.9646,-2.1609,-2.2562,-2.257,-2.3076,-2.3403,-2.359,-2.4104,-2.4439,-2.461,-2.461,-2.461,-2.461,-2.4734,-2.4857,-2.4857,-2.4988,-2.4857,-2.461,-2.4988,-2.4988,-2.4857,-1.5244,-1.5658,-1.6032,-1.6099,-1.6881,-1.8082,-1.9907,-2.0829,-2.1387,-2.1387,-2.334,-2.4849,-2.5014,-2.5307,-2.5527,-2.5619,-2.5628,-2.5628,-2.5628,-2.5546,-2.4927,-2.3444,-2.298,-2.2063,-2.0512,-1.9693,-1.9161,-1.8939,-1.8303,-1.7636,-1.6945,-1.7247,-1.727,-1.7096,-1.7715,-1.8549,-1.9503,-1.9916,-2.0615,-2.136,-2.138,-2.0985,-2.0558,-2.0188,-1.9374,-1.8374,-1.812,-1.8034,-1.7653,-1.4991,-1.4461,-1.4678,-1.4433,-1.4312,-1.4312,-1.4312,-1.4312,-1.4274,-1.4118,-1.4076,-1.3996,-1.367,-1.3556,-1.3466,-1.3249,-1.3046,-1.2838,-1.2616,-1.2502,-1.2337,-1.2011,-1.2054,-1.2016,-1.1642,-1.1581,-1.1581,0.0,0.0,0.0,0.0,0.0,0.0,-1.1263,-1.1482,-1.1744,-1.2345,-1.2607,-1.2579,-1.2183,-1.2663,-1.3588,-1.4904,-1.6982,-1.8851,-2.0201,-2.2092,-2.3014,-2.3022,-2.3379,-2.3721,-2.4063,-2.442,-2.4778,-2.5111,-2.5111,-2.5111,-2.5111,-2.5111,-2.5111,-2.5111,-2.5111,-2.5111,-2.5111,-2.5111,-2.5111,-2.5111,-1.6152,-1.6406,-1.6707,-1.6981,-1.8765,-1.9923,-1.9339,-2.2239,-2.4352,-2.4352,-2.4628,-2.506,-2.5775,-2.5885,-2.6059,-2.6444,-2.6472,-2.6472,-2.6472,-2.6114,-2.5459,-2.4253,-2.3768,-2.2708,-2.0885,-2.0774,-2.0265,-1.932,-1.8923,-1.7731,-1.5856,-1.7127,-1.7882,-1.8168,-1.8557,-1.9137,-1.9868,-2.0535,-2.1068,-2.1505,-2.2132,-2.2198,-2.185,-2.2166,-2.1328,-1.9956,-1.8652,-1.8374,-1.8179,-1.5448,-1.5327,-1.6027,-1.4678,-1.4312,-1.4312,-1.4312,-1.4312,-1.4307,-1.4288,-1.4284,-1.4274,-1.4232,-1.409,-1.3896,-1.3679,-1.3476,-1.3268,-1.3055,-1.2706,-1.2427,-1.2389,-1.2247,-1.2063,-1.1827,-1.1789,-1.1789,0.0,0.0,0.0,0.0,0.0,0.0,-1.2058,-1.2136,-1.2511,-1.3533,-1.2931,-1.2368,-1.2339,-1.3424,-1.4637,-1.5786,-1.8413,-2.031,-2.1426,-2.2442,-2.3014,-2.3022,-2.3379,-2.3721,-2.4063,-2.442,-2.4778,-2.5111,-2.5111,-2.5111,-2.5111,-2.5111,-2.5111,-2.5111,-2.5111,-2.5111,-2.5111,-2.5111,-2.5111,-2.5111,-1.6533,-1.6774,-1.7211,-1.8027,-1.917,-2.0392,-2.137,-2.3065,-2.4462,-2.535,-2.5491,-2.561,-2.5922,-2.6188,-2.6408,-2.6573,-2.6591,-2.6591,-2.6591,-2.6435,-2.5784,-2.4683,-2.4213,-2.3335,-2.1862,-2.1449,-2.0933,-2.0305,-1.994,-1.9121,-1.7906,-1.847,-1.8804,-1.8962,-1.9519,-2.0043,-2.0543,-2.1242,-2.1743,-2.2092,-2.237,-2.2498,-2.2592,-2.2628,-2.2322,-2.192,-2.1374,-2.1357,-2.1389,-1.9443,-1.7915,-1.6567,-1.5061,-1.4685,-1.4685,-1.4685,-1.4685,-1.4657,-1.4539,-1.4506,-1.4473,-1.4345,-1.4251,-1.417,-1.4081,-1.3906,-1.3703,-1.3485,-1.3107,-1.2814,-1.2814,-1.2976,-1.2915,-1.2512,-1.2598,-1.2622,-1.2191,0.0,0.0,0.0,0.0,0.0,0.0,-1.2936,-1.3403,-1.4268,-1.3946,-1.3831,-1.3901,-1.4742,-1.5954,-1.7313,-1.9049,-2.0528,-2.185,-2.2664,-2.3014,-2.3014,-2.3165,-2.3514,-2.4055,-2.4198,-2.4571,-2.5111,-2.5111,-2.5111,-2.5111,-2.5111,-2.5111,-2.5111,-2.5111,-2.5111,-2.5111,-2.5111,-2.5111,-2.5111,-1.744,-1.7702,-1.8247,-1.9066,-2.0174,-2.1317,-2.2603,-2.3659,-2.4757,-2.5815,-2.6068,-2.6142,-2.6142,-2.6408,-2.6591,-2.6591,-2.6591,-2.6591,-2.6591,-2.6591,-2.6026,-2.4898,-2.4538,-2.3804,-2.249,-2.2005,-2.1584,-2.1227,-2.0877,-2.0194,-1.9209,-1.9105,-1.9391,-2.0003,-2.0488,-2.0901,-2.1266,-2.1862,-2.2259,-2.2498,-2.2601,-2.2791,-2.303,-2.2906,-2.3051,-2.3169,-2.2878,-2.321,-2.352,-2.1645,-1.9789,-1.8012,-1.624,-1.5564,-1.5257,-1.5134,-1.4876,-1.4733,-1.4652,-1.4633,-1.461,-1.4515,-1.4449,-1.4407,-1.4407,-1.4246,-1.4038,-1.383,-1.3499,-1.3346,-1.3399,-1.3547,-1.3628,-1.3526,-1.3563,-1.3515,-1.3073,-1.2891,0.0,-1.2638,-1.2349,0.0,-1.3122,-1.3367,-1.3808,-1.4725,-1.4891,-1.4898,-1.4839,-1.5786,-1.6885,-1.8205,-1.9779,-2.1114,-2.2116,-2.2712,-2.3014,-2.3014,-2.3117,-2.3483,-2.4063,-2.4269,-2.4635,-2.5111,-2.5111,-2.5111,-2.5111,-2.5111,-2.5226,-2.5349,-2.5234,-2.5226,-2.5349,-2.5349,-2.5349,-2.5472,-1.9051,-1.9567,-1.9898,-2.0244,-2.2124,-2.3296,-2.2116,-2.4269,-2.5958,-2.5958,-2.6325,-2.6582,-2.6582,-2.6582,-2.6591,-2.6591,-2.6591,-2.6591,-2.6591,-2.6591,-2.6026,-2.4898,-2.4778,-2.4055,-2.249,-2.2474,-2.2299,-2.1941,-2.16,-2.0543,-1.8827,-1.8478,-1.9423,-2.1425,-2.1433,-2.1624,-2.1973,-2.2331,-2.2482,-2.2521,-2.2871,-2.3014,-2.3054,-2.3403,-2.3528,-2.3518,-2.2348,-2.2921,-2.3668,-2.0591,-2.0361,-2.0985,-1.8381,-1.6974,-1.6043,-1.5431,-1.4812,-1.4364,-1.4577,-1.4633,-1.4681,-1.4874,-1.4775,-1.4629,-1.4629,-1.4463,-1.4251,-1.4048,-1.3835,-1.3856,-1.4229,-1.4114,-1.4189,-1.4885,-1.4793,-1.463,-1.4624,-1.4424,-1.4062,-1.3413,-1.2911,-1.2815,-1.3254,-1.3209,-1.3705,-1.486,-1.5323,-1.5181,-1.467,-1.6401,-1.7583,-1.807,-2.0888,-2.2482,-2.2482,-2.2831,-2.3014,-2.3022,-2.3371,-2.3721,-2.407,-2.4778,-2.5103,-2.5111,-2.5111,-2.5111,-2.5111,-2.5111,-2.5472,-2.6075,-2.5349,-2.5472,-2.6075,-2.6075,-2.6075,-2.6197,-1.8713,-1.9556,-2.0401,-2.1248,-2.2872,-2.4239,-2.4667,-2.5676,-2.6389,-2.6389,-2.6509,-2.6591,-2.6591,-2.6591,-2.6591,-2.6591,-2.6591,-2.6591,-2.6591,-2.6591,-2.6026,-2.4898,-2.4778,-2.4172,-2.2847,-2.2847,-2.2672,-2.2323,-2.2212,-2.1743,-2.0964,-2.0845,-2.1155,-2.1806,-2.2045,-2.222,-2.2339,-2.2696,-2.2847,-2.2855,-2.2974,-2.3014,-2.3054,-2.3403,-2.3644,-2.3984,-2.3836,-2.4177,-2.4548,-2.3078,-2.2818,-2.2595,-2.0934,-1.9363,-1.7854,-1.6511,-1.6393,-1.6285,-1.5388,-1.5413,-1.5725,-1.5946,-1.5696,-1.543,-1.609,-1.6079,-1.5851,-1.5742,-1.5632,-1.5512,-1.5523,-1.5639,-1.5538,-1.5264,-1.5371,-1.5328,-1.4885,-1.482,-1.4822,-1.4762,-1.4465,-1.4367,-1.4778,-1.4769,-1.5136,-1.6112,-1.6367,-1.6295,-1.6274,-1.7609,-1.8759,-1.9398,-2.1456,-2.249,-2.249,-2.2839,-2.3014,-2.3022,-2.3379,-2.3848,-2.4428,-2.4897,-2.5111,-2.5111,-2.5111,-2.5111,-2.5111,-2.5586,-2.5953,-2.6075,-2.6327,-2.6571,-2.6692,-2.6692,-2.6692,-2.6692,-1.9825,-2.0611,-2.1518,-2.2727,-2.4147,-2.5207,-2.5523,-2.6191,-2.6591,-2.6591,-2.6591,-2.6591,-2.6591,-2.6591,-2.6591,-2.6591,-2.6591,-2.6591,-2.6591,-2.6364,-2.5798,-2.4889,-2.4565,-2.4016,-2.3014,-2.3014,-2.2903,-2.2688,-2.2688,-2.2569,-2.2355,-2.2355,-2.2355,-2.2363,-2.2585,-2.2688,-2.2696,-2.2919,-2.3014,-2.3014,-2.3014,-2.3014,-2.307,-2.3554,-2.3864,-2.411,-2.4603,-2.4921,-2.5032,-2.4306,-2.3992,-2.3607,-2.2559,-2.1358,-2.0071,-1.8154,-1.7799,-1.7588,-1.6363,-1.6279,-1.6585,-1.6463,-1.6213,-1.6212,-1.6824,-1.6894,-1.6721,-1.661,-1.6561,-1.6485,-1.6486,-1.6605,-1.6623,-1.6345,-1.6345,-1.6263,-1.5835,-1.5818,-1.5727,-1.5578,-1.5412,-1.5361,-1.5636,-1.5618,-1.594,-1.6687,-1.6793,-1.7021,-1.752,-1.8777,-1.9613,-1.9975,-2.1719,-2.2688,-2.2688,-2.2903,-2.3077,-2.322,-2.3705,-2.4229,-2.4785,-2.5008,-2.5111,-2.5111,-2.5111,-2.5226,-2.5472,-2.5953,-2.6441,-2.6805,-2.6935,-2.7177,-2.7418,-2.7418,-2.7418,-2.7418,-2.1937,-2.2561,-2.3108,-2.4573,-2.5878,-2.6327,-2.5197,-2.5988,-2.6664,-2.6664,-2.6664,-2.6655,-2.6628,-2.6655,-2.6655,-2.6628,-2.6628,-2.6637,-2.6664,-2.6107,-2.5538,-2.4864,-2.4298,-2.3729,-2.3054,-2.303,-2.3014,-2.3014,-2.3014,-2.3014,-2.3014,-2.3014,-2.3014,-2.3014,-2.3014,-2.3014,-2.3014,-2.3014,-2.3014,-2.3014,-2.3014,-2.303,-2.3125,-2.3792,-2.4063,-2.4182,-2.4865,-2.5111,-2.5,-2.4317,-2.4086,-2.3967,-2.33,-2.3085,-2.2609,-2.012,-1.9061,-1.8421,-1.7625,-1.7457,-1.7288,-1.6585,-1.6593,-1.6838,-1.706,-1.712,-1.7071,-1.6859,-1.6816,-1.6987,-1.7354,-1.7236,-1.719,-1.7757,-1.7666,-1.7418,-1.7159,-1.7117,-1.6791,-1.5971,-1.5925,-1.5919,-1.5919,-1.5902,-1.6121,-1.67,-1.6812,-1.726,-1.8551,-1.9685,-2.0293,-2.0026,-2.1933,-2.3014,-2.3014,-2.3014,-2.3205,-2.3586,-2.4261,-2.477,-2.5111,-2.5111,-2.5111,-2.5111,-2.5111,-2.5472,-2.6075,-2.6197,-2.6926,-2.79,-2.7418,-2.7539,-2.802,-2.802,-2.802,-2.814,-2.195,-2.3053,-2.412,-2.5486,-2.667,-2.7368,-2.7133,-2.7368,-2.749,-2.749,-2.749,-2.737,-2.7068,-2.7306,-2.7361,-2.7068,-2.704,-2.7169,-2.7471,-2.7368,-2.6793,-2.5634,-2.5264,-2.4553,-2.3419,-2.3149,-2.3014,-2.3014,-2.3014,-2.3014,-2.3014,-2.3014,-2.3014,-2.3014,-2.3014,-2.3014,-2.3014,-2.3014,-2.3014,-2.3014,-2.3014,-2.3181,-2.3467,-2.3896,-2.4221,-2.4515,-2.4952,-2.5111,-2.504,-2.4603,-2.446,-2.438,-2.3943,-2.3808,-2.334,-2.1054,-2.0565,-2.0587,-1.9146,-1.8719,-1.8568,-1.8608,-1.8324,-1.8063,-1.7615,-1.803,-1.8542,-1.8483,-1.8471,-1.8516,-1.8381,-1.8286,-1.8231,-1.7943,-1.7823,-1.769,-1.7424,-1.7394,-1.7364,-1.7065,-1.6887,-1.6762,-1.6762,-1.6589,-1.68,-1.7576,-1.7576,-1.8138,-1.933,-2.033,-2.0989,-2.1149,-2.2394,-2.3014,-2.3014,-2.3014,-2.3324,-2.3935,-2.4372,-2.477,-2.5111,-2.5111,-2.5111,-2.5111,-2.5586,-2.5953,-2.6197,-2.7168,-2.7779,-2.802,-2.8379,-2.8618,-2.8746,-2.8746,-2.8746,-2.8746,-2.2787,-2.3999,-2.5294,-2.6584,-2.7404,-2.7765,-2.7765,-2.7765,-2.7765,-2.7765,-2.7765,-2.7618,-2.7215,-2.7526,-2.7682,-2.7462,-2.7444,-2.7536,-2.7746,-2.7537,-2.6955,-2.59,-2.549,-2.4812,-2.3777,-2.3586,-2.3411,-2.326,-2.326,-2.3173,-2.3014,-2.3014,-2.3014,-2.3014,-2.3014,-2.3014,-2.3014,-2.3014,-2.3014,-2.303,-2.3189,-2.3371,-2.3602,-2.4102,-2.4412,-2.4627,-2.4984,-2.5111,-2.5056,-2.4698,-2.4579,-2.4515,-2.4166,-2.4055,-2.3858,-2.2643,-2.2536,-2.2427,-2.1241,-2.0787,-2.0517,-1.9859,-1.9198,-1.859,-1.8324,-1.8715,-1.9078,-1.9078,-1.9078,-1.9036,-1.8891,-1.8764,-1.8589,-1.8294,-1.8034,-1.7823,-1.7678,-1.7557,-1.7485,-1.7485,-1.7358,-1.7267,-1.7267,-1.7141,-1.7279,-1.7729,-1.7729,-1.8356,-1.989,-2.0472,-2.0998,-2.1616,-2.2546,-2.3014,-2.3014,-2.3332,-2.3761,-2.4301,-2.465,-2.4921,-2.5103,-2.5472,-2.5594,-2.5586,-2.6197,-2.6684,-2.7047,-2.7659,-2.814,-2.8498,-2.8865,-2.8984,-2.8984,-2.8984,-2.8984,-2.8984,-2.415,-2.5336,-2.6528,-2.7824,-2.7948,-2.7948,-2.7948,-2.7948,-2.7948,-2.7948,-2.7948,-2.7801,-2.7407,-2.7719,-2.7921,-2.7866,-2.7911,-2.7948,-2.7948,-2.7497,-2.6911,-2.6304,-2.5562,-2.4959,-2.4362,-2.4196,-2.3912,-2.3626,-2.3626,-2.3467,-2.3173,-2.3173,-2.3173,-2.3173,-2.3173,-2.3173,-2.3173,-2.3173,-2.3173,-2.3197,-2.3499,-2.3649,-2.3761,-2.4356,-2.4619,-2.4698,-2.5,-2.5111,-2.5063,-2.4762,-2.4658,-2.4611,-2.4309,-2.4213,-2.4213,-2.4213,-2.4213,-2.4063,-2.3131,-2.2863,-2.2333,-2.0767,-1.9636,-1.8992,-1.9212,-1.917,-1.9078,-1.9078,-1.9078,-1.9078,-1.9078,-1.8891,-1.8728,-1.8692,-1.83,-1.7968,-1.7883,-1.7678,-1.7527,-1.7485,-1.7485,-1.7485,-1.7485,-1.7485,-1.7485,-1.7485,-1.7485,-1.8298,-2.0155,-2.027,-2.0723,-2.1737,-2.2554,-2.3038,-2.3093,-2.3901,-2.4515,-2.4699,-2.5181,-2.5349,-2.5349,-2.5953,-2.6197,-2.6319,-2.6935,-2.7418,-2.802,-2.814,-2.8498,-2.8984,-2.8984,-2.8984,-2.8984,-2.8984,-2.8984,-2.8984,-2.6044,-2.6713,-2.721,-2.8546,-2.8792,-2.8792,-2.8792,-2.8792,-2.8792,-2.8792,-2.8792,-2.8645,-2.8251,-2.8553,-2.8663,-2.8324,-2.8599,-2.8792,-2.8792,-2.8674,-2.8318,-2.7714,-2.6805,-2.5923,-2.532,-2.4553,-2.4023,-2.3975,-2.3975,-2.3943,-2.3888,-2.3888,-2.3888,-2.3888,-2.3888,-2.3888,-2.3888,-2.3888,-2.3888,-2.3896,-2.3951,-2.4158,-2.4428,-2.4539,-2.477,-2.5032,-2.5087,-2.5111,-2.5103,-2.5048,-2.5024,-2.5016,-2.496,-2.4944,-2.4944,-2.4944,-2.4944,-2.4809,-2.4095,-2.3338,-2.2401,-2.135,-2.0584,-1.9923,-1.9962,-1.9537,-1.9078,-1.9078,-1.9078,-1.9078,-1.9078,-1.9042,-1.8939,-1.8722,-1.8613,-1.8396,-1.7937,-1.7835,-1.7732,-1.7509,-1.7485,-1.7485,-1.7485,-1.7485,-1.7485,-1.7485,-1.7485,-1.8298,-2.0155,-2.027,-2.1074,-2.278,-2.2901,-2.3165,-2.3459,-2.4732,-2.5345,-2.5411,-2.6265,-2.6692,-2.6692,-2.6813,-2.6813,-2.6935,-2.7539,-2.79,-2.802,-2.8618,-2.8865,-2.8984,-2.8984,-2.8984,-2.8984,-2.8984,-2.8984,-2.8984,-2.6737,-2.7633,-2.8241,-2.8856,-2.8984,-2.8984,-2.8984,-2.8984,-2.8984,-2.8984,-2.8984,-2.8838,-2.8434,-2.8746,-2.8819,-2.8425,-2.8755,-2.8984,-2.8984,-2.8984,-2.8737,-2.802,-2.7245,-2.631,-2.5343,-2.4819,-2.4531,-2.4341,-2.4341,-2.4237,-2.4055,-2.4055,-2.4055,-2.4055,-2.4055,-2.4055,-2.4055,-2.4055,-2.4055,-2.407,-2.4261,-2.4436,-2.4603,-2.4793,-2.4968,-2.5111,-2.5111,-2.5111,-2.5111,-2.5111,-2.5111,-2.5111,-2.5111,-2.5111,-2.5111,-2.5111,-2.5111,-2.504,-2.4706,-2.3893,-2.3033,-2.2659,-2.1906,-2.1139,-2.0512,-2.0112,-1.9699,-1.92,-1.9078,-1.9078,-1.9078,-1.9078,-1.9036,-1.8915,-1.8776,-1.8595,-1.8348,-1.8058,-1.7829,-1.7708,-1.7569,-1.7485,-1.7485,-1.7485,-1.7485,-1.7485,-1.7485,-1.8064,-1.9461,-2.0185,-2.1198,-2.2483,-2.3063,-2.3669,-2.4675,-2.5238,-2.5869,-2.631,-2.6849,-2.7056,-2.7056,-2.7418,-2.7539,-2.7539,-2.8259,-2.8498,-2.8498,-2.8856,-2.8984,-2.8984,-2.8984,-2.8984,-2.8984,-2.8984,-2.8984,-2.8984,-2.7383,-2.8241,-2.8984,-2.8984,-2.8984,-2.8984,-2.8984,-2.8984,-2.8984,-2.8984,-2.8984,-2.8865,-2.8563,-2.8801,-2.8865,-2.8563,-2.881,-2.8984,-2.8984,-2.8984,-2.8737,-2.8259,-2.7539,-2.6692,-2.5349,-2.5349,-2.5098,-2.4706,-2.4706,-2.4563,-2.4301,-2.4301,-2.4301,-2.4301,-2.4301,-2.4301,-2.4301,-2.4301,-2.4301,-2.4317,-2.4595,-2.4706,-2.473,-2.5,-2.5111,-2.5111,-2.5111,-2.5111,-2.5111,-2.5111,-2.5111,-2.5111,-2.5111,-2.5111,-2.5111,-2.5111,-2.5111,-2.5111,-2.5111,-2.4487,-2.3984,-2.3984,-2.323,-2.223,-2.1215,-2.0829,-2.0329,-1.9328,-1.9078,-1.9078,-1.9078,-1.9078,-1.9078,-1.9078,-1.8909,-1.8752,-1.8692,-1.8324,-1.8016,-1.7889,-1.7696,-1.7551,-1.7491,-1.7485,-1.7509,-1.7569,-1.7575,-1.8183,-1.9422,-2.0337,-2.156,-2.2935,-2.3543,-2.4384,-2.5633,-2.5852,-2.6396,-2.7177,-2.7418,-2.7418,-2.7539,-2.802,-2.8259,-2.8259,-2.8746,-2.8984,-2.8984,-2.8984,-2.8984,-2.8984,-2.8984,-2.8984,-2.8984,-2.8984,-2.8984,-2.8984,-2.8618,-2.8984,-2.8984,-2.8984,-2.8984,-2.8984,-2.8984,-2.8984,-2.8984,-2.8984,-2.8984,-2.8975,-2.8938,-2.8966,-2.8975,-2.8938,-2.8966,-2.8984,-2.8984,-2.8984,-2.8984,-2.8984,-2.8259,-2.7289,-2.6075,-2.6075,-2.57,-2.5071,-2.5071,-2.5056,-2.5032,-2.5032,-2.5032,-2.5032,-2.5032,-2.5032,-2.5032,-2.5032,-2.5032,-2.5032,-2.5063,-2.5071,-2.5071,-2.5103,-2.5111,-2.5111,-2.5111,-2.5111,-2.5111,-2.5111,-2.5111,-2.5111,-2.5111,-2.5111,-2.5111,-2.5111,-2.5111,-2.5111,-2.5111,-2.5111,-2.498,-2.498,-2.4232,-2.3238,-2.2237,-2.1215,-2.0329,-1.9328,-1.9078,-1.9078,-1.9078,-1.9078,-1.9078,-1.9078,-1.906,-1.8963,-1.8716,-1.865,-1.8438,-1.7931,-1.7859,-1.775,-1.7503,-1.7485,-1.7581,-1.7829,-1.7847,-1.8791,-2.0863,-2.1145,-2.2475,-2.5312,-2.4859,-2.4883,-2.5641,-2.6472,-2.7272,-2.79,-2.8498,-2.8856,-2.8856,-2.8865,-2.8984,-2.8984,-2.8984,-2.8984,-2.8984,-2.8984,-2.8984,-2.8984,-2.8984,-2.8984,-2.8984,-2.8984,-2.8984,-2.8984,-2.8865,-2.8984,-2.8984,-2.8984,-2.8984,-2.8984,-2.8984,-2.8984,-2.8984,-2.8984,-2.8984,-2.8984,-2.8984,-2.8984,-2.8984,-2.8984,-2.8984,-2.8984,-2.8984,-2.8984,-2.8856,-2.8379,-2.814,-2.753,-2.6684,-2.6684,-2.6319,-2.5709,-2.5709,-2.5472,-2.5111,-2.5111,-2.5111,-2.5111,-2.5111,-2.5111,-2.5111,-2.5111,-2.5111,-2.5111,-2.5111,-2.5111,-2.5111,-2.5111,-2.5111,-2.5111,-2.5111,-2.5111,-2.5111,-2.5111,-2.5111,-2.5111,-2.5111,-2.5111,-2.5111,-2.5111,-2.5111,-2.5111,-2.5111,-2.5111,-2.5111,-2.5111,-2.4857,-2.4232,-2.3238,-2.223,-2.1215,-2.0202,-1.9577,-1.9078,-1.9078,-1.9078,-1.9078,-1.9078,-1.9078,-1.9042,-1.8939,-1.8782,-1.8607,-1.8402,-1.8233,-1.8094,-1.7998,-1.7986,-1.8264,-1.9076,-1.9083,-1.9846,-2.1752,-2.3021,-2.4499,-2.6464,-2.6231,-2.6352,-2.7073,-2.746,-2.802,-2.8618,-2.8865,-2.8984,-2.8984,-2.8984,-2.8984,-2.8984,-2.8984,-2.8984,-2.8984,-2.8984,-2.8984,-2.8984,-2.8984,-2.8984,-2.8984,-2.8984,-2.8984,-2.8984,-2.8984,-2.8984,-2.8984,-2.8984,-2.8984,-2.8984,-2.8984,-2.8984,-2.8984,-2.8984,-2.8984,-2.8984,-2.8984,-2.8984,-2.8984,-2.8984,-2.8984,-2.8984,-2.8984,-2.8984,-2.8737,-2.8379,-2.8259,-2.802,-2.7297,-2.7297,-2.7047,-2.6441,-2.6441,-2.6197,-2.5717,-2.5717,-2.5594,-2.5472,-2.5472,-2.5349,-2.5111,-2.5111,-2.5111,-2.5111,-2.5111,-2.5111,-2.5111,-2.5111,-2.5111,-2.5111,-2.5111,-2.5111,-2.5111,-2.5111,-2.5111,-2.5111,-2.5111,-2.5111,-2.5111,-2.5111,-2.5111,-2.5111,-2.5111,-2.5111,-2.5111,-2.5111,-2.5111,-2.4857,-2.386,-2.2856,-2.1853,-2.1215,-1.9954,-1.92,-1.945,-1.9328,-1.9078,-1.9078,-1.9078,-1.9078,-1.9078,-1.8921,-1.8776,-1.8692,-1.8771,-1.8865,-1.8784,-1.9016,-1.953,-2.0341,-2.0591,-2.1462,-2.3232,-2.5027,-2.6388,-2.7289,-2.7539,-2.79,-2.8259,-2.814,-2.8379,-2.8984,-2.8984,-2.8984,-2.8984,-2.8984,-2.8984,-2.8984,-2.8984,-2.8984,-2.8984,-2.8984,-2.8984,-2.8984,-2.8984,-2.8984,-2.8984,-2.8984,-2.8984,-2.8984,-2.8984,-2.8984,-2.8984,-2.8984,-2.8984,-2.8984,-2.8984,-2.8984,-2.8984,-2.8984,-2.8984,-2.8984,-2.8984,-2.8984,-2.8984,-2.8984,-2.8984,-2.8984,-2.8984,-2.8984,-2.8984,-2.8984,-2.8984,-2.8746,-2.802,-2.802,-2.7659,-2.7056,-2.7056,-2.7056,-2.7056,-2.7056,-2.6684,-2.6075,-2.6075,-2.5709,-2.5111,-2.5111,-2.5111,-2.5111,-2.5111,-2.5111,-2.5111,-2.5111,-2.5111,-2.5111,-2.5111,-2.5111,-2.5111,-2.5111,-2.5111,-2.5111,-2.5111,-2.5111,-2.5111,-2.5111,-2.5111,-2.5111,-2.5111,-2.5111,-2.5111,-2.5111,-2.5111,-2.4857,-2.386,-2.2863,-2.2111,-2.2111,-2.0469,-1.945,-2.0449,-1.9826,-1.9078,-1.9078,-1.9078,-1.9078,-1.9078,-1.9078,-1.8976,-1.8716,-1.9543,-2.0048,-1.9889,-2.0698,-2.1427,-2.1723,-2.2364,-2.3589,-2.5375,-2.7142,-2.802,-2.802,-2.8618,-2.8984,-2.8984,-2.8379,-2.8379,-2.8984,-2.8984,-2.8984,-2.8984,-2.8984,-2.8984,-2.8984,-2.8984,-2.8984,-2.8984,-2.8984,-2.8984,-2.8984,-2.8984,-2.8984,-2.8984,-2.8984,-2.8984,-2.8984,-2.8984,-2.8984,-2.8984,-2.8984,-2.8984,-2.8984,-2.8984,-2.8984,-2.8984,-2.8984,-2.8984,-2.8984,-2.8984,-2.8984,-2.8984,-2.8984,-2.8984,-2.8984,-2.8984,-2.8984,-2.8984,-2.8984,-2.8984,-2.8865,-2.8746,-2.8737,-2.8379,-2.7659,-2.7659,-2.7418,-2.7056,-2.7056,-2.6935,-2.6692,-2.6692,-2.6441,-2.5831,-2.5831,-2.5586,-2.5111,-2.5111,-2.5111,-2.5111,-2.5111,-2.5111,-2.5111,-2.5111,-2.5111,-2.5111,-2.5111,-2.5111,-2.5111,-2.5111,-2.5111,-2.5111,-2.5111,-2.5111,-2.5111,-2.5111,-2.5111,-2.5111,-2.5111,-2.5111,-2.498,-2.4734,-2.386,-2.3106,-2.3106,-2.2104,-2.1096,-2.0703,-2.0329,-1.9954,-1.92,-1.9078,-1.9078,-1.9078,-1.9078,-1.9297,-1.9966,-2.0333,-2.0671,-2.1341,-2.2058,-2.2835,-2.3671,-2.5392,-2.6661,-2.7263,-2.8131,-2.8737,-2.8737,-2.8865,-2.8984,-2.8984,-2.8746,-2.8746,-2.8984,-2.8984,-2.8984,-2.8984,-2.8984,-2.8984,-2.8984,-2.8984,-2.8984,-2.8984,-2.8984,-2.8984,-2.8984,-2.8984,-2.8984,-2.8984,-2.8984,-2.8984,-2.8984,-2.8984,-2.8984,-2.8984,-2.8984,-2.8984,-2.8984,-2.8984,-2.8984,-2.8984,-2.8984,-2.8984,-2.8984,-2.8984,-2.8984,-2.8984,-2.8984,-2.8984,-2.8984,-2.8984,-2.8984,-2.8984,-2.8984,-2.8984,-2.8984,-2.8984,-2.8984,-2.8746,-2.8379,-2.8379,-2.814,-2.7779,-2.7779,-2.7659,-2.7418,-2.7418,-2.6926,-2.6075,-2.6075,-2.5709,-2.5111,-2.5111,-2.5111,-2.5111,-2.5111,-2.5111,-2.5111,-2.5111,-2.5111,-2.5111,-2.5111,-2.5111,-2.5111,-2.5111,-2.5111,-2.5111,-2.5111,-2.5111,-2.5111,-2.5111,-2.5111,-2.5111,-2.5111,-2.5111,-2.4988,-2.461,-2.3984,-2.3487,-2.3106,-2.223,-2.1342,-2.0703,-2.0329,-1.9826,-1.92,-1.9078,-1.9078,-1.9078,-1.9078,-1.9322,-2.0075,-2.1076,-2.1832,-2.2591,-2.3829,-2.5056,-2.592,-2.728,-2.814,-2.8379,-2.8746,-2.8984,-2.8984,-2.8984,-2.8984,-2.8984,-2.8984,-2.8984,-2.8984,-2.8984,-2.8984,-2.8984,-2.8984,-2.8984,-2.8984,-2.8984,-2.8984,-2.8984,-2.8984,-2.9103,-2.9213,-2.9213,-2.9213,-2.9213,-2.9213,-2.9094,-2.8984,-2.8984,-2.8984,-2.8984,-2.8984,-2.8984,-2.8984,-2.8984,-2.8984,-2.8984,-2.8984,-2.8984,-2.8984,-2.8984,-2.8984,-2.8984,-2.8984,-2.8984,-2.8984,-2.8984,-2.8984,-2.8984,-2.8984,-2.8984,-2.8984,-2.8984,-2.8984,-2.8984,-2.8984,-2.8984,-2.8984,-2.8984,-2.8984,-2.8618,-2.814,-2.814,-2.7409,-2.6197,-2.6197,-2.5709,-2.5111,-2.5111,-2.5111,-2.5111,-2.5111,-2.5111,-2.5111,-2.5111,-2.5111,-2.5111,-2.5111,-2.5111,-2.5111,-2.5111,-2.5111,-2.5111,-2.5111,-2.5111,-2.5111,-2.5111,-2.5111,-2.5111,-2.498,-2.498,-2.4734,-2.386,-2.3487,-2.3238,-2.223,-2.1342,-2.0703,-2.0576,-1.9826,-1.92,-1.9072,-1.9078,-1.9078,-1.9078,-1.9078,-1.92,-1.9705,-2.1699,-2.3201,-2.3574,-2.5562,-2.7289,-2.802,-2.814,-2.8379,-2.8984,-2.8984,-2.8984,-2.8984,-2.8984,-2.8984,-2.8984,-2.8984,-2.8984,-2.8984,-2.8984,-2.8984,-2.8984,-2.8984,-2.8984,-2.8984,-2.8984,-2.8984,-2.8984,-2.8984,-2.9213,-2.944,-2.9568,-2.9568,-2.9568,-2.9568,-2.9331,-2.9103,-2.8984,-2.8984,-2.8984,-2.8984,-2.8984,-2.8984,-2.8984,-2.8984,-2.8984,-2.8984,-2.8984,-2.8984,-2.8984,-2.8984,-2.8984,-2.8984,-2.8984,-2.8984,-2.8984,-2.8984,-2.8984,-2.8984,-2.8984,-2.8984,-2.8984,-2.8984,-2.8984,-2.8984,-2.8984,-2.8984,-2.8984,-2.8984,-2.8865,-2.8746,-2.8746,-2.802,-2.6813,-2.6813,-2.6205,-2.5111,-2.5111,-2.5111,-2.5111,-2.5111,-2.5111,-2.5111,-2.5111,-2.5111,-2.5111,-2.5111,-2.5111,-2.5111,-2.5111,-2.5111,-2.5111,-2.5111,-2.5111,-2.5111,-2.5111,-2.5111,-2.4865,-2.4108,-2.3984,-2.386,-2.3611,-2.2981,-2.2355,-2.2111,-2.1985,-2.1475,-2.0703,-2.0449,-2.0081,-1.92,-1.9078,-1.9078,-1.9078,-1.9078,-1.9584,-2.0602,-2.2208,-2.3084,-2.3223,-2.5071,-2.6918,-2.8618,-2.8746,-2.8865,-2.8984,-2.8984,-2.8984,-2.8984,-2.8984,-2.8984,-2.8984,-2.9213,-2.9213,-2.8984,-2.8984,-2.8984,-2.8984,-2.8984,-2.8984,-2.8984,-2.8984,-2.8984,-2.8984,-2.9331,-2.945,-2.9558,-2.9686,-2.9804,-2.9804,-2.9804,-2.9804,-2.9686,-2.8984,-2.8984,-2.8984,-2.8984,-2.8984,-2.8984,-2.8984,-2.8984,-2.8984,-2.8984,-2.8984,-2.8984,-2.8984,-2.8984,-2.8984,-2.8984,-2.8984,-2.8984,-2.8984,-2.8984,-2.8984,-2.8984,-2.8984,-2.8984,-2.8984,-2.8984,-2.8984,-2.8984,-2.8984,-2.8984,-2.8984,-2.8984,-2.8984,-2.8984,-2.8984,-2.8259,-2.7056,-2.7056,-2.6205,-2.5111,-2.5111,-2.5111,-2.5111,-2.5111,-2.5111,-2.5111,-2.5111,-2.5111,-2.5111,-2.5111,-2.5111,-2.5111,-2.5111,-2.5111,-2.5111,-2.5111,-2.5111,-2.5111,-2.5111,-2.5111,-2.498,-2.4487,-2.3604,-2.2731,-2.2223,-2.2097,-2.1859,-2.0843,-2.1096,-2.1089,-2.0081,-1.9826,-1.9705,-1.9206,-1.9078,-1.9078,-1.9078,-1.92,-1.9711,-2.0482,-2.1964,-2.345,-2.4818,-2.592,-2.7151,-2.8856,-2.8984,-2.8984,-2.8984,-2.8984,-2.8984,-2.8984,-2.8984,-2.8984,-2.8984,-2.9213,-2.9213,-2.9213,-2.9331,-2.9331,-2.9213,-2.9213,-2.9094,-2.8984,-2.9213,-2.9213,-2.9213,-2.9568,-2.9804,-2.9912,-3.003,-3.0157,-3.0157,-3.0157,-3.0157,-3.0157,-2.8984,-2.8984,-2.8984,-2.8984,-2.8984,-2.8984,-2.8984,-2.8984,-2.8984,-2.8984,-2.8984,-2.8984,-2.8984,-2.8984,-2.8984,-2.8984,-2.8984,-2.8984,-2.8984,-2.8984,-2.8984,-2.8984,-2.8984,-2.8984,-2.8984,-2.8984,-2.8984,-2.8984,-2.8984,-2.8984,-2.8984,-2.8984,-2.8984,-2.8984,-2.8984,-2.8259,-2.7177,-2.7177,-2.6449,-2.5472,-2.5349,-2.5226,-2.5226,-2.5111,-2.5111,-2.5111,-2.5111,-2.5111,-2.5111,-2.5111,-2.5111,-2.5111,-2.5111,-2.5111,-2.5111,-2.5111,-2.5111,-2.5111,-2.5111,-2.5111,-2.5111,-2.4865,-2.3604,-2.2104,-2.0829,-2.1089,-2.1096,-1.9456,-1.9699,-2.0075,-1.92,-1.9078,-1.9078,-1.9078,-1.9078,-1.92,-1.945,-1.9826,-2.0087,-2.0475,-2.1839,-2.3931,-2.7013,-2.7142,-2.7513,-2.8865,-2.8984,-2.8984,-2.8984,-2.8984,-2.8984,-2.8984,-2.9103,-2.9103,-2.9103,-2.9213,-2.9331,-2.9677,-2.9922,-2.9922,-2.9568,-2.9568,-2.945,-2.9222,-2.945,-2.944,-2.9558,-2.9804,-3.0039,-3.0274,-3.0392,-3.0509,-3.0509,-3.0509,-3.0509,-3.0392,-2.8984,-2.8984,-2.8984,-2.8984,-2.8984,-2.8984,-2.8984,-2.8984,-2.8984,-2.8984,-2.8984,-2.8984,-2.8984,-2.8984,-2.8984,-2.8984,-2.8984,-2.8984,-2.8984,-2.8984,-2.8984,-2.8984,-2.8984,-2.8984,-2.8984,-2.8984,-2.8984,-2.8984,-2.8984,-2.8984,-2.8984,-2.8984,-2.8984,-2.8984,-2.8984,-2.8618,-2.79,-2.79,-2.7418,-2.6692,-2.6197,-2.5953,-2.5953,-2.5349,-2.5111,-2.5111,-2.5111,-2.5111,-2.5111,-2.5111,-2.5111,-2.5111,-2.5111,-2.5111,-2.5111,-2.5111,-2.5111,-2.5111,-2.5111,-2.5111,-2.4857,-2.3984,-2.3611,-2.2856,-2.1082,-2.0081,-1.9456,-1.9206,-1.92,-1.92,-1.9078,-1.9078,-1.9078,-1.9078,-1.9078,-1.9577,-2.1076,-2.1328,-2.158,-2.2208,-2.2702,-2.4548,-2.8361,-2.7633,-2.7513,-2.8865,-2.8984,-2.8984,-2.8984,-2.8984,-2.8984,-2.8984,-2.9331,-2.945,-2.945,-2.9912,-3.0265,-3.0274,-3.0645,-3.0411,-2.9804,-2.9804,-2.9804,-2.9804,-2.9568,-2.944,-2.9558,-2.9804,-2.9922,-3.0039,-3.0645,-3.0889,-3.0889,-3.0889,-3.0889,-3.0889,-2.8984,-2.8984,-2.8984,-2.8984,-2.8984,-2.8984,-2.8984,-2.8984,-2.8984,-2.8984,-2.8984,-2.8984,-2.8984,-2.8984,-2.8984,-2.8984,-2.8984,-2.8984,-2.8984,-2.8984,-2.8984,-2.8984,-2.8984,-2.8984,-2.8984,-2.8984,-2.8984,-2.8984,-2.8984,-2.8984,-2.8984,-2.8984,-2.8984,-2.8984,-2.8984,-2.8627,-2.802,-2.802,-2.7659,-2.6935,-2.6692,-2.6562,-2.6562,-2.6327,-2.5961,-2.5594,-2.5226,-2.5111,-2.5111,-2.5111,-2.5111,-2.5111,-2.5111,-2.5111,-2.5111,-2.5111,-2.5111,-2.5111,-2.5111,-2.5111,-2.498,-2.461,-2.3984,-2.3479,-2.2952,-2.1461,-1.9966,-1.92,-1.9078,-1.9078,-1.9078,-1.9078,-1.9206,-1.9328,-1.9328,-1.9947,-2.1699,-2.2076,-2.257,-2.3814,-2.4062,-2.517,-2.7633,-2.7383,-2.7513,-2.8865,-2.8984,-2.8984,-2.8984,-2.9213,-2.9331,-2.9331,-2.9568,-2.9686,-2.9686,-3.0039,-3.0157,-3.0382,-3.0518,-3.0518,-3.0157,-3.0157,-3.0039,-2.9922,-2.9912,-3.003,-3.0039,-3.0284,-3.0411,-3.0528,-3.0772,-3.0889,-3.0889,-3.0889,-3.0889,-3.0889]}]]